Date StartTime U_cm/s V_cm/s W_cm/s Ustd_cm/s Vstd_cm/s Wstd_cm/s Uvar_(cm/s)^2 Vvar_(cm/s)^2 Wvar_(cm/s)^2 KE_(m/s)^2 TurbulentKE_(m/s)^2 HorizWindSpeed_cm/s FrictionSpeec_cm/s DragCoef SpeedOfSound_m/s SonicTemperature_C Pressure_mb 
04/21/2014  00:00:00      -98.075      -69.194        5.011       55.652       43.181       30.532     3097.100     1864.632      932.219        1.016        0.295      120.027       33.551        0.078      339.272       12.491      864.488
04/21/2014  00:01:00     -127.539     -102.250        0.301       52.977       42.997       30.726     2806.545     1848.776      944.095        1.616        0.280      163.466       28.354        0.030      339.249       12.450      864.502
04/21/2014  00:02:00      -87.408      -75.767        5.459       56.020       39.846       25.487     3138.202     1587.725      649.583        0.939        0.269      115.675       23.794        0.042      339.220       12.402      864.506
04/21/2014  00:03:00     -120.990     -101.199       -1.653       50.936       37.425       29.502     2594.439     1400.616      870.340        1.487        0.243      157.733       29.534        0.035      339.255       12.463      864.500
04/21/2014  00:04:00     -126.599      -84.239        0.743       48.418       36.616       24.030     2344.306     1340.758      577.422        1.369        0.213      152.064       23.170        0.023      339.225       12.412      864.492
04/21/2014  00:05:00     -136.102      -75.681        6.481       58.543       35.568       29.004     3427.288     1265.048      841.245        1.491        0.277      155.728       27.528        0.031      339.184       12.342      864.483
04/21/2014  00:06:00     -177.415     -113.354       -5.680       40.299       33.961       24.647     1624.013     1153.335      607.499        2.387        0.169      210.535       18.423        0.008      339.201       12.369      864.483
04/21/2014  00:07:00     -131.380      -81.176       -5.347       60.643       45.869       27.521     3677.597     2103.978      757.394        1.521        0.327      154.435       27.660        0.032      339.219       12.402      864.489
04/21/2014  00:08:00      -77.706      -90.587        8.267       47.144       47.465       30.267     2222.567     2252.941      916.069        0.985        0.270      119.349       30.212        0.064      339.235       12.429      864.498
04/21/2014  00:09:00      -79.792      -32.933       -2.129       39.746       39.496       22.119     1579.736     1559.912      489.239        0.554        0.181       86.321       19.469        0.051      339.213       12.391      864.507
04/21/2014  00:10:00      -86.280       -8.647       -4.810       32.877       21.123       18.148     1080.897      446.183      329.357        0.470        0.093       86.712       18.599        0.046      339.168       12.317      864.528
04/21/2014  00:11:00      -56.550       24.538       -0.108       34.845       32.926       25.208     1214.169     1084.092      635.468        0.337        0.147       61.644       23.607        0.147      339.119       12.234      864.557
04/21/2014  00:12:00      -46.397       51.723       -6.783       23.456       18.757       18.841      550.167      351.827      354.967        0.307        0.063       69.484       11.382        0.027      338.962       11.970      864.572
04/21/2014  00:13:00      -40.302       46.873        2.366       33.628       31.214       20.478     1130.875      974.336      419.361        0.318        0.126       61.817       22.480        0.132      339.078       12.166      864.584
04/21/2014  00:14:00      -67.465       72.702      -10.059       28.391       26.388       23.002      806.056      696.341      529.088        0.598        0.102       99.182       18.611        0.035      339.133       12.257      864.599
04/21/2014  00:15:00      -67.226       52.063       -3.694       34.529       24.278       22.595     1192.252      589.435      510.526        0.477        0.115       85.029       22.680        0.071      339.122       12.238      864.609
04/21/2014  00:16:00      -80.135       10.829       -7.801       26.497       27.550       19.063      702.110      758.983      363.401        0.421        0.091       80.863       16.685        0.043      339.380       12.674      864.606
04/21/2014  00:17:00     -100.188      -29.831       -9.614       29.685       30.141       18.353      881.226      908.464      336.826        0.657        0.106      104.535       17.735        0.029      339.225       12.412      864.588
04/21/2014  00:18:00     -121.744      -54.918      -10.524       18.836       17.063       12.988      354.808      291.146      168.698        0.938        0.041      133.557       11.030        0.007      339.184       12.344      864.579
04/21/2014  00:19:00     -115.101      -68.415       -4.034       22.991       21.410       14.414      528.574      458.382      207.767        0.957        0.060      133.899        5.666        0.002      339.128       12.250      864.586
04/21/2014  00:20:00      -93.600      -53.580       -2.800       32.441       23.664       19.581     1052.403      560.004      383.415        0.682        0.100      107.851       17.818        0.027      339.113       12.224      864.597
04/21/2014  00:21:00      -94.350      -50.269        0.078       46.413       32.573       22.436     2154.163     1061.020      503.356        0.757        0.186      106.906       20.152        0.036      339.078       12.164      864.603
04/21/2014  00:22:00      -51.739      -52.712        9.207       43.827       34.274       26.443     1920.763     1174.676      699.236        0.467        0.190       73.861       19.205        0.068      339.088       12.181      864.604
04/21/2014  00:23:00      -95.053      -28.534       -3.498       53.379       27.252       24.299     2849.341      742.696      590.433        0.702        0.209       99.243       26.991        0.074      338.937       11.928      864.599
04/21/2014  00:24:00      -78.914        2.708       -6.596       35.812       36.055       20.872     1282.509     1299.971      435.633        0.465        0.151       78.961       13.805        0.031      339.064       12.142      864.603
04/21/2014  00:25:00     -101.117      -21.324       -8.574       30.094       28.932       20.873      905.671      837.069      435.699        0.647        0.109      103.341       13.468        0.017      338.981       12.002      864.596
04/21/2014  00:26:00      -81.545      -37.251       -6.603       19.084       20.383       11.643      364.197      415.462      135.557        0.450        0.046       89.651       11.295        0.016      339.020       12.066      864.588
04/21/2014  00:27:00      -78.918      -22.913       -4.025       22.634       17.889       16.528      512.316      320.005      273.175        0.394        0.055       82.177       13.945        0.029      338.973       11.989      864.577
04/21/2014  00:28:00      -84.046      -11.798       -6.855       19.403       14.037       14.673      376.481      197.045      215.294        0.402        0.039       84.870       12.608        0.022      338.856       11.790      864.571
04/21/2014  00:29:00      -87.978      -11.045      -15.382        7.736        8.559        8.730       59.840       73.262       76.216        0.415        0.010       88.668        2.912        0.001      338.826       11.742      864.576
04/21/2014  00:30:00     -100.023      -12.756      -16.029        9.778        8.661        9.561       95.611       75.010       91.419        0.534        0.013      100.833        4.843        0.002      338.794       11.688      864.580
04/21/2014  00:31:00      -96.359      -32.291      -12.151       12.242       12.108        8.576      149.868      146.613       73.549        0.542        0.019      101.626        5.561        0.003      338.815       11.723      864.572
04/21/2014  00:32:00      -92.627      -30.688       -6.932        7.874        8.824        7.074       62.003       77.871       50.039        0.488        0.009       97.579        2.997        0.001      338.811       11.717      864.575
04/21/2014  00:33:00      -89.106      -22.352       -7.505       18.190       15.538       14.537      330.894      241.442      211.324        0.464        0.039       91.867       13.284        0.021      338.842       11.769      864.569
04/21/2014  00:34:00      -72.821      -31.892       -8.355       22.663       17.736       13.722      513.614      314.567      188.302        0.370        0.051       79.499        6.862        0.007      338.861       11.800      864.580
04/21/2014  00:35:00      -72.661      -21.975      -14.453       10.149        9.974        7.983      103.003       99.489       63.724        0.312        0.013       75.912        4.280        0.003      338.794       11.687      864.591
04/21/2014  00:36:00      -85.263      -29.258      -10.790       15.201        9.432        8.927      231.061       88.968       79.697        0.432        0.020       90.143        5.350        0.004      338.881       11.835      864.597
04/21/2014  00:37:00      -95.090      -37.309      -10.194       20.766       24.390       10.246      431.231      594.893      104.980        0.583        0.057      102.148        6.460        0.004      338.950       11.950      864.595
04/21/2014  00:38:00      -97.117      -33.227       -6.233       21.140       17.505       12.172      446.880      306.429      148.156        0.574        0.045      102.643       10.086        0.010      338.945       11.942      864.587
04/21/2014  00:39:00     -116.891      -11.403      -16.302       15.703       13.254       13.034      246.591      175.682      169.893        0.733        0.030      117.445       10.138        0.007      338.820       11.731      864.577
04/21/2014  00:40:00     -100.733      -19.364       -7.520       21.906       12.335       15.624      479.891      152.155      244.094        0.573        0.044      102.577       12.552        0.015      338.782       11.667      864.572
04/21/2014  00:41:00     -118.215      -35.079       -5.856       22.660       20.342       14.366      513.456      413.789      206.377        0.819        0.057      123.310       12.642        0.011      338.654       11.452      864.567
04/21/2014  00:42:00      -81.211      -44.232        2.664       44.375       24.626       24.475     1969.168      606.448      599.037        0.587        0.159       92.475       24.845        0.072      338.657       11.457      864.569
04/21/2014  00:43:00     -127.234      -22.922       -4.721       33.414       28.100       17.941     1116.523      789.606      321.871        0.948        0.111      129.282       15.028        0.014      338.678       11.493      864.569
04/21/2014  00:44:00     -138.185      -11.093       -4.855       30.132       31.948       21.449      907.944     1020.696      460.054        1.081        0.119      138.630       17.248        0.015      338.550       11.278      864.554
04/21/2014  00:45:00     -143.692       -3.512      -12.761       35.117       25.045       23.911     1233.231      627.238      571.714        1.163        0.122      143.735       20.974        0.021      338.547       11.272      864.550
04/21/2014  00:46:00      -85.893      -49.595        8.674       48.160       36.526       25.679     2319.350     1334.143      659.410        0.711        0.216       99.183       21.028        0.045      338.402       11.029      864.553
04/21/2014  00:47:00     -123.977      -46.382        3.567       39.452       25.907       23.153     1556.494      671.157      536.053        1.015        0.138      132.369       21.175        0.026      338.390       11.008      864.553
04/21/2014  00:48:00     -116.618      -53.675        2.751       51.939       27.169       22.295     2697.688      738.164      497.062        1.021        0.197      128.378       23.172        0.033      338.466       11.136      864.536
04/21/2014  00:49:00     -132.717      -51.957       -5.916       41.216       34.061       19.282     1698.756     1160.171      371.795        1.179        0.162      142.525       20.365        0.020      338.512       11.213      864.509
04/21/2014  00:50:00     -106.043      -68.156        1.520       59.979       37.408       23.768     3597.525     1399.377      564.903        1.073        0.278      126.057       28.416        0.051      338.499       11.193      864.501
04/21/2014  00:51:00     -116.487      -91.177        0.344       43.500       42.402       31.533     1892.210     1797.940      994.337        1.328        0.234      147.927       25.277        0.029      338.565       11.303      864.504
04/21/2014  00:52:00      -56.569      -72.645        3.366       58.646       45.169       26.268     3439.337     2040.201      690.029        0.733        0.308       92.073       32.299        0.123      338.638       11.425      864.499
04/21/2014  00:53:00     -116.263      -82.935       -7.113       39.620       31.661       22.383     1569.750     1002.414      500.977        1.176        0.154      142.813       23.270        0.027      338.600       11.361      864.488
04/21/2014  00:54:00      -85.193      -56.369        6.145       51.324       33.878       20.552     2634.185     1147.695      422.387        0.734        0.210      102.153       21.455        0.044      338.650       11.445      864.482
04/21/2014  00:55:00      -37.858      -79.370       15.472       35.228       43.261       18.871     1241.008     1871.551      356.113        0.572        0.173       87.936       18.077        0.042      338.652       11.450      864.510
04/21/2014  00:56:00      -73.903      -62.038        4.394       32.724       53.471       24.691     1070.887     2859.161      609.659        0.693        0.227       96.490       19.836        0.042      338.643       11.434      864.519
04/21/2014  00:57:00      -86.430      -60.777       -4.871       52.757       27.505       25.322     2783.259      756.512      641.218        0.768        0.209      105.659       24.395        0.053      338.601       11.363      864.502
04/21/2014  00:58:00     -128.222     -109.420      -10.125       31.079       34.272       24.001      965.935     1174.575      576.026        1.562        0.136      168.563       16.931        0.010      338.558       11.290      864.498
04/21/2014  00:59:00     -139.553      -75.342      -16.000       25.279       24.851       18.613      639.023      617.590      346.457        1.350        0.080      158.592       11.960        0.006      338.574       11.317      864.491
04/21/2014  01:00:00     -109.295      -71.272       -1.834       35.592       24.075       20.959     1266.768      579.587      439.280        0.966        0.114      130.480       21.797        0.028      338.529       11.243      864.480
04/21/2014  01:01:00      -80.376      -45.954        0.054       36.541       22.640       17.470     1335.268      512.568      305.188        0.536        0.108       92.586       12.949        0.020      338.503       11.197      864.465
04/21/2014  01:02:00       -6.214      -36.720       14.566       23.226       22.054       18.585      539.466      486.371      345.388        0.148        0.069       37.243       10.455        0.079      338.675       11.487      864.461
04/21/2014  01:03:00       -9.050      -20.092       13.317       18.465       16.387       13.524      340.950      268.542      182.907        0.073        0.040       22.036       10.378        0.222      338.672       11.482      864.455
04/21/2014  01:04:00      -46.347      -38.779        2.987       33.358       17.924       15.704     1112.778      321.254      246.611        0.267        0.084       60.431       15.748        0.068      338.546       11.270      864.461
04/21/2014  01:05:00      -79.564      -53.839       -1.519       20.315       14.517       15.687      412.711      210.747      246.087        0.505        0.043       96.068       12.641        0.017      338.424       11.064      864.462
04/21/2014  01:06:00      -88.344      -54.402       -9.368       21.174       17.148       15.154      448.337      294.057      229.631        0.591        0.049      103.751        6.519        0.004      338.382       10.995      864.459
04/21/2014  01:07:00      -89.886      -50.195        2.347       27.295       27.778       16.017      745.007      771.607      256.560        0.619        0.089      102.951       14.056        0.019      338.419       11.059      864.453
04/21/2014  01:08:00     -113.182      -46.373      -10.712       20.393       27.503       17.711      415.869      756.413      313.677        0.828        0.074      122.314       11.918        0.009      338.317       10.886      864.467
04/21/2014  01:09:00      -83.472      -24.469      -10.722       22.396       32.040       14.634      501.573     1026.556      214.161        0.471        0.087       86.984       12.922        0.022      338.326       10.903      864.489
04/21/2014  01:10:00      -72.389        9.856       -5.907       33.304       29.794       20.247     1109.124      887.660      409.950        0.389        0.120       73.057       18.611        0.065      338.379       10.991      864.497
04/21/2014  01:11:00      -32.762       12.701       -2.556       23.402       24.742       12.364      547.631      612.179      152.865        0.128        0.066       35.138        8.601        0.060      338.321       10.894      864.494
04/21/2014  01:12:00      -45.528       10.138      -12.972       39.750       30.505       25.646     1580.042      930.565      657.739        0.276        0.158       46.643       23.177        0.247      338.389       11.007      864.497
04/21/2014  01:13:00      -50.613       -5.089       -1.107       31.480       22.291       18.475      990.960      496.881      341.319        0.221        0.091       50.868       11.819        0.054      338.336       10.919      864.490
04/21/2014  01:14:00      -67.852       24.628      -12.000       27.774       36.743       14.179      771.422     1350.072      201.043        0.384        0.116       72.183       11.191        0.024      338.414       11.051      864.485
04/21/2014  01:15:00      -71.030       -6.996       -1.234       45.994       29.638       22.964     2115.461      878.400      527.331        0.431        0.176       71.374       28.933        0.164      338.364       10.965      864.478
04/21/2014  01:16:00      -53.091        6.649       -1.824       31.930       42.076       18.714     1019.510     1770.356      350.231        0.300        0.157       53.506       14.790        0.076      338.369       10.974      864.468
04/21/2014  01:17:00      -33.975        6.326       -1.381       17.862       30.210       17.579      319.042      912.630      309.036        0.137        0.077       34.559       11.622        0.113      338.422       11.062      864.457
04/21/2014  01:18:00      -28.224        7.424        1.466       19.455       24.651       15.457      378.479      607.648      238.914        0.104        0.061       29.184       10.516        0.130      338.452       11.113      864.447
04/21/2014  01:19:00      -51.256       14.945       -0.256       24.285       29.881       14.221      589.781      892.894      202.228        0.227        0.084       53.390        9.732        0.033      338.384       10.998      864.437
04/21/2014  01:20:00       -9.015       -3.390        2.647       16.947       11.873        8.593      287.188      140.978       73.836        0.030        0.025        9.632        5.242        0.296      338.377       10.988      864.433
04/21/2014  01:21:00      -31.986      -13.558       -4.179       23.502       19.847       12.530      552.321      393.898      156.995        0.116        0.055       34.741        7.748        0.050      338.359       10.956      864.422
04/21/2014  01:22:00      -27.937      -33.889        3.668       30.633       12.959       16.505      938.379      167.924      272.405        0.166        0.069       43.920       17.874        0.166      338.292       10.845      864.420
04/21/2014  01:23:00      -86.099      -50.299      -13.787       32.374       22.251       19.109     1048.086      495.103      365.173        0.602        0.095       99.715       11.032        0.012      338.190       10.672      864.417
04/21/2014  01:24:00      -99.965      -70.597       -1.475       37.247       30.590       22.724     1387.364      935.753      516.371        0.891        0.142      122.380       15.857        0.017      338.054       10.445      864.410
04/21/2014  01:25:00     -104.284      -55.908        1.611       32.195       29.708       21.551     1036.527      882.541      464.442        0.819        0.119      118.325       18.799        0.025      338.050       10.438      864.404
04/21/2014  01:26:00      -55.249      -54.727        8.785       51.372       26.752       24.258     2639.038      715.649      588.452        0.503        0.197       77.766       24.889        0.102      338.071       10.474      864.404
04/21/2014  01:27:00     -105.297      -78.616       -2.817       31.152       24.279       19.506      970.432      589.481      380.477        0.961        0.097      131.407       19.408        0.022      338.079       10.486      864.403
04/21/2014  01:28:00     -100.971      -49.666        0.276       30.531       20.017       18.827      932.112      400.693      354.454        0.717        0.084      112.525       13.972        0.015      338.162       10.626      864.396
04/21/2014  01:29:00      -91.753      -71.332        1.041       44.898       44.761       26.364     2015.855     2003.569      695.075        0.911        0.236      116.219       16.632        0.020      338.210       10.706      864.388
04/21/2014  01:30:00      -86.086      -96.971       -5.176       47.829       55.164       30.450     2287.633     3043.012      927.179        1.155        0.313      129.669       28.477        0.048      338.204       10.696      864.379
04/21/2014  01:31:00     -115.851     -100.195       -1.344       61.334       51.839       35.043     3761.884     2687.253     1228.004        1.557        0.384      153.168       28.346        0.034      338.147       10.600      864.382
04/21/2014  01:32:00     -123.008     -119.624       -7.990       56.624       60.481       29.598     3206.285     3657.906      876.048        1.862        0.387      171.583       33.180        0.037      338.141       10.589      864.383
04/21/2014  01:33:00     -122.178     -125.583       -8.920       57.502       52.281       33.889     3306.526     2733.321     1148.433        1.898        0.359      175.210       30.871        0.031      338.142       10.591      864.371
04/21/2014  01:34:00      -88.192     -120.636       -3.542       52.956       40.683       32.253     2804.326     1655.097     1040.267        1.392        0.275      149.435       23.929        0.026      338.087       10.500      864.354
04/21/2014  01:35:00     -114.789     -101.526       -3.397       42.739       46.453       22.390     1826.585     2157.914      501.299        1.399        0.224      153.245       23.012        0.023      338.144       10.596      864.336
04/21/2014  01:36:00      -83.127      -62.366        3.669       51.103       30.137       24.507     2611.541      908.233      600.615        0.747        0.206      103.921       25.157        0.059      338.179       10.654      864.327
04/21/2014  01:37:00     -105.801      -66.445        0.670       38.933       20.773       21.804     1515.740      431.537      475.422        0.902        0.121      124.935       22.510        0.032      338.139       10.588      864.307
04/21/2014  01:38:00     -111.195      -56.575       -2.095       31.331       25.513       22.632      981.616      650.906      512.190        0.886        0.107      124.760       16.714        0.018      338.138       10.584      864.285
04/21/2014  01:39:00     -117.466      -26.173       -4.400       36.048       20.385       17.589     1299.491      415.547      309.372        0.826        0.101      120.346       19.057        0.025      338.039       10.420      864.262
04/21/2014  01:40:00     -144.684       -9.963       -8.222       34.878       26.246       25.215     1216.467      688.860      635.817        1.182        0.127      145.027       21.644        0.022      337.945       10.261      864.257
04/21/2014  01:41:00     -139.462      -34.551       -0.626       41.764       31.384       26.197     1744.211      984.973      686.272        1.203        0.171      143.679       24.636        0.029      337.933       10.242      864.251
04/21/2014  01:42:00     -161.805      -75.823       -3.871       40.179       35.357       23.575     1614.351     1250.136      555.779        1.768        0.171      178.690       20.813        0.014      337.949       10.270      864.243
04/21/2014  01:43:00     -117.592      -64.174        4.346       50.490       35.825       26.942     2549.225     1283.422      725.861        1.126        0.228      133.963       26.523        0.039      337.912       10.205      864.221
04/21/2014  01:44:00     -150.862      -48.809      -11.191       32.779       34.166       20.469     1074.441     1167.295      418.965        1.396        0.133      158.561       15.952        0.010      337.895       10.178      864.220
04/21/2014  01:45:00     -144.525      -50.198       -8.959       28.626       25.908       17.483      819.457      671.199      305.664        1.264        0.090      152.995       14.571        0.009      337.785        9.994      864.218
04/21/2014  01:46:00     -130.921      -20.894       -7.803       31.870       26.408       22.095     1015.671      697.405      488.187        0.992        0.110      132.578       20.304        0.023      337.704        9.858      864.213
04/21/2014  01:47:00     -152.451      -16.612      -13.174       42.814       27.193       25.094     1833.002      739.442      629.717        1.345        0.160      153.353       23.331        0.023      337.816       10.046      864.212
04/21/2014  01:48:00     -149.071      -12.869       -8.364       44.244       33.054       25.570     1957.501     1092.545      653.828        1.308        0.185      149.626       25.086        0.028      337.884       10.159      864.204
04/21/2014  01:49:00     -142.203      -10.967      -10.403       42.536       36.695       30.729     1809.341     1346.544      944.281        1.227        0.205      142.625       27.774        0.038      337.894       10.177      864.215
04/21/2014  01:50:00     -144.661      -31.084       -9.540       54.485       48.212       29.899     2968.574     2324.417      893.962        1.408        0.309      147.963       28.350        0.037      337.742        9.921      864.213
04/21/2014  01:51:00     -160.446      -60.695       -6.024       62.367       45.220       32.481     3889.614     2044.823     1055.002        1.822        0.349      171.542       30.192        0.031      337.616        9.710      864.221
04/21/2014  01:52:00     -127.768     -100.269      -10.421       52.653       42.767       29.436     2772.316     1829.035      866.450        1.598        0.273      162.415       24.169        0.022      337.608        9.696      864.226
04/21/2014  01:53:00     -172.443      -17.542       -3.676       55.435       45.911       36.335     3073.074     2107.797     1320.227        1.828        0.325      173.333       37.606        0.047      337.514        9.539      864.231
04/21/2014  01:54:00     -122.441      -51.225       -7.970       52.502       37.389       25.960     2756.445     1397.919      673.919        1.125        0.241      132.725       19.280        0.021      337.553        9.604      864.216
04/21/2014  01:55:00      -75.563      -27.814        2.613       46.710       27.563       23.465     2181.798      759.745      550.586        0.499        0.175       80.520       18.667        0.054      337.610        9.702      864.203
04/21/2014  01:56:00     -113.645      -33.219       -4.885       48.003       29.062       21.371     2304.288      844.603      456.708        0.882        0.180      118.401       15.036        0.016      337.600        9.683      864.197
04/21/2014  01:57:00     -124.082      -36.656       -5.625       53.487       31.602       23.092     2860.853      998.717      533.240        1.058        0.220      129.384       24.220        0.035      337.589        9.666      864.174
04/21/2014  01:58:00     -107.491      -24.942       -9.074       23.333       18.682       13.818      544.443      349.019      190.936        0.667        0.054      110.347        5.955        0.003      337.657        9.780      864.149
04/21/2014  01:59:00      -81.468      -53.047       -6.848       26.375       13.584       12.243      695.644      184.515      149.892        0.526        0.052       97.217        5.068        0.003      337.747        9.929      864.139
04/21/2014  02:00:00      -67.756      -33.589       -8.288       37.420       24.683       20.603     1400.256      609.247      424.487        0.411        0.122       75.624       22.911        0.092      337.832       10.073      864.134
04/21/2014  02:01:00      -53.252       -1.016        2.517       30.201       30.079       21.029      912.111      904.742      442.225        0.255        0.113       53.262       16.583        0.097      337.905       10.195      864.128
04/21/2014  02:02:00     -113.564      -17.355      -14.649       21.183       14.585       11.565      448.729      212.732      133.748        0.710        0.040      114.883        9.962        0.008      337.819       10.052      864.116
04/21/2014  02:03:00     -106.323      -28.640      -12.880       33.569       24.136       19.085     1126.883      582.538      364.235        0.718        0.104      110.113       19.279        0.031      337.782        9.989      864.126
04/21/2014  02:04:00     -124.154      -41.639      -13.275       18.277       15.667       15.756      334.063      245.443      248.244        0.908        0.041      130.950       12.838        0.010      337.714        9.876      864.125
04/21/2014  02:05:00     -120.862      -41.539      -13.562       16.483       21.884       13.157      271.679      478.928      173.098        0.872        0.046      127.801        6.891        0.003      337.687        9.828      864.120
04/21/2014  02:06:00     -109.073      -64.674       -2.727       31.415       26.228       21.729      986.916      687.890      472.162        0.912        0.107      126.805       14.369        0.013      337.688        9.831      864.119
04/21/2014  02:07:00      -77.799      -73.726       -0.487       41.407       32.101       24.736     1714.522     1030.498      611.891        0.742        0.168      107.183       19.779        0.034      337.691        9.837      864.117
04/21/2014  02:08:00      -95.298      -57.896       -6.959       25.290       50.506       21.852      639.581     2550.902      477.504        0.807        0.183      111.506       11.921        0.011      337.679        9.814      864.101
04/21/2014  02:09:00      -58.994      -51.695        5.297       41.742       30.587       21.700     1742.369      935.564      470.875        0.466        0.157       78.439       23.177        0.087      337.785        9.993      864.088
04/21/2014  02:10:00      -84.613      -65.309       -2.117       45.127       20.910       16.997     2036.483      437.242      288.910        0.710        0.138      106.886       11.285        0.011      337.813       10.040      864.075
04/21/2014  02:11:00      -98.839      -68.529        2.724       37.559       28.908       20.586     1410.700      835.688      423.764        0.857        0.134      120.272       20.415        0.029      337.811       10.038      864.061
04/21/2014  02:12:00     -101.610      -59.020       -6.392       33.262       32.672       19.331     1106.362     1067.458      373.697        0.820        0.127      117.507       20.679        0.031      337.748        9.932      864.034
04/21/2014  02:13:00     -102.859      -37.796       -8.158       26.327       23.112       15.540      693.107      534.185      241.486        0.677        0.073      109.583       13.213        0.015      337.690        9.836      864.007
04/21/2014  02:14:00     -126.539      -55.968       -4.631       23.940       21.400       15.400      573.139      457.975      237.169        1.022        0.063      138.364       12.542        0.008      337.662        9.787      863.993
04/21/2014  02:15:00     -125.809      -41.638        2.984       30.423       33.986       18.501      925.532     1155.051      342.287        1.000        0.121      132.520       14.381        0.012      337.594        9.674      863.989
04/21/2014  02:16:00     -120.231      -68.163       -0.179       44.629       32.268       25.836     1991.704     1041.246      667.518        1.140        0.185      138.209       20.204        0.021      337.676        9.812      863.987
04/21/2014  02:17:00     -120.313      -51.649        3.837       50.377       29.766       25.879     2537.799      886.035      669.712        1.062        0.205      130.931       29.773        0.052      337.706        9.861      863.981
04/21/2014  02:18:00     -113.789      -59.408       -3.884       49.158       36.083       22.382     2416.513     1301.983      500.949        1.036        0.211      128.364       25.735        0.040      337.665        9.793      863.977
04/21/2014  02:19:00     -125.818      -58.040       -0.313       32.537       25.947       18.903     1058.641      673.239      357.311        1.064        0.104      138.560       18.364        0.018      337.677        9.813      863.975
04/21/2014  02:20:00     -110.789      -47.627        0.341       33.553       30.080       20.751     1125.828      904.832      430.588        0.850        0.123      120.593       13.974        0.013      337.655        9.776      863.978
04/21/2014  02:21:00      -74.000      -54.244        0.873       42.028       28.222       18.815     1766.349      796.471      354.004        0.567        0.146       91.752       15.929        0.030      337.724        9.891      863.968
04/21/2014  02:22:00      -66.237      -50.558        6.861       41.662       27.804       20.895     1735.732      773.044      436.582        0.497        0.147       83.327       20.835        0.063      337.731        9.903      863.952
04/21/2014  02:23:00      -88.270      -55.989        4.656       46.635       26.643       24.784     2174.778      709.859      614.236        0.722        0.175      104.529       26.682        0.065      337.685        9.826      863.944
04/21/2014  02:24:00     -103.555      -63.193        1.014       43.208       33.315       23.715     1866.942     1109.864      562.401        0.913        0.177      121.313       13.726        0.013      337.682        9.821      863.936
04/21/2014  02:25:00      -87.756      -71.787       -1.228       58.569       40.023       24.680     3430.340     1601.812      609.080        0.925        0.282      113.378       25.708        0.051      337.741        9.921      863.930
04/21/2014  02:26:00     -122.236      -41.229      -10.535       44.206       45.601       22.135     1954.132     2079.442      489.941        1.064        0.226      129.002       23.944        0.034      337.700        9.851      863.914
04/21/2014  02:27:00      -89.161      -56.470       -3.286       57.072       44.043       24.475     3257.186     1939.780      599.041        0.847        0.290      105.539       29.740        0.079      337.728        9.898      863.910
04/21/2014  02:28:00      -98.279      -59.391        1.908       48.843       47.460       21.137     2385.685     2252.445      446.786        0.914        0.254      114.831       18.745        0.027      337.785        9.994      863.907
04/21/2014  02:29:00     -109.940      -94.033       -3.155       46.656       42.082       27.289     2176.747     1770.890      744.680        1.281        0.235      144.668       30.505        0.044      337.752        9.936      863.922
04/21/2014  02:30:00      -69.943      -52.816        6.052       36.214       26.230       23.462     1311.447      688.015      550.456        0.513        0.127       87.644       20.994        0.057      337.783        9.989      863.938
04/21/2014  02:31:00      -97.169      -72.645       -3.158       54.081       49.240       25.433     2924.777     2424.597      646.857        1.036        0.300      121.322       27.016        0.050      337.685        9.827      863.938
04/21/2014  02:32:00     -100.471      -95.244        0.026       60.401       44.273       34.254     3648.263     1960.091     1173.317        1.297        0.339      138.440       24.781        0.032      337.658        9.779      863.927
04/21/2014  02:33:00      -62.919      -68.044        5.151       36.979       28.907       23.225     1367.443      835.593      539.400        0.568        0.137       92.676       20.237        0.048      337.699        9.851      863.915
04/21/2014  02:34:00      -24.056      -83.777        6.693       26.918       35.836       18.805      724.600     1284.229      353.645        0.500        0.118       87.162       15.363        0.031      337.715        9.876      863.911
04/21/2014  02:35:00      -58.721      -67.874        4.805       56.063       51.031       25.133     3143.017     2604.179      631.654        0.723        0.319       89.750       23.605        0.069      337.652        9.771      863.885
04/21/2014  02:36:00     -137.259     -103.795       -4.774       47.110       38.548       29.468     2219.365     1485.926      868.362        1.710        0.229      172.086       25.289        0.022      337.573        9.638      863.845
04/21/2014  02:37:00     -114.641      -94.807        2.078       45.068       37.319       27.738     2031.097     1392.703      769.383        1.316        0.210      148.764       24.358        0.027      337.558        9.612      863.816
04/21/2014  02:38:00      -54.843      -62.456        6.733       50.614       42.103       29.443     2561.805     1772.694      866.882        0.608        0.260       83.117       21.194        0.065      337.605        9.692      863.796
04/21/2014  02:39:00      -93.581      -68.608        1.530       35.542       31.270       26.100     1263.235      977.813      681.186        0.819        0.146      116.036       22.219        0.037      337.620        9.718      863.785
04/21/2014  02:40:00     -122.671      -70.504       -6.972       35.593       25.037       19.667     1266.832      626.860      386.797        1.117        0.114      141.489       17.568        0.015      337.625        9.727      863.768
04/21/2014  02:41:00     -130.828      -48.900       -8.145       27.490       23.719       17.421      755.674      562.572      303.498        1.060        0.081      139.668       12.926        0.009      337.535        9.574      863.753
04/21/2014  02:42:00     -114.970      -40.516       -9.168       19.296       19.584       10.659      372.319      383.548      113.619        0.791        0.043      121.900        6.384        0.003      337.474        9.473      863.748
04/21/2014  02:43:00      -76.625      -43.245        3.702       18.359       33.794       18.622      337.065     1142.013      346.779        0.479        0.091       87.986       20.980        0.057      337.506        9.528      863.746
04/21/2014  02:44:00      -97.960      -26.981       -1.784       18.520       29.016       13.174      342.992      841.930      173.549        0.584        0.068      101.608        9.988        0.010      337.576        9.644      863.748
04/21/2014  02:45:00     -101.971      -23.402       -5.406       24.896       21.810       20.461      619.819      475.696      418.665        0.624        0.076      104.622       17.373        0.028      337.533        9.570      863.748
04/21/2014  02:46:00      -75.166       -8.637       -3.547       22.372       16.604       15.415      500.496      275.685      237.628        0.338        0.051       75.660       12.390        0.027      337.378        9.313      863.755
04/21/2014  02:47:00      -77.852      -10.847       -8.108       15.791       16.477       10.248      249.368      271.492      105.030        0.344        0.031       78.604        5.857        0.006      337.407        9.361      863.766
04/21/2014  02:48:00     -103.494      -35.857       -7.127       20.334       26.902       13.565      413.478      723.727      184.016        0.668        0.066      109.530        8.614        0.006      337.446        9.426      863.774
04/21/2014  02:49:00      -71.821      -57.673        2.305       30.795       21.776       15.466      948.308      474.198      239.197        0.508        0.083       92.111       12.520        0.018      337.449        9.430      863.803
04/21/2014  02:50:00      -38.521      -20.391        9.221       34.392       20.831       17.373     1182.787      433.931      301.836        0.195        0.096       43.585       18.249        0.175      337.415        9.374      863.824
04/21/2014  02:51:00      -27.255      -19.604        9.392       32.321       21.921       14.180     1044.629      480.509      201.078        0.147        0.086       33.573       13.932        0.172      337.424        9.388      863.831
04/21/2014  02:52:00      -75.524      -12.563       -6.263       16.602       16.527       11.521      275.616      273.150      132.736        0.329        0.034       76.562        8.375        0.012      337.388        9.328      863.828
04/21/2014  02:53:00      -91.116      -31.802      -13.613       11.470       11.552        9.553      131.571      133.447       91.252        0.493        0.018       96.507        4.741        0.002      337.361        9.282      863.834
04/21/2014  02:54:00     -110.259      -36.096      -12.553       18.499       14.269       10.894      342.203      203.618      118.683        0.714        0.033      116.017        6.094        0.003      337.439        9.415      863.840
04/21/2014  02:55:00      -95.658      -48.616        1.303       37.079       26.550       24.332     1374.878      704.888      592.034        0.709        0.134      107.303       24.822        0.054      337.459        9.446      863.833
04/21/2014  02:56:00      -89.618      -62.481       -4.681       35.245       28.181       14.018     1242.207      794.154      196.507        0.709        0.112      109.249        8.754        0.006      337.468        9.462      863.818
04/21/2014  02:57:00      -47.416      -60.648       -1.292       38.558       30.688       18.777     1486.721      941.726      352.593        0.435        0.139       76.983       19.790        0.066      337.497        9.511      863.807
04/21/2014  02:58:00      -41.778      -19.030       14.422       41.008       32.903       20.268     1681.696     1082.633      410.798        0.274        0.159       45.908       22.407        0.238      337.383        9.319      863.794
04/21/2014  02:59:00      -41.532      -43.562        1.903       39.326       32.088       19.064     1546.547     1029.651      363.424        0.328        0.147       60.188       20.890        0.120      337.374        9.304      863.777
04/21/2014  03:00:00      -26.848      -38.385       -0.676       28.599       23.363       17.467      817.900      545.813      305.094        0.193        0.083       46.843       14.548        0.096      337.468        9.460      863.760
04/21/2014  03:01:00      -16.241      -14.449       10.564       21.467       14.398       11.494      460.826      207.298      132.123        0.069        0.040       21.738       12.630        0.338      337.463        9.453      863.743
04/21/2014  03:02:00      -45.715      -14.296       -1.008       12.575       12.516       11.719      158.131      156.649      137.326        0.137        0.023       47.898        8.080        0.028      337.493        9.502      863.740
04/21/2014  03:03:00      -21.149        7.436        3.432       20.224       22.243       18.008      409.021      494.750      324.298        0.087        0.061       22.419       11.938        0.284      337.582        9.653      863.737
04/21/2014  03:04:00      -54.901       20.565       -2.081       17.926       26.967       14.278      321.347      727.209      203.852        0.235        0.063       58.627       11.269        0.037      337.824       10.058      863.731
04/21/2014  03:05:00      -77.919      -19.582      -13.062       10.275       21.741       10.450      105.569      472.651      109.194        0.366        0.034       80.342        7.656        0.009      337.544        9.589      863.730
04/21/2014  03:06:00      -88.298      -37.804      -13.387       11.074       13.438        8.317      122.627      180.592       69.170        0.489        0.019       96.051        6.964        0.005      337.411        9.367      863.737
04/21/2014  03:07:00      -79.708      -47.424       -7.485       16.042       15.523       11.119      257.353      240.966      123.633        0.464        0.031       92.749        6.970        0.006      337.335        9.238      863.746
04/21/2014  03:08:00      -69.917      -29.939       -2.363       21.555       20.226       16.381      464.629      409.100      268.343        0.347        0.057       76.057       14.127        0.035      337.241        9.083      863.742
04/21/2014  03:09:00      -20.637      -26.826       14.621       21.947       26.500       15.606      481.653      702.242      243.547        0.139        0.071       33.845        9.216        0.074      337.336        9.241      863.735
04/21/2014  03:10:00       -5.450      -39.493        0.801       23.259       14.430       12.708      540.977      208.228      161.494        0.125        0.046       39.867        8.756        0.048      337.265        9.123      863.720
04/21/2014  03:11:00      -18.495      -30.851        2.721       33.751       22.619       18.226     1139.155      511.628      332.184        0.164        0.099       35.970       12.145        0.114      337.223        9.054      863.712
04/21/2014  03:12:00      -51.738      -39.069        0.120       33.862       18.368       15.878     1146.631      337.378      252.096        0.297        0.087       64.832       17.378        0.072      337.179        8.978      863.693
04/21/2014  03:13:00      -91.823      -32.588       -5.361       13.605       13.593        9.607      185.085      184.760       92.289        0.499        0.023       97.435        3.757        0.001      337.147        8.922      863.666
04/21/2014  03:14:00      -83.337      -32.166       -6.207        9.956       10.701        9.337       99.129      114.508       87.182        0.416        0.015       89.329        4.622        0.003      337.124        8.887      863.633
04/21/2014  03:15:00      -66.466      -24.774       -6.478        9.167       17.920        9.076       84.041      321.123       82.367        0.278        0.024       70.932        4.012        0.003      337.140        8.913      863.605
04/21/2014  03:16:00      -45.183      -20.340        6.480       16.503       11.643        9.504      272.352      135.557       90.324        0.150        0.025       49.551        9.719        0.038      337.183        8.986      863.592
04/21/2014  03:17:00       -9.601      -21.577       11.221       21.811       13.046       12.701      475.703      170.192      161.317        0.075        0.040       23.616       11.475        0.236      337.256        9.107      863.583
04/21/2014  03:18:00      -33.004      -54.043        6.109       30.175       35.256       17.070      910.534     1242.954      291.376        0.325        0.122       63.324       15.259        0.058      337.347        9.259      863.566
04/21/2014  03:19:00      -33.153      -52.848       12.498       37.327       39.804       21.177     1393.293     1584.321      448.455        0.374        0.171       62.386       18.073        0.084      337.417        9.377      863.555
04/21/2014  03:20:00      -29.449      -31.167        7.880       28.062       21.037       18.027      787.476      442.544      324.988        0.173        0.078       42.880       11.369        0.070      337.347        9.260      863.540
04/21/2014  03:21:00      -42.320      -33.162        5.848       32.063       24.150       19.618     1028.006      583.224      384.850        0.246        0.100       53.765       12.623        0.055      337.352        9.267      863.531
04/21/2014  03:22:00      -53.631      -26.017        1.188       41.768       27.951       21.097     1744.547      781.278      445.062        0.326        0.149       59.608       18.363        0.095      337.281        9.150      863.525
04/21/2014  03:23:00      -75.166      -27.082       -1.524       23.112       18.225       12.088      534.176      332.144      146.126        0.370        0.051       79.897        9.680        0.015      337.317        9.210      863.515
04/21/2014  03:24:00      -85.491      -21.678      -11.573       19.210       18.730       14.390      369.038      350.805      207.084        0.442        0.046       88.197        9.794        0.012      337.192        8.999      863.511
04/21/2014  03:25:00      -77.014      -37.207       -3.891       21.231       20.014       14.248      450.757      400.543      203.016        0.419        0.053       85.531       11.552        0.018      336.966        8.621      863.522
04/21/2014  03:26:00      -99.741      -36.765      -12.340       14.609       13.096       10.050      213.435      171.501      100.995        0.597        0.024      106.301        8.999        0.007      336.860        8.444      863.532
04/21/2014  03:27:00     -113.561      -44.576      -12.425       18.662       16.592        8.768      348.267      275.296       76.871        0.787        0.035      121.996        6.302        0.003      336.840        8.412      863.539
04/21/2014  03:28:00      -86.002      -53.925       -6.770       27.028       13.778       13.143      730.530      189.835      172.740        0.572        0.055      101.510        7.076        0.005      336.921        8.547      863.533
04/21/2014  03:29:00      -69.885      -51.756       -1.366       41.152       24.427       18.083     1693.498      596.693      326.994        0.509        0.131       86.963       20.633        0.056      337.016        8.707      863.525
04/21/2014  03:30:00      -91.142      -40.900       -1.978       18.853       20.272       11.228      355.425      410.969      126.068        0.544        0.045       99.899        8.852        0.008      336.998        8.675      863.521
04/21/2014  03:31:00      -89.506      -40.584       -1.561       32.009       17.486       15.261     1024.608      305.756      232.894        0.561        0.078       98.277       17.312        0.031      336.981        8.646      863.521
04/21/2014  03:32:00      -89.013      -21.707       -6.690       30.741       27.472       15.448      944.999      754.723      238.649        0.519        0.097       91.621       13.800        0.023      337.007        8.689      863.519
04/21/2014  03:33:00      -84.795      -42.183       -6.394       21.846       13.388        8.832      477.241      179.238       77.998        0.487        0.037       94.708        6.731        0.005      336.946        8.589      863.523
04/21/2014  03:34:00      -71.973      -27.784      -11.722       14.156       14.847        8.455      200.388      220.421       71.494        0.329        0.025       77.150        3.476        0.002      336.957        8.606      863.513
04/21/2014  03:35:00      -26.565      -32.508        3.980       25.813       12.238       12.811      666.331      149.780      164.116        0.138        0.049       41.982        9.338        0.049      337.042        8.748      863.498
04/21/2014  03:36:00      -48.994      -33.228       -3.554       12.538       11.795       10.056      157.194      139.126      101.124        0.196        0.020       59.199        6.157        0.011      337.132        8.898      863.472
04/21/2014  03:37:00      -31.924      -17.492        1.328       18.132       10.103        6.181      328.776      102.072       38.207        0.090        0.023       36.401        4.124        0.013      337.126        8.890      863.456
04/21/2014  03:38:00       -7.663      -12.922       -0.009       13.070       11.118        6.790      170.828      123.610       46.108        0.028        0.017       15.023        2.696        0.032      337.144        8.920      863.452
04/21/2014  03:39:00      -30.497       -5.768       -0.883       15.396        9.343       10.830      237.024       87.291      117.286        0.070        0.022       31.038        4.819        0.024      337.087        8.825      863.463
04/21/2014  03:40:00      -51.338      -12.340       -0.413       15.137       12.367       11.792      229.143      152.946      139.044        0.165        0.026       52.800        5.809        0.012      337.053        8.765      863.481
04/21/2014  03:41:00       -9.635      -15.633        7.750       23.567       12.292       14.068      555.399      151.100      197.918        0.065        0.045       18.364       11.765        0.410      336.971        8.630      863.488
04/21/2014  03:42:00      -30.395      -21.054        7.292       24.845       15.941       14.929      617.260      254.120      222.866        0.126        0.055       36.974       12.087        0.107      337.006        8.688      863.489
04/21/2014  03:43:00      -66.549      -35.258       -6.782       26.626       22.296       13.446      708.931      497.127      180.798        0.355        0.069       75.312       11.320        0.023      337.009        8.693      863.484
04/21/2014  03:44:00      -73.204      -25.644       -1.844       27.641       24.122       12.929      764.010      581.883      167.167        0.377        0.076       77.566        9.072        0.014      336.927        8.557      863.481
04/21/2014  03:45:00      -37.740      -36.725        7.252       31.419       19.194       19.176      987.179      368.424      367.726        0.227        0.086       52.660       15.393        0.085      336.929        8.558      863.483
04/21/2014  03:46:00      -34.264      -41.976        6.330       23.499       20.536       15.499      552.209      421.724      240.204        0.209        0.061       54.185       10.293        0.036      336.983        8.649      863.478
04/21/2014  03:47:00      -56.237      -34.206       -4.342       27.057       25.347       14.633      732.056      642.488      214.121        0.297        0.079       65.822       13.919        0.045      336.957        8.607      863.472
04/21/2014  03:48:00      -56.152      -28.351       -6.181       30.418       19.535       12.572      925.268      381.611      158.056        0.273        0.073       62.904       13.741        0.048      337.024        8.719      863.471
04/21/2014  03:49:00      -97.204      -33.471      -12.721       13.691       17.239       13.003      187.439      297.172      169.077        0.569        0.033      102.806        9.646        0.009      336.913        8.534      863.485
04/21/2014  03:50:00     -112.700      -18.915      -10.537       19.560       19.359       13.548      382.583      374.785      183.548        0.706        0.047      114.276       11.729        0.011      336.706        8.189      863.486
04/21/2014  03:51:00     -129.949      -17.366      -19.421       12.045       13.416       10.256      145.091      180.002      105.178        0.900        0.022      131.105        3.057        0.001      336.597        8.006      863.481
04/21/2014  03:52:00     -105.899      -36.735      -12.536       17.012       16.026       16.040      289.406      256.833      257.288        0.676        0.040      112.090        5.990        0.003      336.626        8.054      863.484
04/21/2014  03:53:00     -107.150      -34.919      -14.831       14.020       16.991       11.909      196.553      288.700      141.822        0.677        0.031      112.697        7.164        0.004      336.512        7.863      863.499
04/21/2014  03:54:00     -107.079      -36.914       -9.257       10.400       15.831       10.585      108.160      250.635      112.048        0.669        0.024      113.264        5.001        0.002      336.464        7.784      863.509
04/21/2014  03:55:00      -87.603      -27.078       -7.014       17.190       17.899       10.758      295.485      320.358      115.734        0.459        0.037       91.693        7.532        0.007      336.526        7.887      863.495
04/21/2014  03:56:00      -78.542      -11.382       -3.642       28.274       21.727       17.148      799.401      472.072      294.056        0.394        0.078       79.362       14.477        0.033      336.539        7.909      863.476
04/21/2014  03:57:00      -89.792      -26.344       -6.764       26.588       19.069       13.568      706.906      363.638      184.081        0.503        0.063       93.577       10.040        0.012      336.570        7.962      863.447
04/21/2014  03:58:00      -78.644      -34.375       -8.606       16.045       13.944       10.969      257.433      194.439      120.313        0.401        0.029       85.828        5.861        0.005      336.584        7.984      863.428
04/21/2014  03:59:00      -63.571      -42.312       -7.583       19.364       14.413        9.994      374.945      207.743       99.871        0.329        0.034       76.365        7.698        0.010      336.551        7.930      863.432
04/21/2014  04:00:00      -67.806      -28.621       -5.550       18.109       13.171       10.857      327.948      173.470      117.865        0.303        0.031       73.599        9.575        0.017      336.522        7.880      863.421
04/21/2014  04:01:00      -95.590      -17.967      -10.192       18.400       11.272       12.112      338.547      127.068      146.695        0.509        0.031       97.264        9.121        0.009      336.592        7.998      863.421
04/21/2014  04:02:00      -87.765      -40.323       -6.703       15.906       16.241       11.089      252.989      263.770      122.968        0.501        0.032       96.585        7.687        0.006      336.616        8.038      863.416
04/21/2014  04:03:00      -84.407      -39.775      -12.597       16.623       20.213       12.082      276.316      408.558      145.970        0.485        0.042       93.309        9.367        0.010      336.573        7.967      863.425
04/21/2014  04:04:00     -109.351       -6.571      -13.412       28.298       26.160       19.695      800.800      684.322      387.912        0.703        0.094      109.548       15.001        0.019      336.510        7.860      863.418
04/21/2014  04:05:00      -83.139        1.042       -4.799       38.489       28.318       20.751     1481.407      801.916      430.604        0.482        0.136       83.145       16.998        0.042      336.392        7.662      863.409
04/21/2014  04:06:00      -51.004       -9.412       -6.676       30.823       30.683       25.725      950.034      941.448      661.792        0.264        0.128       51.866       22.990        0.196      336.394        7.666      863.413
04/21/2014  04:07:00      -47.345       -5.032       -3.635       35.106       22.492       20.754     1232.449      505.874      430.739        0.222        0.108       47.611       21.154        0.197      336.430        7.725      863.423
04/21/2014  04:08:00      -80.871      -15.966       -7.918       29.423       26.665       16.202      865.694      711.014      262.499        0.435        0.092       82.432        9.165        0.012      336.486        7.821      863.425
04/21/2014  04:09:00      -90.540      -33.561       -6.592       35.345       35.880       16.606     1249.273     1287.393      275.757        0.609        0.141       96.560       17.999        0.035      336.409        7.691      863.427
04/21/2014  04:10:00     -121.797      -37.710      -11.267       19.826       23.695       14.425      393.058      561.450      208.073        0.877        0.058      127.501       10.209        0.006      336.483        7.815      863.432
04/21/2014  04:11:00     -131.731      -30.863      -15.894       16.707       24.325       15.012      279.123      591.727      225.371        0.983        0.055      135.298       12.108        0.008      336.456        7.770      863.416
04/21/2014  04:12:00     -114.062      -36.002       -9.640       31.116       22.626       17.096      968.193      511.914      292.279        0.809        0.089      119.609       12.942        0.012      336.387        7.655      863.409
04/21/2014  04:13:00     -124.915       -7.484       -9.794       42.288       27.991       29.388     1788.266      783.496      863.632        0.959        0.172      125.139       28.496        0.052      336.349        7.591      863.386
04/21/2014  04:14:00      -98.791        9.076        0.871       46.247       36.430       26.276     2138.829     1327.113      690.430        0.700        0.208       99.207       23.810        0.058      336.432        7.730      863.368
04/21/2014  04:15:00     -107.939        6.490       -3.390       43.844       30.252       21.338     1922.284      915.170      455.305        0.750        0.165      108.134       21.362        0.039      336.467        7.787      863.360
04/21/2014  04:16:00      -82.489       -1.890        0.505       48.250       30.299       22.524     2328.027      918.001      507.318        0.528        0.188       82.511       23.190        0.079      336.442        7.746      863.356
04/21/2014  04:17:00     -135.723      -19.753      -10.921       36.190       27.127       19.215     1309.695      735.865      369.214        1.067        0.121      137.153       19.140        0.019      336.492        7.831      863.350
04/21/2014  04:18:00     -102.795      -23.957       -8.701       40.985       32.819       20.875     1679.811     1077.093      435.774        0.720        0.160      105.550       18.497        0.031      336.498        7.841      863.329
04/21/2014  04:19:00     -100.629      -21.298       -2.932       31.927       29.191       19.286     1019.343      852.115      371.954        0.642        0.112      102.858       17.493        0.029      336.485        7.817      863.315
04/21/2014  04:20:00      -88.979      -15.254       -3.843       50.765       25.819       21.377     2577.093      666.604      456.975        0.593        0.185       90.277       24.957        0.076      336.512        7.864      863.298
04/21/2014  04:21:00      -82.904       -7.355       -0.207       36.172       28.484       21.276     1308.381      811.311      452.660        0.475        0.129       83.230       22.451        0.073      336.491        7.829      863.278
04/21/2014  04:22:00      -92.451      -46.101       -0.153       32.998       26.751       16.017     1088.879      715.608      256.530        0.637        0.103      103.307       14.551        0.020      336.525        7.886      863.270
04/21/2014  04:23:00     -154.593      -40.545       -9.229       19.279       22.911       15.645      371.697      524.914      244.766        1.338        0.057      159.821        9.455        0.003      336.528        7.891      863.255
04/21/2014  04:24:00     -125.708      -43.270       -9.458       18.929       19.475       12.367      358.314      379.277      152.939        0.933        0.045      132.946        9.169        0.005      336.504        7.850      863.252
04/21/2014  04:25:00     -127.356      -51.832       -5.953       16.559       20.039       15.775      274.198      401.546      248.854        0.993        0.046      137.500       10.994        0.006      336.485        7.819      863.236
04/21/2014  04:26:00     -135.494      -42.218      -15.565       17.161       20.154       14.780      294.502      406.186      218.443        1.065        0.046      141.919        9.582        0.005      336.509        7.858      863.237
04/21/2014  04:27:00     -104.127      -47.202        3.478       36.937       25.804       19.317     1364.318      665.846      373.165        0.774        0.120      114.326       20.009        0.031      336.510        7.861      863.220
04/21/2014  04:28:00     -118.341      -51.872        5.318       33.924       30.637       20.431     1150.842      938.615      417.407        0.961        0.125      129.210       15.700        0.015      336.595        8.004      863.228
04/21/2014  04:29:00      -50.331      -57.616        0.510       54.657       41.752       24.517     2987.337     1743.254      601.081        0.559        0.267       76.504       28.524        0.139      336.738        8.243      863.226
04/21/2014  04:30:00      -62.036      -54.914        7.126       48.776       36.598       27.652     2379.120     1339.435      764.615        0.570        0.224       82.849       28.535        0.119      336.748        8.258      863.226
04/21/2014  04:31:00      -46.852      -18.962        4.973       44.803       25.545       20.735     2007.290      652.541      429.940        0.283        0.154       50.544       15.442        0.093      336.622        8.048      863.234
04/21/2014  04:32:00      -50.735      -35.621        4.044       55.277       22.562       17.372     3055.576      509.043      301.795        0.386        0.193       61.991       22.582        0.133      336.660        8.114      863.233
04/21/2014  04:33:00      -46.471      -44.343        7.102       34.806       24.492       18.647     1211.478      599.843      347.692        0.317        0.108       64.232       17.828        0.077      336.680        8.144      863.249
04/21/2014  04:34:00      -71.082     -100.284        6.149       30.767       40.486       24.361      946.595     1639.113      593.458        0.916        0.159      122.921       20.443        0.028      336.752        8.265      863.250
04/21/2014  04:35:00     -100.511      -93.465        1.141       58.103       49.266       32.394     3375.960     2427.120     1049.363        1.284        0.343      137.252       30.607        0.050      336.704        8.185      863.238
04/21/2014  04:36:00     -112.077      -96.430       -1.621       57.917       45.898       33.577     3354.352     2106.602     1127.422        1.422        0.329      147.852       34.511        0.054      336.699        8.176      863.222
04/21/2014  04:37:00      -70.973      -69.440       -1.278       47.651       29.844       23.255     2270.595      890.689      540.788        0.678        0.185       99.293       23.034        0.054      336.718        8.210      863.203
04/21/2014  04:38:00      -81.773      -48.323        0.537       47.776       32.200       27.427     2282.592     1036.860      752.228        0.655        0.204       94.984       29.574        0.097      336.686        8.157      863.211
04/21/2014  04:39:00      -40.808      -35.341        9.859       52.633       26.002       21.217     2770.281      676.101      450.172        0.345        0.195       53.984       23.730        0.193      336.683        8.150      863.214
04/21/2014  04:40:00      -44.320      -41.562        6.199       49.094       28.395       24.018     2410.261      806.272      576.852        0.376        0.190       60.759       28.050        0.213      336.707        8.191      863.232
04/21/2014  04:41:00      -70.178      -79.263       -1.411       39.005       32.561       20.918     1521.390     1060.220      437.553        0.711        0.151      105.866       19.397        0.034      336.727        8.224      863.248
04/21/2014  04:42:00      -82.602      -50.586       -3.423       27.400       21.317       14.554      750.746      454.403      211.822        0.541        0.071       96.861        9.794        0.010      336.715        8.206      863.243
04/21/2014  04:43:00      -73.376      -59.052        3.238       43.798       29.153       20.512     1918.223      849.891      420.746        0.603        0.159       94.187       17.098        0.033      336.754        8.270      863.238
04/21/2014  04:44:00      -92.487      -53.336       -1.549       17.931       15.010       13.675      321.534      225.300      187.007        0.607        0.037      106.765       11.378        0.011      336.739        8.243      863.232
04/21/2014  04:45:00     -100.323      -30.573       -4.661       28.538       21.116       17.773      814.421      445.891      315.895        0.630        0.079      104.879       14.807        0.020      336.571        7.962      863.224
04/21/2014  04:46:00      -72.983       -6.570        5.174       39.344       18.617       20.382     1547.971      346.594      415.411        0.385        0.115       73.278       21.141        0.083      336.583        7.986      863.230
04/21/2014  04:47:00      -84.229      -12.496       -5.627       32.918       24.387       18.482     1083.583      594.729      341.596        0.465        0.101       85.151       15.849        0.035      336.673        8.133      863.211
04/21/2014  04:48:00      -96.238      -27.145        3.454       31.352       27.280       18.685      982.943      744.183      349.124        0.604        0.104       99.993       16.618        0.028      336.565        7.955      863.193
04/21/2014  04:49:00     -101.822      -21.522       -1.243       37.145       27.833       14.423     1379.778      774.657      208.011        0.660        0.118      104.071       13.475        0.017      336.601        8.013      863.185
04/21/2014  04:50:00     -115.813      -48.387        1.314       20.335       20.143       12.286      413.527      405.726      150.940        0.836        0.049      125.515       10.398        0.007      336.607        8.024      863.159
04/21/2014  04:51:00     -103.088      -32.498       -8.430       18.391       12.856        8.459      338.246      165.277       71.555        0.616        0.029      108.089        5.242        0.002      336.634        8.068      863.141
04/21/2014  04:52:00      -82.571      -39.715      -14.712       16.109       15.561       11.256      259.491      242.147      126.708        0.462        0.031       91.626        6.804        0.006      336.579        7.977      863.137
04/21/2014  04:53:00      -96.398      -22.407       -8.314       14.668       19.080        9.902      215.147      364.044       98.046        0.527        0.034       98.968        6.992        0.005      336.494        7.834      863.137
04/21/2014  04:54:00      -81.842       -0.849       -6.431       27.254       21.042       17.902      742.796      442.773      320.468        0.412        0.075       81.847       16.233        0.039      336.448        7.756      863.125
04/21/2014  04:55:00      -65.447       -5.202       -0.625       26.050       23.578       16.421      678.611      555.945      269.657        0.291        0.075       65.653       13.956        0.045      336.372        7.630      863.105
04/21/2014  04:56:00      -43.921      -27.883       -5.019       19.811       13.150       12.826      392.474      172.918      164.516        0.173        0.036       52.025       12.225        0.055      336.367        7.621      863.100
04/21/2014  04:57:00      -45.888      -16.996       -3.365       13.308       13.862       11.688      177.090      192.160      136.616        0.146        0.025       48.934        6.960        0.020      336.469        7.793      863.079
04/21/2014  04:58:00      -65.251      -24.822       -4.798       20.138       15.776        8.844      405.525      248.892       78.218        0.281        0.037       69.813        6.721        0.009      336.503        7.848      863.062
04/21/2014  04:59:00      -86.414       10.591       -5.953       30.231       20.382       13.937      913.911      415.436      194.236        0.457        0.076       87.061        9.464        0.012      336.462        7.780      863.053
04/21/2014  05:00:00      -69.761       -1.341        1.147       27.480       29.578       19.690      755.157      874.879      387.677        0.344        0.101       69.774       13.818        0.039      336.439        7.741      863.060
04/21/2014  05:01:00      -59.428      -36.572        0.851       31.598       36.303       15.192      998.421     1317.896      230.792        0.371        0.127       69.779       12.631        0.033      336.485        7.818      863.074
04/21/2014  05:02:00      -48.324      -19.439       -1.221       21.173       22.855       12.644      448.312      522.346      159.865        0.192        0.057       52.087        9.435        0.033      336.403        7.680      863.074
04/21/2014  05:03:00      -66.994       -4.576       -3.939       19.552       18.033       12.516      382.288      325.196      156.651        0.269        0.043       67.150       11.999        0.032      336.338        7.571      863.071
04/21/2014  05:04:00      -66.930      -40.437       -3.725       21.798       16.653       13.070      475.134      277.332      170.836        0.353        0.046       78.197       11.619        0.022      336.397        7.673      863.080
04/21/2014  05:05:00      -73.744      -44.895       -4.508       15.260       18.407       11.282      232.879      338.802      127.283        0.409        0.035       86.335        7.385        0.007      336.382        7.646      863.094
04/21/2014  05:06:00      -88.752      -36.327       -1.432       20.730       12.237       10.342      429.750      149.745      106.951        0.494        0.034       95.898        5.103        0.003      336.440        7.743      863.092
04/21/2014  05:07:00      -64.229      -42.526       -1.401       31.051       20.990       13.867      964.148      440.569      192.299        0.377        0.080       77.031       15.126        0.039      336.509        7.858      863.079
04/21/2014  05:08:00      -71.615      -42.154       -6.439       16.143       13.564       10.558      260.605      183.985      111.480        0.375        0.028       83.100        8.088        0.009      336.576        7.970      863.055
04/21/2014  05:09:00      -51.283      -13.598       -2.553       15.722       13.531        8.655      247.188      183.075       74.917        0.166        0.025       53.055        7.398        0.019      336.501        7.846      863.033
04/21/2014  05:10:00      -59.788      -15.035       -6.666       15.440       11.736       10.160      238.382      137.743      103.220        0.216        0.024       61.649        6.171        0.010      336.508        7.857      863.017
04/21/2014  05:11:00      -87.237      -33.673       -8.437       21.752       13.375       11.393      473.150      178.899      129.806        0.480        0.039       93.510        6.509        0.005      336.463        7.781      863.001
04/21/2014  05:12:00      -86.094      -33.242      -11.571       35.864       27.671       16.355     1286.216      765.673      267.500        0.548        0.116       92.288       12.123        0.017      336.503        7.849      862.980
04/21/2014  05:13:00      -93.363      -26.571      -12.014       19.497       18.252       12.417      380.150      333.121      154.183        0.522        0.043       97.071        8.654        0.008      336.481        7.811      862.964
04/21/2014  05:14:00      -75.493      -19.443       -2.300       24.585       13.599       14.962      604.444      184.944      223.866        0.355        0.051       77.957       16.066        0.042      336.408        7.690      862.948
04/21/2014  05:15:00      -75.497      -19.631       -3.675       15.852       16.904       11.435      251.271      285.751      130.764        0.338        0.033       78.008        8.356        0.011      336.421        7.710      862.944
04/21/2014  05:16:00      -90.725      -26.971       -8.735       17.520       15.503       10.956      306.964      240.354      120.036        0.485        0.033       94.650        5.382        0.003      336.435        7.735      862.948
04/21/2014  05:17:00      -90.882      -13.516       -3.474       21.836       20.277        9.865      476.809      411.173       97.324        0.472        0.049       91.882        7.843        0.007      336.384        7.650      862.951
04/21/2014  05:18:00     -101.034      -25.999       -4.593       21.355       17.937       13.784      456.030      321.743      189.998        0.594        0.048      104.326       10.809        0.011      336.297        7.504      862.964
04/21/2014  05:19:00      -94.367      -28.716       -1.459       23.563       30.535       14.235      555.204      932.364      202.648        0.571        0.085       98.639       13.266        0.018      336.265        7.450      862.969
04/21/2014  05:20:00      -72.807      -44.528        5.015       39.021       22.598       15.518     1522.606      510.665      240.794        0.479        0.114       85.344       13.467        0.025      336.400        7.676      862.963
04/21/2014  05:21:00      -68.010      -17.211        2.413       32.865       19.190       14.245     1080.096      368.254      202.930        0.329        0.083       70.154       12.691        0.033      336.364        7.615      862.954
04/21/2014  05:22:00      -92.175        1.472       -8.202       17.881       10.780       11.730      319.732      116.216      137.598        0.457        0.029       92.187       10.255        0.012      336.295        7.502      862.948
04/21/2014  05:23:00      -58.083      -25.232       -0.952       21.359       19.775        8.971      456.203      391.067       80.473        0.247        0.046       63.327        9.791        0.024      336.328        7.557      862.935
04/21/2014  05:24:00      -63.650      -15.285       -4.104       13.582       12.845        8.583      184.476      165.002       73.674        0.236        0.021       65.460        6.204        0.009      336.404        7.683      862.924
04/21/2014  05:25:00      -96.503      -34.612       -7.881       17.187       16.835       10.726      295.395      283.409      115.056        0.563        0.035      102.523        7.335        0.005      336.349        7.591      862.918
04/21/2014  05:26:00      -63.074      -34.037        1.961       32.029       16.524       12.686     1025.888      273.037      160.938        0.330        0.073       71.672        8.159        0.013      336.335        7.567      862.920
04/21/2014  05:27:00      -89.509      -65.255       -9.006       17.118       18.666       12.479      293.025      348.437      155.736        0.657        0.040      110.770        7.939        0.005      336.380        7.644      862.908
04/21/2014  05:28:00      -74.040      -43.388       -4.250       25.799       16.053       12.952      665.597      257.712      167.766        0.424        0.055       85.816       12.919        0.023      336.392        7.662      862.886
04/21/2014  05:29:00      -18.923      -26.237        9.290       28.019       16.679       15.575      785.054      278.190      242.595        0.122        0.065       32.349       15.348        0.225      336.446        7.754      862.882
04/21/2014  05:30:00       -7.496      -14.336        9.511       23.128       16.831       16.814      534.908      283.297      282.703        0.073        0.055       16.178       12.307        0.579      336.388        7.655      862.892
04/21/2014  05:31:00      -22.872      -23.094       10.115       35.839       18.362       17.542     1284.399      337.148      307.725        0.154        0.096       32.503       19.832        0.372      336.380        7.643      862.897
04/21/2014  05:32:00      -60.855      -53.890       -0.383       47.350       35.861       22.966     2241.991     1285.995      527.457        0.533        0.203       81.287       23.630        0.085      336.407        7.688      862.884
04/21/2014  05:33:00     -105.314      -44.857       -3.793       24.765       18.772       12.200      613.321      352.369      148.845        0.712        0.056      114.469        9.022        0.006      336.345        7.584      862.859
04/21/2014  05:34:00      -65.440      -46.432        1.192       38.538       20.238       20.502     1485.149      409.582      420.317        0.438        0.116       80.239       19.692        0.060      336.270        7.458      862.860
04/21/2014  05:35:00      -68.895      -34.578        7.434       41.897       30.817       19.938     1755.358      949.677      397.536        0.455        0.155       77.085       18.485        0.058      336.291        7.495      862.880
04/21/2014  05:36:00      -97.681      -40.848       -9.313       33.929       43.354       21.459     1151.204     1879.565      460.483        0.739        0.175      105.878       14.590        0.019      336.375        7.633      862.886
04/21/2014  05:37:00      -91.765      -25.182       -3.517       32.371       23.413       18.981     1047.863      548.145      360.270        0.551        0.098       95.157       18.729        0.039      336.282        7.480      862.878
04/21/2014  05:38:00      -93.548      -32.397       -6.157       28.721       26.016       13.701      824.901      676.829      187.712        0.576        0.084       98.999       14.544        0.022      336.346        7.586      862.879
04/21/2014  05:39:00      -94.027      -37.207       -6.650       32.133       19.186       17.056     1032.561      368.092      290.891        0.598        0.085      101.121       15.773        0.024      336.363        7.614      862.873
04/21/2014  05:40:00      -91.227      -22.603       -2.614       22.069       20.461       13.554      487.026      418.643      183.724        0.496        0.054       93.985       10.964        0.014      336.248        7.422      862.889
04/21/2014  05:41:00     -109.036       -9.856        1.850       35.056       34.071       20.518     1228.937     1160.809      421.006        0.740        0.141      109.480       20.873        0.036      336.270        7.459      862.894
04/21/2014  05:42:00      -85.479      -23.009       -2.113       43.517       24.694       16.358     1893.718      609.775      267.584        0.531        0.139       88.522       17.493        0.039      336.150        7.258      862.904
04/21/2014  05:43:00      -55.757      -18.500       -1.789       23.622       20.168       18.331      557.988      406.750      336.015        0.238        0.065       58.746       14.909        0.064      336.327        7.554      862.905
04/21/2014  05:44:00      -60.861      -40.349       -1.255       18.282       14.466        9.582      334.234      209.264       91.811        0.298        0.032       73.021        9.157        0.016      336.345        7.586      862.892
04/21/2014  05:45:00      -22.847      -57.599        2.087       19.026       14.711       17.148      361.982      216.405      294.070        0.236        0.044       61.965        2.959        0.002      336.507        7.856      862.885
04/21/2014  05:46:00      -29.461      -38.869       -4.736       36.483       17.821       10.286     1331.004      317.581      105.811        0.208        0.088       48.773        8.890        0.033      336.484        7.816      862.870
04/21/2014  05:47:00      -86.041       -0.078      -12.447       11.552       16.971       10.260      133.445      288.028      105.262        0.404        0.026       86.041        6.374        0.005      336.332        7.562      862.881
04/21/2014  05:48:00     -103.930      -21.488      -10.484       23.453       16.372       12.586      550.026      268.054      158.416        0.617        0.049      106.128        8.922        0.007      336.242        7.413      862.892
04/21/2014  05:49:00     -125.776      -32.837       -2.424       28.440       29.228       15.221      808.828      854.271      231.688        0.940        0.095      129.992       15.224        0.014      336.223        7.380      862.899
04/21/2014  05:50:00     -109.448       -8.112       -1.584       43.304       28.233       24.342     1875.269      797.076      592.548        0.766        0.163      109.749       23.145        0.044      336.075        7.133      862.887
04/21/2014  05:51:00      -71.527       -6.854        4.579       34.018       26.433       21.796     1157.200      698.689      475.061        0.376        0.117       71.854       21.739        0.092      336.109        7.190      862.877
04/21/2014  05:52:00      -89.354      -14.739       -0.154       48.608       26.531       21.881     2362.743      703.869      478.779        0.587        0.177       90.562       23.152        0.065      336.088        7.155      862.865
04/21/2014  05:53:00      -83.142       -2.601        3.688       47.336       29.780       23.746     2240.686      886.854      563.890        0.531        0.185       83.183       26.874        0.104      336.033        7.062      862.858
04/21/2014  05:54:00     -108.852       -0.739       -6.313       32.001       25.889       21.956     1024.067      670.245      482.061        0.703        0.109      108.854       20.205        0.034      336.013        7.028      862.853
04/21/2014  05:55:00     -117.470        7.543       -7.948       39.451       25.909       20.314     1556.389      671.300      412.646        0.828        0.132      117.712       21.051        0.032      336.005        7.016      862.845
04/21/2014  05:56:00     -136.221        4.632      -15.546       24.331       23.382       14.941      592.012      546.712      223.246        1.009        0.068      136.300        9.215        0.005      336.107        7.186      862.829
04/21/2014  05:57:00      -94.396       -9.542       -4.944       39.886       32.724       20.741     1590.854     1070.830      430.175        0.606        0.155       94.877       20.389        0.046      336.025        7.049      862.813
04/21/2014  05:58:00      -90.089      -35.570       -2.948       31.615       29.102       17.305      999.502      846.911      299.457        0.577        0.107       96.857       14.836        0.023      336.072        7.127      862.818
04/21/2014  05:59:00      -89.987      -22.449       -2.028       36.149       25.467       20.990     1306.731      648.552      440.599        0.550        0.120       92.745       21.194        0.052      336.024        7.048      862.821
04/21/2014  06:00:00      -95.155      -23.072       -0.118       37.978       31.715       23.351     1442.355     1005.835      545.279        0.629        0.150       97.912       24.801        0.064      335.989        6.990      862.835
04/21/2014  06:01:00      -94.277      -43.610       -1.251       37.020       36.334       22.010     1370.500     1320.177      484.436        0.698        0.159      103.875       19.606        0.036      336.030        7.059      862.850
04/21/2014  06:02:00     -108.695      -31.954        1.171       29.228       25.432       18.523      854.268      646.794      343.102        0.734        0.092      113.294       14.325        0.016      336.025        7.050      862.868
04/21/2014  06:03:00     -119.481      -51.998       -4.654       48.263       41.583       27.137     2329.342     1729.112      736.409        1.090        0.240      130.305       26.762        0.042      336.048        7.089      862.879
04/21/2014  06:04:00     -138.666      -37.890        0.551       50.555       33.526       22.568     2555.781     1123.964      509.306        1.243        0.209      143.750       19.721        0.019      336.093        7.163      862.883
04/21/2014  06:05:00     -125.049      -68.847       -0.404       42.174       37.054       26.529     1778.618     1373.015      703.770        1.212        0.193      142.748       22.386        0.025      336.113        7.196      862.884
04/21/2014  06:06:00     -114.776      -46.917       -0.348       36.478       42.269       20.325     1330.666     1786.652      413.101        0.945        0.177      123.995       16.318        0.017      336.176        7.302      862.873
04/21/2014  06:07:00      -81.746      -35.935        8.563       41.360       43.299       20.536     1710.677     1874.833      421.713        0.603        0.200       89.296       20.430        0.052      336.142        7.244      862.849
04/21/2014  06:08:00      -90.360      -27.083        7.456       33.151       29.579       21.709     1098.985      874.925      471.292        0.570        0.122       94.331       19.926        0.045      336.143        7.246      862.826
04/21/2014  06:09:00      -85.628      -12.521        6.382       42.126       31.189       19.629     1774.559      972.759      385.293        0.533        0.157       86.539       16.849        0.038      336.115        7.200      862.807
04/21/2014  06:10:00      -57.981      -17.370        8.747       38.677       29.001       19.332     1495.935      841.045      373.725        0.322        0.136       60.527       20.622        0.116      336.107        7.186      862.801
04/21/2014  06:11:00      -78.845      -22.751        5.817       35.047       30.581       21.923     1228.321      935.191      480.613        0.471        0.132       82.062       16.519        0.041      336.184        7.316      862.801
04/21/2014  06:12:00      -79.229      -40.791        2.308       30.678       30.837       17.313      941.126      950.929      299.729        0.507        0.110       89.112       11.022        0.015      336.257        7.437      862.813
04/21/2014  06:13:00      -98.636      -29.189       -0.996       22.041       20.962       15.714      485.791      439.388      246.923        0.588        0.059      102.864        6.635        0.004      336.258        7.439      862.826
04/21/2014  06:14:00     -104.842      -36.324       -0.372       41.997       25.348       23.886     1763.781      642.543      570.526        0.764        0.149      110.956       21.801        0.039      336.342        7.578      862.834
04/21/2014  06:15:00      -90.860      -61.731       -0.778       43.252       28.170       21.537     1870.735      793.543      463.854        0.760        0.156      109.846       20.813        0.036      336.437        7.738      862.822
04/21/2014  06:16:00      -40.901      -44.426        4.618       36.617       28.558       23.315     1340.811      815.577      543.577        0.318        0.135       60.387       20.412        0.114      336.473        7.798      862.807
04/21/2014  06:17:00      -80.479      -21.341       -1.955       27.972       19.453       13.788      782.453      378.413      190.122        0.414        0.068       83.261       12.255        0.022      336.274        7.466      862.794
04/21/2014  06:18:00      -39.375      -34.341        9.070       29.211       22.207       14.911      853.274      493.153      222.333        0.219        0.078       52.247       11.684        0.050      336.302        7.513      862.784
04/21/2014  06:19:00      -47.948      -44.628       -0.489       29.830       13.298       15.543      889.857      176.846      241.574        0.280        0.065       65.503       12.126        0.034      336.461        7.778      862.749
04/21/2014  06:20:00      -40.910      -15.260        8.419       21.419       27.656       16.284      458.781      764.846      265.162        0.173        0.074       43.664       16.280        0.139      336.391        7.661      862.720
04/21/2014  06:21:00      -30.323       19.854        4.239       16.026       13.365       21.914      256.825      178.630      480.206        0.112        0.046       36.244       15.514        0.183      336.452        7.763      862.709
04/21/2014  06:22:00      -16.281       -1.032       -4.267        6.849        9.204        5.154       46.911       84.721       26.562        0.022        0.008       16.313        4.071        0.062      336.436        7.736      862.703
04/21/2014  06:23:00      -40.785      -10.875       -5.151        8.696       10.998        7.540       75.613      120.945       56.845        0.103        0.013       42.210        4.834        0.013      336.274        7.466      862.699
04/21/2014  06:24:00      -72.283      -35.407       -4.190       19.220       17.042        7.942      369.408      290.438       63.072        0.361        0.036       80.489        5.560        0.005      336.267        7.455      862.707
04/21/2014  06:25:00      -97.723      -43.127       -0.330       26.648       26.847       16.706      710.091      720.762      279.102        0.656        0.085      106.816       17.744        0.028      336.148        7.254      862.722
04/21/2014  06:26:00      -93.589      -52.069       -1.413       39.305       24.394       16.280     1544.922      595.050      265.024        0.694        0.120      107.098       19.186        0.032      336.180        7.308      862.723
04/21/2014  06:27:00      -60.954      -13.963        4.664       26.330       22.992       16.531      693.250      528.630      273.289        0.271        0.075       62.533       14.013        0.050      336.015        7.032      862.720
04/21/2014  06:28:00      -93.093       -8.665       -7.885       10.372       16.237        6.913      107.577      263.647       47.794        0.461        0.021       93.495        4.181        0.002      336.030        7.058      862.714
04/21/2014  06:29:00      -65.771        6.347       -4.765       17.087       12.975       10.150      291.981      168.356      103.014        0.248        0.028       66.076        8.116        0.015      336.016        7.034      862.701
04/21/2014  06:30:00      -96.037      -30.008       -5.138       26.532       19.925       11.383      703.931      396.986      129.565        0.569        0.062      100.615       10.052        0.010      335.920        6.873      862.715
04/21/2014  06:31:00      -94.058      -16.492       -1.391       39.134       25.588       18.575     1531.450      654.766      345.039        0.583        0.127       95.492       19.358        0.041      335.853        6.764      862.717
04/21/2014  06:32:00      -56.533      -19.746        0.425       47.037       33.433       17.499     2212.433     1117.769      306.213        0.361        0.182       59.882       21.457        0.128      335.823        6.714      862.719
04/21/2014  06:33:00      -77.024      -43.220       -2.586       36.309       28.892       17.950     1318.331      834.776      322.216        0.514        0.124       88.322       16.047        0.033      335.853        6.765      862.733
04/21/2014  06:34:00      -86.456        7.568       -6.833       43.544       30.176       17.499     1896.041      910.614      306.210        0.535        0.156       86.787       21.062        0.059      335.847        6.753      862.726
04/21/2014  06:35:00      -90.912        0.929       -9.452       33.570       30.127       18.019     1126.942      907.666      324.675        0.536        0.118       90.917       15.406        0.029      335.778        6.639      862.725
04/21/2014  06:36:00      -57.098      -19.591       -1.183       32.584       26.741       14.533     1061.689      715.064      211.194        0.282        0.099       60.366       13.165        0.048      335.864        6.780      862.744
04/21/2014  06:37:00      -28.759      -21.153        2.455       27.220       16.233       12.758      740.931      263.496      162.763        0.122        0.058       35.701       12.276        0.118      335.979        6.972      862.755
04/21/2014  06:38:00      -64.859      -10.271      -12.788       18.441       21.347       11.427      340.054      455.696      130.583        0.270        0.046       65.668        6.842        0.011      336.000        7.006      862.759
04/21/2014  06:39:00      -58.443       -7.141       -1.768       23.961       17.977       14.785      574.115      323.155      218.583        0.229        0.056       58.878       15.058        0.065      335.968        6.954      862.770
04/21/2014  06:40:00      -30.843      -25.957       -2.902       33.684       16.485        9.826     1134.581      271.764       96.556        0.157        0.075       40.312        6.408        0.025      336.041        7.078      862.791
04/21/2014  06:41:00      -33.690       -9.018       -4.006       17.269        9.064        8.908      298.219       82.154       79.353        0.085        0.023       34.876        5.067        0.021      336.151        7.260      862.815
04/21/2014  06:42:00      -65.290      -17.856       -2.462       17.050       16.853       12.761      290.718      284.040      162.841        0.266        0.037       67.688        8.974        0.018      336.082        7.145      862.833
04/21/2014  06:43:00      -64.241      -23.312       -9.670       16.373       18.000       10.396      268.091      324.016      108.087        0.273        0.035       68.340        7.554        0.012      336.081        7.142      862.845
04/21/2014  06:44:00      -40.374      -27.288       -9.155       10.588       17.821        6.531      112.112      317.579       42.657        0.147        0.024       48.731        6.580        0.018      336.149        7.258      862.857
04/21/2014  06:45:00      -36.414      -15.490      -12.908       12.449        6.496        4.879      154.973       42.193       23.804        0.098        0.011       39.571        5.652        0.020      336.204        7.348      862.871
04/21/2014  06:46:00      -34.281        1.554       -3.866        8.067       10.898       10.513       65.070      118.776      110.526        0.074        0.015       34.316        4.259        0.015      336.218        7.370      862.881
04/21/2014  06:47:00       -9.478       -2.964        0.006       19.462       10.546        9.207      378.752      111.223       84.768        0.034        0.029        9.931        7.807        0.618      336.388        7.655      862.875
04/21/2014  06:48:00        0.573       13.177       13.411        6.179        9.890       10.982       38.175       97.812      120.609        0.031        0.013       13.189        7.060        0.287      336.492        7.830      862.879
04/21/2014  06:49:00       27.815       36.686       35.234       16.075       13.248       10.346      258.409      175.520      107.050        0.195        0.027       46.039        6.633        0.021      336.431        7.727      862.880
04/21/2014  06:50:00       19.813       26.860       15.815       12.891       12.418       16.187      166.182      154.216      262.017        0.097        0.029       33.377        9.660        0.084      336.441        7.744      862.890
04/21/2014  06:51:00       10.104       24.828       -3.119       10.004        5.259        5.012      100.077       27.657       25.124        0.044        0.008       26.805        5.675        0.045      336.494        7.835      862.903
04/21/2014  06:52:00      -43.746       -0.742       -5.707       18.537       13.930        7.889      343.634      194.048       62.231        0.127        0.030       43.752        9.018        0.042      336.442        7.747      862.915
04/21/2014  06:53:00      -54.535      -15.423       -5.872       10.952        9.886        7.992      119.937       97.734       63.866        0.176        0.014       56.674        4.418        0.006      336.303        7.513      862.929
04/21/2014  06:54:00      -45.376      -28.512       -5.809       16.362       13.943       10.437      267.711      194.415      108.924        0.174        0.029       53.590        9.035        0.028      336.429        7.724      862.929
04/21/2014  06:55:00      -25.499      -17.692       -0.250       12.545       21.817        8.782      157.383      475.989       77.121        0.084        0.036       31.035        4.940        0.025      336.487        7.823      862.933
04/21/2014  06:56:00      -44.862       10.803       -1.537       15.574        9.626        6.586      242.558       92.669       43.377        0.126        0.019       46.144        7.113        0.024      336.445        7.751      862.940
04/21/2014  06:57:00      -54.968       16.673       -4.378        6.939        8.559        7.886       48.146       73.263       62.184        0.175        0.009       57.441        2.979        0.003      336.391        7.661      862.928
04/21/2014  06:58:00      -53.710       13.085       -3.205       10.211       14.788       12.885      104.265      218.687      166.029        0.178        0.024       55.281       11.224        0.041      336.470        7.794      862.910
04/21/2014  06:59:00      -57.382       -1.305       -2.624       14.856       12.179        9.544      220.693      148.318       91.083        0.188        0.023       57.397        4.484        0.006      336.506        7.853      862.917
04/21/2014  07:00:00      -16.877        1.369        5.826       11.948       11.512       10.332      142.763      132.517      106.755        0.035        0.019       16.933        7.810        0.213      336.647        8.088      862.930
04/21/2014  07:01:00       11.806        7.500       11.955       20.536       10.455        9.279      421.737      109.298       86.109        0.048        0.031       13.987        8.724        0.389      336.587        7.991      862.918
04/21/2014  07:02:00       36.935       31.806       -4.450       10.096       11.074       10.054      101.928      122.630      101.077        0.136        0.016       48.742        8.042        0.027      336.623        8.052      862.910
04/21/2014  07:03:00       12.630       26.850       13.318       14.299       12.738        8.649      204.468      162.247       74.806        0.075        0.022       29.672        8.541        0.083      336.682        8.150      862.921
04/21/2014  07:04:00       -4.015        2.574        7.763        7.974        8.035        6.643       63.579       64.561       44.131        0.013        0.009        4.769        5.609        1.383      336.860        8.446      862.926
04/21/2014  07:05:00      -30.732       26.441       -4.802        9.935       14.456        9.325       98.706      208.987       86.963        0.103        0.020       40.541        7.262        0.032      336.648        8.091      862.926
04/21/2014  07:06:00      -47.186       33.668       -6.281       15.043       11.519       14.804      226.290      132.688      219.169        0.199        0.029       57.966       12.697        0.048      336.659        8.111      862.915
04/21/2014  07:07:00      -46.892       28.088       -8.932       13.580       13.462        8.643      184.411      181.223       74.710        0.175        0.022       54.660        7.687        0.020      336.663        8.117      862.872
04/21/2014  07:08:00      -31.791       28.700        0.323       16.285       18.320       15.630      265.200      335.627      244.284        0.134        0.042       42.829       13.079        0.093      336.823        8.384      862.853
04/21/2014  07:09:00        5.697        2.172        8.399       16.116        5.545       13.892      259.728       30.742      192.997        0.030        0.024        6.097        8.842        2.103      336.883        8.482      862.865
04/21/2014  07:10:00       -8.806       -5.790        6.445       11.111        5.992       10.109      123.454       35.900      102.188        0.021        0.013       10.539        3.140        0.089      336.913        8.532      862.890
04/21/2014  07:11:00       -1.408       11.857       10.944        5.715       10.335        7.382       32.658      106.812       54.495        0.023        0.010       11.940        5.160        0.187      336.947        8.590      862.915
04/21/2014  07:12:00       34.012       32.070       16.421       29.272       20.750       15.337      856.869      430.573      235.233        0.199        0.076       46.747       16.679        0.127      336.852        8.433      862.912
04/21/2014  07:13:00       59.733       35.520        5.820       17.409       14.051       14.438      303.064      197.437      208.455        0.279        0.035       69.496       11.346        0.027      336.801        8.347      862.907
04/21/2014  07:14:00       59.246       47.480        1.697       13.926       18.211       16.320      193.947      331.646      266.342        0.328        0.040       75.924       11.868        0.024      336.765        8.288      862.896
04/21/2014  07:15:00       50.921       32.206        0.499       14.737       15.016       16.861      217.174      225.495      284.279        0.218        0.036       60.251       10.027        0.028      336.798        8.343      862.888
04/21/2014  07:16:00       57.906       35.871       -0.148        9.792        8.332       10.870       95.880       69.423      118.151        0.246        0.014       68.116        4.917        0.005      336.775        8.304      862.896
04/21/2014  07:17:00       50.497       36.301        4.323       16.346       16.330       15.513      267.207      266.668      240.644        0.233        0.039       62.191        3.791        0.004      336.819        8.377      862.891
04/21/2014  07:18:00       85.533       42.073        3.623       17.599       22.473       13.380      309.727      505.026      179.015        0.505        0.050       95.321        7.421        0.006      336.856        8.439      862.872
04/21/2014  07:19:00       72.447       25.140        2.898       23.788       21.654       17.477      565.856      468.885      305.452        0.361        0.067       76.685        9.978        0.017      336.944        8.584      862.875
04/21/2014  07:20:00       53.600       37.961       27.366       22.819       19.440       23.132      520.708      377.907      535.104        0.325        0.072       65.681       16.965        0.067      336.990        8.662      862.895
04/21/2014  07:21:00       25.993       35.111       46.713       31.232       23.715       17.881      975.437      562.415      319.747        0.297        0.093       43.685       17.854        0.167      337.046        8.755      862.938
04/21/2014  07:22:00       46.314       43.739       40.466       13.676       10.735       14.053      187.020      115.248      197.491        0.310        0.025       63.703        5.696        0.008      337.020        8.712      862.966
04/21/2014  07:23:00        9.227       13.583       21.385       18.752       13.452       13.444      351.636      180.947      180.729        0.072        0.036       16.420        9.564        0.339      337.165        8.955      862.980
04/21/2014  07:24:00        0.676      -37.875        6.858       12.926       30.034       15.504      167.071      902.044      240.376        0.140        0.065       37.881       17.269        0.208      337.342        9.252      863.003
04/21/2014  07:25:00       -5.703      -30.676       16.041       24.263       32.793       22.512      588.694     1075.374      506.795        0.170        0.109       31.202       24.088        0.596      337.388        9.328      863.008
04/21/2014  07:26:00       -0.934       62.878       68.233       13.659       21.304       14.256      186.568      453.839      203.244        0.473        0.042       62.885       12.850        0.042      337.248        9.094      863.002
04/21/2014  07:27:00       25.539       56.146       56.353       25.514       31.973       15.794      650.971     1022.275      249.453        0.445        0.096       61.682        7.710        0.016      337.311        9.201      862.983
04/21/2014  07:28:00       24.798      -57.858       -0.350       29.295       37.614       28.920      858.175     1414.795      836.384        0.354        0.155       62.948       22.847        0.132      337.461        9.449      863.032
04/21/2014  07:29:00        3.699      -37.005       20.898       17.184       37.301       26.090      295.282     1391.347      680.683        0.209        0.118       37.190        9.397        0.064      337.586        9.659      863.056
04/21/2014  07:30:00       21.393       44.750       60.038       37.581       24.404       25.020     1412.369      595.571      625.993        0.435        0.132       49.601       19.095        0.148      337.423        9.388      863.025
04/21/2014  07:31:00       59.072       33.710       28.557       28.676       24.037       23.648      822.321      577.795      559.224        0.370        0.098       68.014       13.147        0.037      337.229        9.063      862.954
04/21/2014  07:32:00       75.375       25.447       12.111       40.563       25.592       21.767     1645.395      654.975      473.805        0.462        0.139       79.554        9.437        0.014      337.392        9.335      862.924
04/21/2014  07:33:00       46.985       11.770        2.870       23.780       27.184       16.374      565.488      738.948      268.120        0.196        0.079       48.436       14.071        0.084      337.386        9.326      862.927
04/21/2014  07:34:00       59.739       32.215       17.094       32.694       21.986       27.363     1068.913      483.373      748.715        0.360        0.115       67.871       15.644        0.053      337.436        9.409      862.940
04/21/2014  07:35:00       54.663       48.281        4.837       19.010       19.330       21.588      361.367      373.651      466.047        0.327        0.060       72.932       10.307        0.020      337.345        9.258      862.951
04/21/2014  07:36:00       58.183       64.602        0.066       16.979       21.495       15.356      288.296      462.041      235.797        0.427        0.049       86.941       12.751        0.022      337.272        9.134      862.956
04/21/2014  07:37:00       50.489       48.192       -2.869       18.347       13.747       16.126      336.596      188.976      260.034        0.283        0.039       69.798        8.124        0.014      337.282        9.152      862.950
04/21/2014  07:38:00       18.958       44.771        0.242       17.266       18.476       19.643      298.122      341.377      385.861        0.169        0.051       48.620       15.257        0.098      337.422        9.385      862.951
04/21/2014  07:39:00       53.121       38.838       10.840       18.134       14.353       12.953      328.852      206.006      167.771        0.258        0.035       65.804        9.505        0.021      337.379        9.313      862.950
04/21/2014  07:40:00       59.134       55.207        3.110       13.820       12.772       12.065      190.991      163.122      145.557        0.353        0.025       80.899        6.993        0.007      337.323        9.220      862.941
04/21/2014  07:41:00       47.468       32.751        8.100       13.678       12.239       14.360      187.077      149.790      206.213        0.197        0.027       57.670        9.093        0.025      337.435        9.406      862.933
04/21/2014  07:42:00       46.401       29.643        4.977       17.309       19.915       18.761      299.608      396.613      351.964        0.205        0.052       55.061       11.389        0.043      337.509        9.532      862.922
04/21/2014  07:43:00       59.496       46.616       14.303       31.816       22.642       21.011     1012.241      512.657      441.470        0.394        0.098       75.583       14.308        0.036      337.476        9.476      862.914
04/21/2014  07:44:00       49.105       47.510        7.919       23.796       21.622       19.996      566.236      467.526      399.854        0.308        0.072       68.326       11.926        0.030      337.509        9.532      862.908
04/21/2014  07:45:00       60.174       51.531        2.509       15.770       12.782       17.528      248.708      163.380      307.229        0.350        0.036       79.224        9.470        0.014      337.412        9.366      862.910
04/21/2014  07:46:00       45.336       32.375       -1.152       16.630       20.205       18.346      276.548      408.237      336.572        0.206        0.051       55.709       10.572        0.036      337.480        9.482      862.913
04/21/2014  07:47:00       41.516       39.818       -6.078       22.232       18.823       17.813      494.258      354.321      317.300        0.226        0.058       57.525       12.747        0.049      337.440        9.415      862.911
04/21/2014  07:48:00       48.682       24.030       13.635       25.498       20.432       19.079      650.143      417.463      364.000        0.228        0.072       54.290       10.449        0.037      337.595        9.675      862.890
04/21/2014  07:49:00       63.097       38.856        5.733       37.985       19.641       20.683     1442.875      385.774      427.774        0.389        0.113       74.101       11.430        0.024      337.614        9.707      862.882
04/21/2014  07:50:00       81.115       61.365       15.396       30.102       34.063       32.647      906.132     1160.288     1065.821        0.686        0.157      101.712        7.203        0.005      337.689        9.833      862.871
04/21/2014  07:51:00       67.946       59.440        5.652       36.661       26.450       23.551     1344.031      699.600      554.643        0.539        0.130       90.277        8.043        0.008      337.592        9.671      862.881
04/21/2014  07:52:00       22.409       24.781       38.444       32.390       29.395       21.648     1049.099      864.047      468.628        0.249        0.119       33.411       14.875        0.198      337.910       10.202      862.892
04/21/2014  07:53:00       23.622       29.333        3.350       21.525       20.902       21.636      463.344      436.905      468.100        0.140        0.068       37.662       13.764        0.134      337.671        9.804      862.898
04/21/2014  07:54:00       61.770       34.812       13.305       16.524       15.177       23.321      273.043      230.347      543.852        0.313        0.052       70.904       11.792        0.028      337.728        9.897      862.897
04/21/2014  07:55:00       24.605       37.631       38.674       40.138       30.710       26.836     1611.039      943.079      720.190        0.340        0.164       44.961       26.355        0.344      337.987       10.332      862.874
04/21/2014  07:56:00       16.689       72.102       82.157       36.817       39.436       25.863     1355.498     1555.166      668.879        0.790        0.179       74.008       22.837        0.095      337.908       10.200      862.844
04/21/2014  07:57:00       40.252        6.296       36.907       32.688       47.831       26.246     1068.515     2287.801      688.870        0.353        0.202       40.741       27.331        0.450      337.676        9.812      862.820
04/21/2014  07:58:00       -3.714       -2.083       22.451       16.173       15.140       12.017      261.579      229.220      144.413        0.058        0.032        4.259        4.023        0.892      338.102       10.526      862.801
04/21/2014  07:59:00       11.934       63.356        0.424       27.666       48.937       20.238      765.427     2394.859      409.578        0.386        0.178       64.470       19.988        0.096      337.837       10.081      862.798
04/21/2014  08:00:00        8.712       73.206       -0.745       17.293       32.029       20.153      299.055     1025.847      406.124        0.358        0.087       73.723       17.594        0.057      337.856       10.113      862.798
04/21/2014  08:01:00       41.198       25.170       -0.324       25.423       24.079       17.524      646.306      579.799      307.099        0.193        0.077       48.278       13.886        0.083      337.775        9.977      862.796
04/21/2014  08:02:00       58.738       41.662        1.252       39.744       24.613       22.679     1579.607      605.794      514.354        0.394        0.135       72.013       18.892        0.069      337.946       10.262      862.816
04/21/2014  08:03:00        6.225       40.914       -4.991       28.025       19.531       17.429      785.381      381.447      303.759        0.160        0.074       41.385       13.662        0.109      337.980       10.321      862.852
04/21/2014  08:04:00      -26.112       13.779       -6.490        9.476       16.591       13.224       89.791      275.275      174.873        0.073        0.027       29.525       11.472        0.151      337.895       10.177      862.889
04/21/2014  08:05:00       -7.423        0.904       15.070       11.245        5.470       14.550      126.458       29.919      211.710        0.033        0.018        7.478       11.261        2.268      338.383       10.998      862.918
04/21/2014  08:06:00       11.018       16.591       17.723       12.688       12.771       13.085      160.984      163.098      171.219        0.060        0.025       19.916        9.868        0.245      338.313       10.881      862.947
04/21/2014  08:07:00       17.085       37.732       -2.041       17.088       32.205       17.804      291.983     1037.148      317.000        0.168        0.082       41.420       16.976        0.168      338.270       10.806      862.952
04/21/2014  08:08:00       53.506       33.968       -3.829       18.764       27.766       17.818      352.099      770.971      317.491        0.274        0.072       63.378        9.515        0.023      338.287       10.835      862.945
04/21/2014  08:09:00       30.312       65.808       -1.096       27.120       41.770       25.115      735.491     1744.741      630.778        0.418        0.156       72.453       26.899        0.138      338.302       10.863      862.957
04/21/2014  08:10:00        7.456       29.027        9.441       31.937       23.912       23.769     1019.962      571.793      564.950        0.157        0.108       29.969       18.073        0.364      338.347       10.936      862.969
04/21/2014  08:11:00       -3.287       11.836       11.932       15.541       17.694       14.623      241.522      313.080      213.829        0.053        0.038       12.284       11.799        0.923      338.853       11.788      862.988
04/21/2014  08:12:00       -6.125        0.693       20.651       10.421        9.877        8.992      108.594       97.550       80.855        0.038        0.014        6.165        8.254        1.793      339.297       12.534      863.000
04/21/2014  08:13:00      -18.159      -10.980        4.652       20.983       14.194       13.696      440.274      201.473      187.578        0.065        0.041       21.221        7.202        0.115      338.519       11.227      863.008
04/21/2014  08:14:00        2.294        2.283       30.015       17.527       18.139       17.312      307.195      329.023      299.706        0.092        0.047        3.236       12.052       13.871      339.090       12.186      863.001
04/21/2014  08:15:00      -22.931       23.205        8.092       27.367       24.472       21.032      748.942      598.863      442.353        0.146        0.090       32.623       10.038        0.095      338.504       11.201      862.982
04/21/2014  08:16:00      -17.386      -12.767       13.371       30.794       21.019       21.292      948.260      441.815      453.360        0.124        0.092       21.570       22.710        1.109      338.877       11.828      862.960
04/21/2014  08:17:00       -7.689       -6.511       16.858       18.669       23.934       10.303      348.539      572.851      106.149        0.071        0.051       10.076       11.643        1.335      338.925       11.908      862.949
04/21/2014  08:18:00       26.777       39.970       34.107       16.783       16.177       16.617      281.662      261.701      276.120        0.215        0.041       48.111        8.775        0.033      338.470       11.144      862.940
04/21/2014  08:19:00        7.143       20.564       24.074       21.685       23.810       22.592      470.261      566.894      510.416        0.130        0.077       21.769       16.665        0.586      338.758       11.629      862.933
04/21/2014  08:20:00       85.970       34.780       20.145       44.586       27.896       26.657     1987.915      778.198      710.576        0.624        0.174       92.739       19.551        0.044      338.506       11.203      862.918
04/21/2014  08:21:00       72.418       41.042       23.855       33.290       24.214       26.938     1108.205      586.311      725.651        0.496        0.121       83.240       14.386        0.030      338.504       11.200      862.904
04/21/2014  08:22:00       58.047       39.781        9.202       34.401       29.065       30.975     1183.415      844.794      959.452        0.401        0.149       70.370       12.853        0.033      338.438       11.089      862.893
04/21/2014  08:23:00       76.669       32.633        6.570       25.036       32.094       25.238      626.790     1030.048      636.935        0.464        0.115       83.325       14.144        0.029      338.539       11.260      862.873
04/21/2014  08:24:00       26.990        9.973       18.831       40.881       26.110       22.362     1671.262      681.756      500.079        0.202        0.143       28.774       19.759        0.472      338.980       12.000      862.863
04/21/2014  08:25:00       15.755      -23.928       17.563       28.051       24.356       17.464      786.859      593.193      304.990        0.141        0.084       28.649       14.098        0.242      338.916       11.893      862.858
04/21/2014  08:26:00       22.198        5.430       23.387       16.483       47.717       20.733      271.675     2276.876      429.852        0.202        0.149       22.853       17.849        0.610      338.880       11.832      862.840
04/21/2014  08:27:00       23.035       34.595       30.437       34.713       24.430       24.048     1204.979      596.830      578.303        0.252        0.119       41.562       21.731        0.273      338.925       11.908      862.816
04/21/2014  08:28:00       34.165       40.486       37.812       59.059       26.551       24.659     3488.012      704.941      608.083        0.452        0.240       52.976       26.964        0.259      338.963       11.972      862.781
04/21/2014  08:29:00       92.484       50.403        7.466       37.921       29.701       32.601     1437.992      882.155     1062.794        0.727        0.169      105.327       15.937        0.023      338.739       11.595      862.755
04/21/2014  08:30:00       94.103       85.260       12.767       43.293       30.079       33.782     1874.244      904.718     1141.211        1.010        0.196      126.983       24.569        0.037      338.671       11.480      862.740
04/21/2014  08:31:00       67.293       62.558       24.642       47.112       35.913       24.826     2219.511     1289.731      616.317        0.659        0.206       91.879       22.009        0.057      338.773       11.652      862.737
04/21/2014  08:32:00       86.242       75.290       17.216       31.302       28.149       26.567      979.786      792.369      705.782        0.794        0.124      114.482       12.676        0.012      338.558       11.292      862.743
04/21/2014  08:33:00       25.075       55.587       10.676       40.730       32.516       23.803     1658.902     1057.272      566.587        0.356        0.164       60.981       19.257        0.100      338.771       11.648      862.767
04/21/2014  08:34:00       28.227       55.404       10.839       26.042       23.048       26.913      678.185      531.196      724.332        0.296        0.097       62.180       17.464        0.079      338.608       11.375      862.773
04/21/2014  08:35:00       21.105       55.146       -4.138       21.788       30.218       22.640      474.736      913.098      512.563        0.270        0.095       59.046       17.266        0.086      338.652       11.449      862.774
04/21/2014  08:36:00       42.830       42.480        5.172       32.932       22.894       24.251     1084.492      524.123      588.094        0.293        0.110       60.324       14.823        0.060      338.705       11.538      862.776
04/21/2014  08:37:00       30.017       31.996        7.098       23.348       27.975       23.820      545.119      782.612      567.376        0.193        0.095       43.872       16.972        0.150      338.749       11.611      862.781
04/21/2014  08:38:00       56.792       29.939        4.126       19.249       17.683       22.659      370.505      312.685      513.443        0.267        0.060       64.201       12.754        0.039      338.599       11.360      862.781
04/21/2014  08:39:00       48.403       32.784        8.392       24.872       21.748       19.671      618.636      472.963      386.954        0.248        0.074       58.460       11.031        0.036      338.777       11.659      862.787
04/21/2014  08:40:00       59.475       55.379       -0.126       33.845       22.961       20.644     1145.484      527.202      426.185        0.435        0.105       81.266       14.428        0.032      338.685       11.504      862.781
04/21/2014  08:41:00       27.317       39.891       -3.642       25.416       25.626       20.158      645.983      656.697      406.362        0.203        0.085       48.348       17.834        0.136      338.783       11.669      862.780
04/21/2014  08:42:00       18.839       55.175        1.341       20.828       22.842       21.469      433.788      521.764      460.930        0.241        0.071       58.302        9.829        0.028      338.917       11.894      862.778
04/21/2014  08:43:00       37.797       67.483       -4.941       44.824       18.802       17.127     2009.189      353.533      293.348        0.433        0.133       77.347       13.666        0.031      338.722       11.567      862.774
04/21/2014  08:44:00       75.004       30.442        3.033       21.416       24.290       18.589      458.659      590.014      345.555        0.398        0.070       80.946       10.640        0.017      338.708       11.543      862.775
04/21/2014  08:45:00       26.614       41.039        3.837       38.428       30.266       21.406     1476.708      916.052      458.224        0.263        0.143       48.914       19.678        0.162      338.824       11.739      862.775
04/21/2014  08:46:00       26.204        5.078        4.770       29.442       21.011       15.285      866.844      441.479      233.626        0.114        0.077       26.692       11.002        0.170      339.023       12.072      862.764
04/21/2014  08:47:00        8.748       23.469       18.316       21.654       15.829       14.452      468.905      250.546      208.870        0.095        0.046       25.046       11.532        0.212      339.007       12.046      862.758
04/21/2014  08:48:00       32.988       36.938        1.461       19.321       15.447       17.106      373.289      238.614      292.632        0.168        0.045       49.525       10.789        0.047      338.914       11.889      862.743
04/21/2014  08:49:00       60.604       54.024       12.381       13.919       14.984       18.224      193.729      224.527      332.097        0.375        0.038       81.188       10.013        0.015      338.899       11.863      862.735
04/21/2014  08:50:00       52.689       43.966        8.507       14.068       15.603       29.448      197.897      243.452      867.166        0.304        0.065       68.623       11.882        0.030      338.891       11.851      862.727
04/21/2014  08:51:00       53.651       21.038       -6.152       30.139       20.544       11.118      908.344      422.039      123.599        0.241        0.073       57.628        1.685        0.001      338.774       11.654      862.736
04/21/2014  08:52:00       14.905       36.633       13.263       12.917       17.735       16.584      166.856      314.538      275.046        0.125        0.038       39.549       11.659        0.087      338.965       11.975      862.719
04/21/2014  08:53:00       36.400       23.474        2.791       20.459       17.039       12.830      418.591      290.334      164.602        0.138        0.044       43.312        5.022        0.013      338.992       12.022      862.697
04/21/2014  08:54:00        7.507       20.847       -4.636       12.617       23.453       20.810      159.190      550.057      433.059        0.083        0.057       22.158       14.512        0.429      339.138       12.265      862.668
04/21/2014  08:55:00       -2.730       25.048        3.885       15.959       17.036       19.951      254.679      290.223      398.061        0.080        0.047       25.196       17.473        0.481      339.262       12.474      862.636
04/21/2014  08:56:00       31.960        9.710       12.486       17.598       14.371       21.849      309.692      206.525      477.374        0.113        0.050       33.402       10.637        0.101      339.093       12.190      862.623
04/21/2014  08:57:00       13.230       -8.076       13.391       11.507       16.241       12.500      132.401      263.768      156.247        0.049        0.028       15.500        6.739        0.189      339.264       12.477      862.624
04/21/2014  08:58:00      -11.316        7.655       11.845       12.737       10.822       16.455      162.221      117.121      270.771        0.044        0.028       13.662       10.458        0.586      339.390       12.690      862.635
04/21/2014  08:59:00      -22.833       -4.478        3.705       13.223       17.658       15.031      174.848      311.814      225.938        0.063        0.036       23.268        7.388        0.101      339.189       12.352      862.665
04/21/2014  09:00:00      -76.390       -7.939        1.072       25.334       22.498       12.069      641.810      506.141      145.663        0.360        0.065       76.802       12.247        0.025      339.246       12.446      862.686
04/21/2014  09:01:00      -66.041      -20.324       -7.447       13.614       18.268       16.881      185.331      333.709      284.977        0.282        0.040       69.098        6.718        0.009      339.170       12.320      862.680
04/21/2014  09:02:00      -22.728      -20.418       -6.465       20.608       16.301       12.785      424.672      265.738      163.460        0.091        0.043       30.552       11.224        0.135      339.236       12.431      862.680
04/21/2014  09:03:00       -6.590      -18.332       16.061       25.421       19.383       14.914      646.228      375.716      222.415        0.094        0.062       19.481       15.122        0.603      339.390       12.691      862.655
04/21/2014  09:04:00      -62.789        0.039       -1.103       31.710       16.343       14.014     1005.497      267.110      196.387        0.271        0.073       62.789       12.386        0.039      339.235       12.427      862.638
04/21/2014  09:05:00      -15.099       -1.904        7.886       20.578       24.933       20.189      423.446      621.657      407.611        0.087        0.073       15.218       16.461        1.170      339.398       12.705      862.627
04/21/2014  09:06:00       11.041       13.608        8.777       18.305       15.039       16.361      335.087      226.168      267.671        0.061        0.041       17.523       11.508        0.431      339.468       12.822      862.607
04/21/2014  09:07:00       13.141       32.565       14.575       20.755       15.324       17.958      430.754      234.830      322.490        0.122        0.049       35.116        5.728        0.027      339.125       12.245      862.583
04/21/2014  09:08:00       -1.153       -3.382       13.615       17.464       10.699        9.581      304.975      114.478       91.791        0.035        0.026        3.573       11.651       10.633      339.366       12.649      862.581
04/21/2014  09:09:00      -26.950      -26.247        3.777       23.788       22.126       18.445      565.869      489.572      340.217        0.141        0.070       37.619       17.116        0.207      339.263       12.476      862.577
04/21/2014  09:10:00      -33.596      -11.872       16.337       16.277       15.910       12.158      264.930      253.138      147.825        0.110        0.033       35.632        8.710        0.060      339.429       12.757      862.570
04/21/2014  09:11:00      -47.705      -29.358        4.721       20.356       29.500       13.968      414.375      870.244      195.113        0.232        0.074       56.015        9.015        0.026      339.400       12.707      862.572
04/21/2014  09:12:00      -41.116      -14.037       13.482       29.266       24.440       18.014      856.475      597.324      324.500        0.192        0.089       43.446       11.727        0.073      339.497       12.871      862.577
04/21/2014  09:13:00      -61.960      -40.846       -2.133       17.384       16.348       13.697      302.195      267.273      187.615        0.313        0.038       74.212        8.900        0.014      339.269       12.487      862.571
04/21/2014  09:14:00      -48.535      -16.981       -1.833       10.146       22.946       11.196      102.939      526.504      125.352        0.170        0.038       51.420        9.738        0.036      339.285       12.512      862.555
04/21/2014  09:15:00      -11.004       24.512        2.211       19.835       10.915       13.927      393.428      119.134      193.959        0.072        0.035       26.869        9.783        0.133      339.411       12.725      862.537
04/21/2014  09:16:00       -0.944       16.418       -2.058        7.408       16.582       15.763       54.876      274.975      248.461        0.043        0.029       16.445       10.483        0.406      339.516       12.902      862.537
04/21/2014  09:17:00       -6.795       -3.214        5.835        8.276       10.078        6.573       68.490      101.565       43.210        0.015        0.011        7.517        3.975        0.280      339.477       12.838      862.552
04/21/2014  09:18:00       -3.242      -10.617       13.230       14.126       18.777        8.387      199.539      352.560       70.337        0.046        0.031       11.101       10.951        0.973      339.697       13.207      862.551
04/21/2014  09:19:00      -30.098      -15.896        3.307       25.748       16.609        9.840      662.967      275.868       96.818        0.110        0.052       34.038        6.106        0.032      339.474       12.833      862.514
04/21/2014  09:20:00      -48.553       -9.588        2.825       30.294       24.001       14.666      917.731      576.044      215.101        0.208        0.085       49.491        9.450        0.036      339.437       12.771      862.486
04/21/2014  09:21:00      -62.074      -24.751        9.434       24.391       31.041       17.600      594.945      963.553      309.757        0.321        0.093       66.827       13.994        0.044      339.437       12.770      862.447
04/21/2014  09:22:00      -69.927       -8.915        4.036       42.112       31.959       23.574     1773.459     1021.400      555.716        0.417        0.168       70.493       23.634        0.112      339.388       12.689      862.415
04/21/2014  09:23:00     -118.008      -44.116       -7.230       16.477       17.543       11.389      271.487      307.751      129.699        0.832        0.035      125.985        7.907        0.004      339.290       12.521      862.396
04/21/2014  09:24:00     -104.760      -20.274       -8.032       19.951       15.649       13.262      398.044      244.879      175.872        0.613        0.041      106.704        6.207        0.003      339.312       12.560      862.380
04/21/2014  09:25:00     -102.036      -17.423      -11.349       18.868       15.295        8.598      356.004      233.930       73.923        0.575        0.033      103.513        6.833        0.004      339.270       12.486      862.370
04/21/2014  09:26:00     -112.066      -28.934      -14.488       22.014       15.648       13.774      484.601      244.875      189.727        0.726        0.046      115.741        8.521        0.005      339.291       12.521      862.365
04/21/2014  09:27:00      -80.584      -38.082       -8.948       32.283       22.022       14.351     1042.201      484.950      205.959        0.488        0.087       89.129        9.193        0.011      339.320       12.572      862.368
04/21/2014  09:28:00      -76.416      -24.197        3.952       50.188       41.336       22.325     2518.854     1708.682      498.384        0.558        0.236       80.155       20.467        0.065      339.440       12.775      862.368
04/21/2014  09:29:00      -20.278      -17.442        6.404       23.870       27.124       16.545      569.763      735.706      273.748        0.117        0.079       26.748        9.606        0.129      339.543       12.947      862.385
04/21/2014  09:30:00      -62.294       -5.869       -7.784       26.726       24.657       13.805      714.291      607.967      190.592        0.274        0.076       62.570       10.107        0.026      339.520       12.909      862.404
04/21/2014  09:31:00      -73.900       10.430      -10.917       26.918       20.877       14.425      724.595      435.840      208.092        0.353        0.068       74.632        8.878        0.014      339.491       12.861      862.421
04/21/2014  09:32:00      -42.967      -21.030       -5.333       13.109        9.032       11.413      171.840       81.585      130.245        0.135        0.019       47.838        4.273        0.008      339.454       12.799      862.450
04/21/2014  09:33:00       -9.859       -1.994        2.145       10.994        9.161       12.059      120.858       83.932      145.422        0.023        0.018       10.059        7.227        0.516      339.675       13.172      862.479
04/21/2014  09:34:00      -78.088      -37.974        2.646       51.991       30.812       14.775     2703.103      949.361      218.304        0.571        0.194       86.832       14.549        0.028      339.607       13.056      862.506
04/21/2014  09:35:00     -108.826      -21.093       -2.255       47.970       30.502       21.009     2301.108      930.373      441.374        0.798        0.184      110.852       18.460        0.028      339.507       12.887      862.522
04/21/2014  09:36:00     -110.990      -22.694       -0.711       44.385       30.063       17.163     1970.037      903.772      294.553        0.800        0.158      113.286       17.124        0.023      339.552       12.963      862.530
04/21/2014  09:37:00     -118.833      -14.301       -1.638       35.014       24.780       20.553     1226.007      614.048      422.420        0.830        0.113      119.691       20.448        0.029      339.504       12.882      862.532
04/21/2014  09:38:00     -113.865       14.513       -7.894       30.105       19.363       15.098      906.326      374.908      227.958        0.737        0.075      114.786       13.568        0.014      339.470       12.827      862.527
04/21/2014  09:39:00      -37.729       13.875        4.962       19.091       12.116       13.868      364.454      146.798      192.335        0.117        0.035       40.199       11.390        0.080      339.576       13.004      862.528
04/21/2014  09:40:00      -68.175        3.635        0.594       40.099       31.175       15.641     1607.955      971.860      244.652        0.374        0.141       68.272       14.318        0.044      339.595       13.036      862.528
04/21/2014  09:41:00      -54.123      -17.316       11.045       38.032       29.345       19.427     1446.470      861.154      377.418        0.302        0.134       56.826       18.092        0.101      339.650       13.129      862.529
04/21/2014  09:42:00      -59.690       -6.139        7.480       31.332       30.943       18.550      981.706      957.490      344.086        0.297        0.114       60.005       19.571        0.106      339.674       13.170      862.541
04/21/2014  09:43:00      -23.148        1.181       16.739       49.808       24.494       23.251     2480.841      599.938      540.631        0.222        0.181       23.178       30.686        1.753      339.684       13.185      862.549
04/21/2014  09:44:00      -50.990      -16.424        5.578       23.955       22.009       15.043      573.839      484.410      226.305        0.209        0.064       53.569       13.744        0.066      339.695       13.205      862.541
04/21/2014  09:45:00      -37.171      -24.120       -0.886       14.099       12.274       12.902      198.776      150.650      166.466        0.124        0.026       44.311        8.390        0.036      339.657       13.142      862.522
04/21/2014  09:46:00      -14.225        3.233        9.868       24.014        7.263        9.501      576.686       52.745       90.260        0.051        0.036       14.587        6.798        0.217      339.807       13.393      862.501
04/21/2014  09:47:00        8.161        6.513       -5.013       23.199       22.060       18.351      538.171      486.636      336.755        0.075        0.068       10.442       11.648        1.244      339.525       12.918      862.483
04/21/2014  09:48:00        8.069       10.969        9.523       14.480       15.852       11.607      209.684      251.287      134.733        0.044        0.030       13.617        8.932        0.430      339.772       13.332      862.473
04/21/2014  09:49:00      -38.346       11.131       -4.792       21.233        9.266       18.545      450.828       85.856      343.900        0.125        0.044       39.929       14.452        0.131      339.681       13.181      862.478
04/21/2014  09:50:00      -67.798       -2.861       -6.098       28.749       18.516       10.953      826.504      342.860      119.958        0.297        0.064       67.859        6.498        0.009      339.744       13.288      862.492
04/21/2014  09:51:00     -107.429      -12.409      -13.724       30.847       40.634       19.450      951.550     1651.157      378.319        0.743        0.149      108.143       15.345        0.020      339.777       13.342      862.494
04/21/2014  09:52:00      -12.509      -49.255       20.470       23.179       29.813       18.893      537.253      888.797      356.942        0.239        0.089       50.819       21.120        0.173      339.889       13.532      862.502
04/21/2014  09:53:00        3.294        8.794       24.944       12.402       33.962       12.948      153.809     1153.446      167.648        0.109        0.074        9.391        5.653        0.362      339.870       13.501      862.492
04/21/2014  09:54:00       -7.208       32.233        3.422       17.250       24.753       12.484      297.558      612.689      155.856        0.108        0.053       33.029       11.642        0.124      339.897       13.546      862.477
04/21/2014  09:55:00       11.540      -10.968       15.597       17.245       16.074       13.061      297.388      258.363      170.583        0.061        0.036       15.921       11.634        0.534      339.855       13.475      862.475
04/21/2014  09:56:00       15.860      -30.078       14.129       22.025       34.138       16.565      485.120     1165.397      274.410        0.164        0.096       34.003       14.306        0.177      339.838       13.445      862.475
04/21/2014  09:57:00       14.139      -32.474       -4.232       14.978       19.943       14.632      224.334      397.727      214.101        0.105        0.042       35.419        5.303        0.022      339.702       13.215      862.477
04/21/2014  09:58:00        0.362        3.011       16.187       16.209       16.435       12.617      262.739      270.122      159.184        0.048        0.035        3.032        4.641        2.343      340.037       13.781      862.484
04/21/2014  09:59:00       53.170       42.561        8.048       22.372       22.600       22.938      500.498      510.779      526.129        0.312        0.077       68.106       12.377        0.033      339.680       13.180      862.493
04/21/2014  10:00:00       32.823       34.016       22.491       26.863       20.721       21.721      721.634      429.373      471.808        0.218        0.081       47.270       18.824        0.159      340.003       13.724      862.499
04/21/2014  10:01:00       31.545       21.092       28.798       22.271       24.692       19.339      496.001      609.704      374.012        0.187        0.074       37.947       14.731        0.151      340.084       13.861      862.490
04/21/2014  10:02:00       78.610       57.020       11.699       35.452       30.652       23.857     1256.847      939.571      569.170        0.617        0.138       97.112       15.094        0.024      339.962       13.656      862.467
04/21/2014  10:03:00       98.076       54.002        5.356       31.716       22.441       24.345     1005.874      503.607      592.677        0.733        0.105      111.961        9.559        0.007      339.953       13.640      862.455
04/21/2014  10:04:00       72.954       51.597        7.639       24.824       21.287       16.452      616.226      453.133      270.655        0.469        0.067       89.357       14.322        0.026      339.910       13.569      862.450
04/21/2014  10:05:00       30.966       56.086       -2.284       26.966       24.578       25.159      727.160      604.055      632.976        0.304        0.098       64.066       12.688        0.039      339.910       13.568      862.439
04/21/2014  10:06:00       24.323       41.105        3.132       26.240       20.524       16.093      688.521      421.224      258.975        0.183        0.068       47.762       14.853        0.097      339.967       13.661      862.415
04/21/2014  10:07:00       87.526       55.051       17.395       28.191       22.353       20.874      794.759      499.666      435.737        0.636        0.087      103.399       17.796        0.030      339.922       13.587      862.387
04/21/2014  10:08:00       82.255       52.652       23.054       37.514       25.950       26.789     1407.312      673.411      717.636        0.643        0.140       97.663       15.614        0.026      339.918       13.581      862.365
04/21/2014  10:09:00       50.690       55.732       25.437       25.427       20.992       25.019      646.514      440.672      625.929        0.402        0.086       75.336        8.753        0.013      339.918       13.581      862.357
04/21/2014  10:10:00       56.531       47.473       47.611       38.259       27.391       18.415     1463.716      750.274      339.109        0.513        0.128       73.820        8.902        0.015      339.964       13.657      862.367
04/21/2014  10:11:00       25.299       30.073       32.279       28.972       26.467       22.748      839.384      700.511      517.466        0.232        0.103       39.299       15.996        0.166      339.975       13.676      862.376
04/21/2014  10:12:00       48.486       42.929       29.807       35.767       26.741       23.675     1279.247      715.106      560.508        0.382        0.128       64.759       15.165        0.055      339.991       13.705      862.360
04/21/2014  10:13:00       -9.683       14.438       40.164       24.942       30.198       18.615      622.112      911.917      346.519        0.190        0.094       17.384       16.622        0.914      340.044       13.792      862.329
04/21/2014  10:14:00       24.647       38.344       33.984       43.485       34.100       16.463     1890.987     1162.825      271.017        0.328        0.166       45.582       20.860        0.209      339.951       13.635      862.322
04/21/2014  10:15:00       11.317        4.230       31.824       21.726       32.688       17.815      472.012     1068.520      317.362        0.151        0.093       12.082       17.098        2.003      339.974       13.673      862.332
04/21/2014  10:16:00       33.372       27.480       30.509       20.634       17.437       17.768      425.775      304.032      315.702        0.192        0.052       43.230        8.235        0.036      339.868       13.496      862.325
04/21/2014  10:17:00        4.213      -26.580       -3.608       18.796       24.153       20.638      353.283      583.389      425.937        0.105        0.068       26.912       15.053        0.313      339.848       13.463      862.320
04/21/2014  10:18:00       11.642        7.979       24.688       30.232       28.294       23.242      913.979      800.568      540.190        0.153        0.113       14.114       22.659        2.578      340.091       13.872      862.309
04/21/2014  10:19:00       25.664        9.024       31.400       16.291       14.901       18.203      265.386      222.035      331.338        0.127        0.041       27.204       13.558        0.248      340.019       13.751      862.310
04/21/2014  10:20:00       36.316       33.598       11.458       23.817       17.377       22.786      567.240      301.955      519.203        0.198        0.069       49.474        6.573        0.018      339.919       13.583      862.309
04/21/2014  10:21:00       23.208        2.315       19.813       28.313       26.901       19.366      801.629      723.683      375.031        0.142        0.095       23.323       15.003        0.414      340.039       13.786      862.311
04/21/2014  10:22:00        5.760       -8.227       13.902       23.225       37.380       22.749      539.411     1397.231      517.501        0.137        0.123       10.043       22.536        5.035      339.918       13.583      862.313
04/21/2014  10:23:00        2.412       34.102       32.390       21.386       16.599       16.160      457.376      275.541      261.140        0.161        0.050       34.187       10.274        0.090      339.841       13.450      862.327
04/21/2014  10:24:00        8.497        1.499       15.204       43.946       27.965       26.802     1931.294      782.055      718.328        0.187        0.172        8.628       27.004        9.796      339.972       13.672      862.339
04/21/2014  10:25:00      -36.650      -25.298        4.641       28.846       40.135       24.077      832.063     1610.811      579.701        0.251        0.151       44.533       14.820        0.111      340.099       13.886      862.344
04/21/2014  10:26:00       -5.942       -3.984       20.908       33.474       28.520       25.557     1120.521      813.405      653.179        0.154        0.129        7.154       21.753        9.246      340.231       14.110      862.347
04/21/2014  10:27:00      -24.303      -30.073        9.772       22.445       44.628       24.250      503.759     1991.672      588.063        0.234        0.154       38.665       14.046        0.132      340.188       14.035      862.339
04/21/2014  10:28:00      -15.678        3.686       12.371       27.914       31.438       26.841      779.195      988.343      720.419        0.145        0.124       16.105       15.516        0.928      340.132       13.941      862.342
04/21/2014  10:29:00        3.745      -37.400       -2.561       50.370       65.647       21.077     2537.139     4309.579      444.259        0.435        0.365       37.587       31.990        0.724      340.065       13.828      862.344
04/21/2014  10:30:00       14.699      -20.235       15.046       38.653       56.192       36.710     1494.068     3157.492     1347.602        0.342        0.300       25.010       33.588        1.803      340.169       14.005      862.341
04/21/2014  10:31:00        3.459      -43.627       20.925       33.352       45.960       38.744     1112.333     2112.352     1501.083        0.354        0.236       43.764       24.897        0.324      340.191       14.041      862.334
04/21/2014  10:32:00      -28.540       -8.293       10.031       23.043       30.175       18.796      530.982      910.516      353.283        0.139        0.090       29.720       14.586        0.241      340.188       14.036      862.330
04/21/2014  10:33:00       14.353        2.623       17.781       38.772       33.610       30.549     1503.232     1129.615      933.216        0.205        0.178       14.590       27.101        3.450      339.926       13.595      862.316
04/21/2014  10:34:00       20.180      -21.586       16.626       30.390       42.012       20.414      923.548     1764.970      416.748        0.213        0.155       29.550       19.926        0.455      339.950       13.634      862.291
04/21/2014  10:35:00       44.580      -25.284       10.385       15.587       37.821       20.857      242.964     1430.439      435.007        0.242        0.105       51.251       16.017        0.098      340.066       13.829      862.262
04/21/2014  10:36:00       47.976       15.468        3.731       15.349       28.798       14.145      235.579      829.344      200.080        0.191        0.063       50.408       10.900        0.047      339.748       13.293      862.251
04/21/2014  10:37:00       31.039        7.334        1.772       24.398       17.702       13.022      595.253      313.375      169.568        0.105        0.054       31.894        9.326        0.086      339.774       13.337      862.255
04/21/2014  10:38:00       17.384        7.846       32.036       18.951       22.519       17.475      359.149      507.091      305.374        0.128        0.059       19.073       12.977        0.463      340.054       13.811      862.248
04/21/2014  10:39:00       23.715      -36.566       21.516       52.756       59.657       32.045     2783.198     3558.992     1026.868        0.486        0.368       43.583       38.886        0.796      340.120       13.921      862.260
04/21/2014  10:40:00       45.565      -29.239       30.955       49.066       68.589       50.547     2407.447     4704.493     2554.952        0.678        0.483       54.139       40.276        0.553      340.205       14.064      862.289
04/21/2014  10:41:00       60.904      -43.234       14.492       52.780       86.002       50.968     2785.748     7396.334     2597.693        0.928        0.639       74.689       50.121        0.450      340.121       13.922      862.293
04/21/2014  10:42:00       55.070      -32.864       26.400       53.464       86.511       47.321     2858.412     7484.086     2239.248        0.869        0.629       64.131       52.313        0.665      340.064       13.826      862.274
04/21/2014  10:43:00       27.669       14.091       38.253       29.820       24.003       27.852      889.234      576.123      775.719        0.233        0.112       31.050       16.125        0.270      340.021       13.754      862.236
04/21/2014  10:44:00       26.104       31.792       40.004       34.568       32.682       15.721     1194.950     1068.084      247.140        0.290        0.126       41.136        9.535        0.054      340.106       13.899      862.208
04/21/2014  10:45:00        3.597      -23.408       13.528       30.655       30.371       24.933      939.710      922.417      621.675        0.161        0.124       23.682       19.152        0.654      340.134       13.945      862.199
04/21/2014  10:46:00       37.536      -32.347        5.488       47.825       59.140       33.543     2287.266     3497.588     1125.144        0.470        0.345       49.551       38.793        0.613      340.158       13.985      862.206
04/21/2014  10:47:00       45.485      -65.779      -16.189       34.620       38.285       28.773     1198.570     1465.765      827.876        0.507        0.175       79.974       18.819        0.055      339.950       13.634      862.228
04/21/2014  10:48:00        5.675      -41.772        6.521       26.847       36.401       29.330      720.763     1325.068      860.244        0.236        0.145       42.156       20.572        0.238      340.115       13.914      862.231
04/21/2014  10:49:00       19.861      -43.594        3.848       33.130       28.596       25.408     1097.581      817.711      645.585        0.243        0.128       47.905       16.444        0.118      340.059       13.819      862.236
04/21/2014  10:50:00       41.228      -28.936        1.707       26.670       21.870       23.406      711.289      478.300      547.836        0.214        0.087       50.368       17.621        0.122      339.930       13.601      862.238
04/21/2014  10:51:00       26.851      -14.166       20.631       36.442       37.315       25.913     1328.009     1392.412      671.489        0.237        0.170       30.358       29.304        0.932      340.082       13.857      862.231
04/21/2014  10:52:00       18.679      -12.862       19.040       26.163       37.131       33.924      684.506     1378.725     1150.855        0.204        0.161       22.679       23.727        1.095      340.255       14.150      862.220
04/21/2014  10:53:00       88.563      -71.032      -11.622       41.647       49.410       35.216     1734.506     2441.368     1240.177        0.922        0.271      113.529       38.468        0.115      340.167       14.000      862.203
04/21/2014  10:54:00       11.325       15.840       34.638       25.427       33.141       27.089      646.510     1098.297      733.802        0.203        0.124       19.472       17.881        0.843      340.274       14.181      862.180
04/21/2014  10:55:00       25.529      -12.525       24.688       24.043       32.597       23.049      578.050     1062.578      531.240        0.179        0.109       28.436       12.544        0.195      340.212       14.077      862.168
04/21/2014  10:56:00       24.562        0.420       15.554       14.614       16.468       22.757      213.570      271.181      517.896        0.092        0.050       24.566       15.066        0.376      340.253       14.145      862.169
04/21/2014  10:57:00       -1.374        5.235       22.154       10.782       13.854       13.015      116.248      191.937      169.393        0.050        0.024        5.412        9.345        2.981      340.672       14.855      862.181
04/21/2014  10:58:00       -4.837      -15.246       17.515       21.047       32.311       17.769      442.992     1044.017      315.747        0.118        0.090       15.995       14.538        0.826      340.454       14.486      862.191
04/21/2014  10:59:00       35.707       11.356       33.573       38.092       26.731       24.122     1451.002      714.526      581.878        0.264        0.137       37.469       20.323        0.294      340.093       13.876      862.193
04/21/2014  11:00:00       31.233        6.347       27.036       37.198       22.177       26.678     1383.693      491.834      711.737        0.217        0.129       31.872       24.951        0.613      340.493       14.551      862.187
04/21/2014  11:01:00       48.576      -30.676        6.857       39.200       31.865       38.007     1536.611     1015.377     1444.511        0.367        0.200       57.451       27.654        0.232      339.964       13.658      862.165
04/21/2014  11:02:00       34.178       33.973       36.149       50.071       45.899       26.418     2507.136     2106.692      697.887        0.447        0.266       48.190       19.226        0.159      340.586       14.709      862.138
04/21/2014  11:03:00       55.812       50.932       35.230       42.689       29.652       28.386     1822.349      879.213      805.774        0.523        0.175       75.558       19.126        0.064      340.685       14.875      862.104
04/21/2014  11:04:00       37.710       33.772       15.490       35.673       21.080       20.592     1272.590      444.357      424.041        0.247        0.107       50.623       13.687        0.073      340.601       14.732      862.057
04/21/2014  11:05:00       12.237       57.346        3.730       35.433       26.143       25.896     1255.506      683.468      670.608        0.303        0.130       58.637       15.103        0.066      340.822       15.109      862.021
04/21/2014  11:06:00       13.719       -6.294       13.427       27.595       32.550       19.928      761.457     1059.477      397.135        0.131        0.111       15.093       20.986        1.933      341.143       15.651      862.016
04/21/2014  11:07:00       -0.124       19.912       21.303       27.301       25.212       25.520      745.341      635.667      651.274        0.144        0.102       19.912       19.996        1.008      340.979       15.374      862.013
04/21/2014  11:08:00        9.335       -5.957       30.178       27.935       37.968       27.511      780.389     1441.561      756.828        0.201        0.149       11.074       25.903        5.472      341.254       15.839      862.012
04/21/2014  11:09:00       16.697      -25.079       14.493       28.137       55.772       32.325      791.680     3110.518     1044.882        0.303        0.247       30.129       31.800        1.114      340.953       15.329      862.017
04/21/2014  11:10:00        7.932       43.524       61.016       36.161       35.040       27.979     1307.638     1227.828      782.838        0.450        0.166       44.241       23.100        0.273      340.639       14.798      862.021
04/21/2014  11:11:00       41.665        3.156       37.421       36.415       26.939       22.464     1326.063      725.729      504.621        0.285        0.128       41.784       19.382        0.215      340.691       14.887      862.024
04/21/2014  11:12:00       32.350        5.928       39.441       42.128       57.202       40.388     1774.777     3272.019     1631.194        0.466        0.334       32.889       26.089        0.629      341.103       15.583      861.992
04/21/2014  11:13:00       47.015       -4.755       35.189       58.315       52.002       38.668     3400.661     2704.164     1495.196        0.553        0.380       47.255       36.164        0.586      341.131       15.631      861.955
04/21/2014  11:14:00       59.522      -67.996        5.069       54.494       83.720       50.137     2969.600     7008.976     2513.691        1.034        0.625       90.367       56.236        0.387      341.300       15.917      861.930
04/21/2014  11:15:00       23.440      -83.529      -14.824       65.356       36.225       24.196     4271.454     1312.275      585.465        0.696        0.308       86.756       18.050        0.043      341.184       15.721      861.886
04/21/2014  11:16:00       68.931       56.308       57.031       43.242       62.479       39.175     1869.873     3903.606     1534.716        0.924        0.365       89.006       24.095        0.073      341.102       15.582      861.866
04/21/2014  11:17:00       92.940       72.280       19.961       37.597       29.141       32.401     1413.572      849.169     1049.806        0.879        0.166      117.738       15.513        0.017      340.875       15.198      861.843
04/21/2014  11:18:00       79.742       59.889       29.822       42.185       33.098       38.442     1779.567     1095.493     1477.758        0.759        0.218       99.727       14.282        0.021      340.985       15.385      861.829
04/21/2014  11:19:00      122.478       82.775       52.119       68.457       38.764       45.075     4686.425     1502.620     2031.748        1.639        0.411      147.826       40.493        0.075      340.986       15.386      861.816
04/21/2014  11:20:00       92.927       52.859       28.264       57.590       51.749       49.706     3316.607     2677.954     2470.721        1.035        0.423      106.909       28.680        0.072      340.899       15.239      861.809
04/21/2014  11:21:00       40.706      -40.235       -2.876       36.853       81.694       42.801     1358.177     6673.880     1831.924        0.657        0.493       57.235       43.369        0.574      341.121       15.615      861.800
04/21/2014  11:22:00       35.271      -64.180        6.697       33.593       50.428       28.619     1128.472     2543.030      819.020        0.495        0.225       73.233       27.966        0.146      341.324       15.957      861.775
04/21/2014  11:23:00       46.586       33.980       27.160       45.097       38.476       38.350     2033.767     1480.435     1470.732        0.452        0.249       57.662       29.566        0.263      341.171       15.699      861.759
04/21/2014  11:24:00       81.623       43.225       28.897       40.445       55.297       30.704     1635.821     3057.770      942.752        0.750        0.282       92.362       30.254        0.107      341.255       15.841      861.749
04/21/2014  11:25:00       34.782      -57.141       -1.298       41.223       34.102       21.310     1699.354     1162.931      454.097        0.390        0.166       66.895       14.533        0.047      341.106       15.590      861.745
04/21/2014  11:26:00       38.166      -12.554       26.605       40.967       34.247       25.255     1678.296     1172.850      637.816        0.290        0.174       40.177       24.137        0.361      341.399       16.084      861.743
04/21/2014  11:27:00       52.855       25.270       17.247       51.671       31.771       31.109     2669.903     1009.400      967.759        0.419        0.232       58.585       30.007        0.262      341.599       16.424      861.736
04/21/2014  11:28:00       39.336       29.209       14.656       47.984       41.361       34.610     2302.468     1710.740     1197.867        0.391        0.261       48.995       16.896        0.119      341.870       16.885      861.716
04/21/2014  11:29:00      127.401       79.354       14.684       54.373       42.542       38.658     2956.435     1809.855     1494.439        1.450        0.313      150.093       25.774        0.029      341.939       17.001      861.692
04/21/2014  11:30:00       99.853       53.721       13.411       59.750       41.181       33.688     3570.052     1695.886     1134.866        0.972        0.320      113.387       16.834        0.022      341.849       16.847      861.674
04/21/2014  11:31:00       31.363       93.081      -10.112       38.040       42.813       30.014     1447.047     1832.935      900.838        0.696        0.209       98.223       25.166        0.066      341.797       16.758      861.652
04/21/2014  11:32:00       20.039      134.425      -24.802       32.829       46.619       21.080     1077.754     2173.337      444.349        1.139        0.185      135.911       24.223        0.032      341.676       16.555      861.652
04/21/2014  11:33:00       11.591       50.226        4.550       26.673       43.073       22.886      711.453     1855.253      523.762        0.288        0.155       51.546       17.036        0.109      342.130       17.325      861.647
04/21/2014  11:34:00       21.585       62.432       -3.199       26.095       35.813       21.940      680.958     1282.591      481.359        0.341        0.122       66.058       16.204        0.060      342.072       17.227      861.644
04/21/2014  11:35:00       35.598        2.401       -0.865       36.243       68.627       31.877     1313.551     4709.664     1016.168        0.416        0.352       35.678       29.506        0.684      341.741       16.665      861.630
04/21/2014  11:36:00        5.595        6.833       19.430       30.285       31.606       30.715      917.181      998.913      943.385        0.166        0.143        8.832       18.334        4.309      341.723       16.636      861.603
04/21/2014  11:37:00       65.589       75.394       43.462       47.687       30.289       32.545     2274.091      917.431     1059.189        0.806        0.213       99.931        9.580        0.009      341.674       16.551      861.582
04/21/2014  11:38:00       35.601       82.550       89.640       55.828       80.681       58.909     3116.726     6509.461     3470.297        1.460        0.655       89.900       51.708        0.331      341.912       16.955      861.564
04/21/2014  11:39:00       39.057      -75.176        7.299       41.425       58.374       37.944     1716.039     3407.495     1439.783        0.690        0.328       84.717       38.851        0.210      341.905       16.943      861.581
04/21/2014  11:40:00       31.251      -37.303       -0.637       45.582       48.409       24.427     2077.751     2343.476      596.694        0.369        0.251       48.663       20.885        0.184      341.886       16.911      861.593
04/21/2014  11:41:00        7.738      -20.478        1.167       26.033       30.771       27.505      677.712      946.869      756.501        0.143        0.119       21.891       17.818        0.663      342.058       17.201      861.582
04/21/2014  11:42:00       56.285       60.474       58.256       50.043       45.585       49.313     2504.335     2078.017     2431.787        0.862        0.351       82.614       36.971        0.200      342.192       17.430      861.564
04/21/2014  11:43:00       82.316       93.197       78.331       78.142       57.210       62.318     6106.239     3272.956     3883.494        1.743        0.663      124.345       54.297        0.191      342.123       17.311      861.538
04/21/2014  11:44:00      113.313       86.666       39.397       69.918       51.533       49.458     4888.463     2655.629     2446.129        1.594        0.500      142.657       24.449        0.029      342.376       17.741      861.519
04/21/2014  11:45:00      102.062       81.925       17.889       63.096       54.712       42.829     3981.056     2993.351     1834.362        1.313        0.440      130.875       34.069        0.068      342.546       18.030      861.507
04/21/2014  11:46:00       69.113       55.044       16.116       49.620       44.862       32.759     2462.113     2012.634     1073.164        0.681        0.277       88.355       15.060        0.029      342.681       18.262      861.510
04/21/2014  11:47:00       43.434       56.091       57.953       52.112       55.777       34.872     2715.673     3111.026     1216.034        0.772        0.352       70.942       25.619        0.130      343.059       18.904      861.510
04/21/2014  11:48:00       77.494      -77.217        9.922       67.669       77.789       42.830     4579.028     6051.119     1834.451        1.226        0.623      109.397       49.393        0.204      342.724       18.333      861.496
04/21/2014  11:49:00       89.779      -79.943        2.230       67.284       61.704       41.799     4527.147     3807.375     1747.182        1.227        0.504      120.213       32.934        0.075      342.686       18.267      861.487
04/21/2014  11:50:00       47.970      -86.251       11.375       40.475       37.364       35.054     1638.216     1396.082     1228.813        0.707        0.213       98.693       27.587        0.078      342.763       18.400      861.462
04/21/2014  11:51:00       65.348      -25.070       33.881       53.615       72.677       49.784     2874.615     5281.985     2478.444        0.834        0.532       69.992       48.287        0.476      342.865       18.574      861.427
04/21/2014  11:52:00       17.495       15.203       55.986       54.116       52.022       34.006     2928.578     2706.332     1156.428        0.523        0.340       23.178       32.162        1.925      343.067       18.917      861.414
04/21/2014  11:53:00       31.311      -71.963       21.200       59.198      100.147       44.857     3504.445    10029.372     2012.160        1.107        0.777       78.480       63.648        0.658      343.158       19.073      861.401
04/21/2014  11:54:00       70.294        3.620       26.100       81.984       81.236       41.687     6721.381     6599.286     1737.845        1.034        0.753       70.387        6.156        0.008      343.081       18.941      861.384
04/21/2014  11:55:00      153.248       77.710       17.720       71.339       60.584       54.055     5089.313     3670.364     2921.909        2.076        0.584      171.825       30.248        0.031      342.342       17.683      861.369
04/21/2014  11:56:00       54.592       49.006       20.583       35.443       47.798       36.273     1256.214     2284.658     1315.700        0.533        0.243       73.361       25.288        0.119      342.482       17.921      861.355
04/21/2014  11:57:00       25.894        4.780       36.957       35.305       42.256       31.576     1246.460     1785.542      997.058        0.304        0.201       26.332       27.094        1.059      342.996       18.797      861.337
04/21/2014  11:58:00      -21.773      -10.643       25.692       29.915       36.549       34.951      894.911     1335.805     1221.589        0.235        0.173       24.235       28.051        1.340      343.094       18.963      861.317
04/21/2014  11:59:00      -20.387       33.904       -6.195       42.086       54.500       29.070     1771.198     2970.208      845.086        0.359        0.279       39.562        9.274        0.055      343.261       19.248      861.306
04/21/2014  12:00:00        0.788       -3.529       33.984       34.739       24.843       20.949     1206.788      617.165      438.879        0.171        0.113        3.616        7.254        4.025      343.717       20.025      861.304
04/21/2014  12:01:00      -25.265       24.073       16.582       30.936       28.929       33.972      957.017      836.886     1154.109        0.222        0.147       34.898       17.420        0.249      343.328       19.363      861.292
04/21/2014  12:02:00      -25.153      -38.736        9.333       39.918       35.201       27.746     1593.407     1239.103      769.837        0.291        0.180       46.186       24.084        0.272      343.374       19.442      861.280
04/21/2014  12:03:00       32.139       -5.545       18.695       40.196       33.113       37.585     1615.729     1096.477     1412.596        0.277        0.206       32.614       28.540        0.766      343.307       19.328      861.274
04/21/2014  12:04:00       57.275      -17.719       -2.427       43.592       20.412       24.629     1900.240      416.631      606.573        0.326        0.146       59.954       18.294        0.093      342.495       17.945      861.273
04/21/2014  12:05:00      -39.460        5.459       -2.785       20.664       22.985       25.440      427.000      528.300      647.188        0.160        0.080       39.836       16.784        0.178      342.912       18.653      861.256
04/21/2014  12:06:00      -36.510       14.709        3.449       27.795       37.240       18.355      772.571     1386.848      336.921        0.203        0.125       39.362       17.194        0.191      343.070       18.924      861.239
04/21/2014  12:07:00        5.715        5.479       31.448       32.119       35.324       23.459     1031.627     1247.757      550.317        0.194        0.141        7.917       21.862        7.625      343.596       19.821      861.224
04/21/2014  12:08:00      -14.286      -11.997       11.858       16.976       39.830       30.853      288.173     1586.461      951.878        0.166        0.141       18.655       29.131        2.438      343.531       19.708      861.213
04/21/2014  12:09:00        1.809      -24.637       10.454       45.408       42.816       29.025     2061.908     1833.222      842.466        0.273        0.237       24.703       28.750        1.354      343.511       19.674      861.189
04/21/2014  12:10:00      -26.016      -19.587       -0.879       28.489       44.942       21.497      811.631     2019.782      462.140        0.218        0.165       32.565       23.906        0.539      343.240       19.213      861.171
04/21/2014  12:11:00       -6.918       21.557        2.132       25.233       22.307       25.705      636.685      497.583      660.729        0.116        0.090       22.640       12.759        0.318      343.543       19.728      861.149
04/21/2014  12:12:00       23.584        6.414       31.344       31.978       42.565       28.298     1022.566     1811.763      800.749        0.261        0.182       24.440       24.174        0.978      343.901       20.339      861.121
04/21/2014  12:13:00       52.706       40.153       32.529       57.742       39.052       32.552     3334.146     1525.040     1059.642        0.568        0.296       66.259       27.999        0.179      343.899       20.338      861.113
04/21/2014  12:14:00       22.957       51.362        2.243       40.550       40.399       31.011     1644.325     1632.103      961.688        0.370        0.212       56.259       21.529        0.146      343.623       19.865      861.098
04/21/2014  12:15:00       19.919       76.574       -5.076       36.163       53.185       30.833     1307.727     2828.594      950.653        0.569        0.254       79.122       26.281        0.110      343.569       19.774      861.089
04/21/2014  12:16:00       -4.945        7.546       15.726       35.403       20.986       20.713     1253.402      440.408      429.033        0.123        0.106        9.022       18.275        4.103      344.461       21.298      861.081
04/21/2014  12:17:00       28.380        8.178       19.829       44.288       41.716       41.118     1961.406     1740.185     1690.721        0.333        0.270       29.534       34.378        1.355      344.110       20.698      861.071
04/21/2014  12:18:00       37.110      -25.670       39.280       66.508       56.665       49.909     4423.263     3210.866     2490.905        0.685        0.506       45.123       44.026        0.952      343.645       19.903      861.041
04/21/2014  12:19:00       73.275      -14.558       26.950      100.042       92.106       59.037    10008.347     8483.512     3485.347        1.414        1.099       74.707       68.638        0.844      343.575       19.782      861.022
04/21/2014  12:20:00       65.059      -62.788        3.214       58.021       88.394       42.394     3366.397     7813.482     1797.232        1.058        0.649       90.416       25.581        0.080      343.182       19.112      860.995
04/21/2014  12:21:00       44.120      -69.339       27.710       97.315       90.643       51.709     9470.144     8216.133     2673.791        1.394        1.018       82.185       56.367        0.470      343.776       20.125      860.963
04/21/2014  12:22:00      -64.229     -123.803       28.981       85.380       80.368       67.012     7289.745     6458.967     4490.645        1.926        0.912      139.472       37.122        0.071      343.966       20.448      860.931
04/21/2014  12:23:00      -31.674      -62.820       11.838       63.974       86.248       45.313     4092.675     7438.703     2053.252        0.933        0.679       70.354       50.625        0.518      343.960       20.440      860.959
04/21/2014  12:24:00      -45.363      -72.922        2.976       61.785      102.118       39.786     3817.440    10428.145     1582.901        1.160        0.791       85.881       34.338        0.160      343.964       20.447      860.933
04/21/2014  12:25:00      -16.579      -19.168       47.395       64.800       69.051       50.596     4199.030     4768.069     2559.929        0.721        0.576       25.343       28.798        1.291      344.269       20.968      860.909
04/21/2014  12:26:00      -43.538        2.084       -0.750       45.502       45.172       32.256     2070.444     2040.540     1040.464        0.352        0.258       43.588       21.556        0.245      343.615       19.852      860.880
04/21/2014  12:27:00       20.002     -104.920       -9.956       63.936       71.017       35.793     4087.853     5043.402     1281.133        1.096        0.521      106.810       27.463        0.066      343.511       19.673      860.853
04/21/2014  12:28:00       17.997      -39.964       20.568       82.690       80.297       52.417     6837.568     6447.557     2747.572        0.919        0.802       43.829       42.544        0.942      343.842       20.238      860.830
04/21/2014  12:29:00       10.750      -55.059       29.594       43.136      109.130       56.837     1860.717    11909.304     3230.400        1.051        0.850       56.099       62.340        1.235      344.079       20.644      860.825
04/21/2014  12:30:00       38.462       34.370       89.256       89.554       76.331       71.439     8019.844     5826.484     5103.470        1.478        0.947       51.581       53.517        1.076      344.222       20.888      860.809
04/21/2014  12:31:00       64.682      -37.123       59.755       86.592      100.174       69.900     7498.119    10034.883     4885.961        1.577        1.121       74.578       67.295        0.814      343.960       20.439      860.787
04/21/2014  12:32:00      123.809     -137.862       15.683      102.094      151.379       87.865    10423.274    22915.525     7720.292        3.781        2.053      185.296      110.351        0.355      343.751       20.082      860.764
04/21/2014  12:33:00      133.466      -77.474       19.963      114.578      129.916       78.306    13128.014    16878.270     6131.902        3.017        1.807      154.322       86.636        0.315      343.728       20.042      860.728
04/21/2014  12:34:00       44.077      -37.234       20.249       80.268      109.126       55.341     6443.004    11908.436     3062.594        1.257        1.071       57.699       55.440        0.923      344.112       20.700      860.716
04/21/2014  12:35:00       59.631       45.310       38.547       44.815       47.073       34.216     2008.366     2215.903     1170.742        0.624        0.270       74.892       27.688        0.137      343.736       20.057      860.689
04/21/2014  12:36:00       48.699     -130.785       -4.489       68.002      110.721       44.366     4624.300    12259.073     1968.301        1.917        0.943      139.558       43.440        0.097      343.970       20.457      860.673
04/21/2014  12:37:00      135.195     -240.531      -34.671      116.669      116.527       59.245    13611.716    13578.592     3510.022        5.401        1.535      275.921       41.070        0.022      343.825       20.208      860.666
04/21/2014  12:38:00       51.658     -158.474        0.242      109.134       65.866       71.063    11910.248     4338.265     5049.936        2.454        1.065      166.681       60.010        0.130      344.024       20.548      860.662
04/21/2014  12:39:00       -0.274     -104.450       12.395       46.092       48.853       45.000     2124.478     2386.640     2025.045        0.880        0.327      104.450       25.935        0.062      344.118       20.710      860.677
04/21/2014  12:40:00       55.850     -144.153       -4.602      105.186       81.468       45.105    11064.069     6636.996     2034.482        2.182        0.987      154.594       33.557        0.047      343.963       20.445      860.677
04/21/2014  12:41:00       -6.166      -45.495       -1.247       44.248       55.558       38.173     1957.868     3086.714     1457.201        0.430        0.325       45.911       36.677        0.638      344.362       21.127      860.644
04/21/2014  12:42:00       34.128      -50.616       36.949       67.320       87.130       55.310     4531.927     7591.699     3059.190        1.013        0.759       61.047       57.325        0.882      344.423       21.230      860.629
04/21/2014  12:43:00       25.699      -49.717       42.603       72.443      112.138       58.176     5247.999    12574.925     3384.406        1.307        1.060       55.967       42.579        0.579      344.382       21.161      860.625
04/21/2014  12:44:00      119.024     -277.276      -23.129       95.948      107.964       58.444     9205.950    11656.288     3415.672        5.793        1.214      301.743       53.913        0.032      344.105       20.685      860.625
04/21/2014  12:45:00      -34.973     -175.304       10.692       85.302      111.286       52.078     7276.430    12384.672     2712.136        2.722        1.119      178.758       46.305        0.067      344.089       20.659      860.661
04/21/2014  12:46:00      -40.431      -83.219       13.559       51.548       72.520       34.436     2657.157     5259.180     1185.837        0.892        0.455       92.520       30.504        0.109      344.193       20.839      860.652
04/21/2014  12:47:00        1.477     -103.946       -0.130       54.771       66.176       39.690     2999.879     4379.246     1575.323        0.988        0.448      103.957       28.963        0.078      343.777       20.126      860.629
04/21/2014  12:48:00       16.039      -37.293       -2.329       52.766       75.515       43.815     2784.289     5702.537     1919.743        0.603        0.520       40.596       45.059        1.232      343.856       20.264      860.602
04/21/2014  12:49:00      -53.145     -104.238        0.546       63.866       61.902       35.600     4078.897     3831.881     1267.339        1.143        0.459      117.004       21.446        0.034      343.594       19.816      860.605
04/21/2014  12:50:00      -40.702       -1.675       -0.280       65.656       45.456       27.089     4310.718     2066.239      733.802        0.438        0.356       40.736       29.010        0.507      343.821       20.202      860.603
04/21/2014  12:51:00       47.899       -5.069       17.202       31.905       45.936       29.913     1017.959     2110.109      894.801        0.332        0.201       48.167       15.860        0.108      343.756       20.092      860.568
04/21/2014  12:52:00      -14.183      -67.239       10.043       62.773       53.569       35.609     3940.424     2869.664     1268.032        0.645        0.404       68.719       26.272        0.146      344.115       20.706      860.542
04/21/2014  12:53:00      139.005     -177.596      -37.562      105.397       79.945       69.051    11108.546     6391.161     4768.037        3.727        1.113      225.528       67.784        0.090      343.829       20.215      860.511
04/21/2014  12:54:00      113.826       -2.690       49.247       53.937       58.101       56.376     2909.241     3375.730     3178.283        1.242        0.473      113.858       43.238        0.144      343.837       20.230      860.518
04/21/2014  12:55:00       88.364       61.132       24.705       39.555       60.005       37.467     1564.599     3600.654     1403.763        0.936        0.328      107.449       30.950        0.083      343.322       19.352      860.483
04/21/2014  12:56:00        8.835       51.535       59.516       42.273       42.990       31.774     1786.965     1848.104     1009.588        0.546        0.232       52.287       31.870        0.372      343.511       19.675      860.481
04/21/2014  12:57:00       -9.744      -60.501        9.110       44.117       76.732       45.630     1946.319     5887.758     2082.103        0.688        0.496       61.281       47.506        0.601      343.433       19.542      860.484
04/21/2014  12:58:00      -55.012      -89.348        0.550       75.011       89.164       49.059     5626.696     7950.159     2406.777        1.349        0.799      104.926       37.318        0.126      344.069       20.626      860.529
04/21/2014  12:59:00      -37.515      -12.924       39.483       83.361       96.070       53.992     6948.988     9229.504     2915.155        1.111        0.955       39.679       54.071        1.857      344.119       20.711      860.534
04/21/2014  13:00:00       61.830      111.691       71.886       85.788       70.876       64.964     7359.585     5023.340     4220.333        1.903        0.830      127.663       36.269        0.081      343.790       20.149      860.490
04/21/2014  13:01:00        9.900      -20.151       57.556       73.850       83.196       61.311     5453.804     6921.572     3758.999        0.997        0.807       22.452       37.314        2.762      343.883       20.309      860.479
04/21/2014  13:02:00       62.996        5.444       88.456       99.399      158.481      120.460     9880.094    25116.320    14510.564        3.065        2.475       63.230      105.909        2.806      343.795       20.157      860.389
04/21/2014  13:03:00       70.419       61.752      178.879       87.521      135.309       78.231     7659.954    18308.452     6120.136        3.642        1.604       93.660       81.338        0.754      343.602       19.827      860.329
04/21/2014  13:04:00      149.301      145.377      105.859      103.598       64.592       70.636    10732.645     4172.067     4989.451        3.726        0.995      208.387       57.848        0.077      343.362       19.416      860.322
04/21/2014  13:05:00       46.716       35.042       61.733       70.992       74.245       55.784     5039.931     5512.280     3111.890        1.044        0.683       58.398       44.342        0.577      343.380       19.450      860.311
04/21/2014  13:06:00       -4.145       23.701       43.452       29.339       44.722       46.136      860.765     2000.025     2128.498        0.373        0.249       24.060       30.765        1.635      343.439       19.551      860.326
04/21/2014  13:07:00       43.419      -58.253       -1.187       63.073       89.828       42.774     3978.235     8069.132     1829.614        0.958        0.694       72.654       54.971        0.572      343.318       19.345      860.351
04/21/2014  13:08:00       69.562     -136.836      -18.394       38.309       47.321       22.833     1467.606     2239.308      521.349        1.406        0.211      153.503       14.796        0.009      343.619       19.859      860.384
04/21/2014  13:09:00       33.475      -62.180        7.541       28.601       46.094       28.489      817.999     2124.630      811.615        0.440        0.188       70.618       30.790        0.190      343.904       20.345      860.419
04/21/2014  13:10:00      -39.220      -59.054        4.069       59.207       45.640       28.247     3505.436     2082.970      797.917        0.571        0.319       70.891       19.695        0.077      343.865       20.277      860.450
04/21/2014  13:11:00      -38.057      -36.100       11.013       42.212       49.977       34.719     1781.884     2497.656     1205.424        0.418        0.274       52.455       27.287        0.271      343.710       20.014      860.460
04/21/2014  13:12:00     -130.687     -104.535       -5.636       71.782       83.718       36.948     5152.599     7008.695     1365.174        2.078        0.676      167.351       38.076        0.052      343.711       20.013      860.462
04/21/2014  13:13:00     -138.921     -123.572       26.350      144.831      129.357       58.527    20975.883    16733.172     3425.467        3.819        2.057      185.928       67.598        0.132      343.779       20.129      860.429
04/21/2014  13:14:00     -407.299     -158.785      -24.982      197.611      166.373       65.917    39050.302    27679.830     4345.066       13.139        3.554      437.156       74.358        0.029      343.761       20.098      860.382
04/21/2014  13:15:00     -150.139       13.296       20.921      152.738       91.006       60.105    23328.873     8282.078     3612.658        2.918        1.761      150.727       65.009        0.186      343.899       20.334      860.378
04/21/2014  13:16:00     -297.531     -187.260       16.645      204.070      148.325       77.469    41644.602    22000.305     6001.470        9.674        3.482      351.556       96.205        0.075      343.825       20.207      860.376
04/21/2014  13:17:00     -432.705     -123.749      -22.797      165.112      167.300       87.999    27261.881    27989.237     7743.821       13.302        3.150      450.052       75.456        0.028      343.653       19.912      860.369
04/21/2014  13:18:00     -277.475     -151.353        4.614      167.727      124.170       70.535    28132.387    15418.287     4975.128        7.421        2.426      316.069       88.058        0.078      343.560       19.756      860.365
04/21/2014  13:19:00     -349.055     -160.432      -16.844      154.381       94.291       58.442    23833.525     8890.832     3415.513        9.199        1.807      384.159       74.374        0.037      343.645       19.898      860.344
04/21/2014  13:20:00     -279.359      -94.563       -7.413      134.792      113.171       68.218    18168.982    12807.650     4653.672        6.133        1.782      294.930       70.972        0.058      343.631       19.876      860.320
04/21/2014  13:21:00     -381.174     -144.096       -0.598      134.788      123.205       65.542    18167.808    15179.384     4295.721       10.184        1.882      407.501       65.027        0.025      343.629       19.871      860.324
04/21/2014  13:22:00     -308.582     -163.780       -9.465      138.122      141.085       66.377    19077.802    19904.846     4405.918        8.275        2.169      349.351       60.929        0.030      343.682       19.962      860.351
04/21/2014  13:23:00     -213.866     -139.161        4.441      139.838      106.861       68.453    19554.778    11419.375     4685.813        5.038        1.783      255.156       77.619        0.093      343.684       19.966      860.336
04/21/2014  13:24:00     -246.456     -164.779        7.113      176.125      133.790       77.594    31019.883    17899.816     6020.883        7.143        2.747      296.467       83.702        0.080      343.742       20.063      860.357
04/21/2014  13:25:00     -417.884     -159.998      -31.481      193.038      196.623       90.904    37263.645    38660.437     8263.504       14.269        4.209      447.466       80.728        0.033      343.681       19.961      860.365
04/21/2014  13:26:00     -308.526     -225.034       13.889      239.993      185.470      104.512    57596.812    34399.070    10922.726       12.445        5.146      381.875      128.647        0.113      343.653       19.913      860.361
04/21/2014  13:27:00     -355.259     -264.748       -4.591      248.199      133.395       90.788    61602.643    17794.134     8242.414       14.196        4.382      443.058       99.378        0.050      343.668       19.938      860.363
04/21/2014  13:28:00     -371.221     -207.479        6.708      205.769      133.210       90.298    42340.678    17744.834     8153.753       12.455        3.412      425.268      104.814        0.061      343.553       19.745      860.372
04/21/2014  13:29:00     -256.554     -159.448       -8.632      154.051      113.059       59.576    23731.620    12782.241     3549.291        6.568        2.003      302.066       62.958        0.043      343.679       19.957      860.376
04/21/2014  13:30:00     -346.374     -115.567        5.610      225.037      175.130       85.394    50641.851    30670.410     7292.052       11.097        4.430      365.144       90.063        0.061      343.708       20.006      860.418
04/21/2014  13:31:00     -200.027     -117.821       10.456      144.370      117.191       81.851    20842.563    13733.768     6699.619        4.763        2.064      232.148       82.565        0.126      343.535       19.713      860.397
04/21/2014  13:32:00     -179.010     -147.183        7.145      160.720      135.436       77.996    25831.043    18343.023     6083.397        5.200        2.513      231.749       85.856        0.137      343.529       19.702      860.361
04/21/2014  13:33:00     -290.717     -121.163      -13.578      167.395      105.158       65.079    28021.085    11058.254     4235.231        7.134        2.166      314.955       72.630        0.053      343.496       19.645      860.337
04/21/2014  13:34:00     -157.068       16.177      -18.993      158.693       68.907       54.671    25183.525     4748.122     2988.933        2.910        1.646      157.898       31.265        0.039      343.589       19.804      860.341
04/21/2014  13:35:00     -301.236     -103.490      -13.756      181.050      152.312       74.897    32779.175    23198.819     5609.530        8.160        3.079      318.518       69.372        0.047      343.693       19.980      860.401
04/21/2014  13:36:00     -230.194     -144.725        2.177      215.326      149.584       96.658    46365.360    22375.310     9342.849        7.600        3.904      271.909      114.957        0.179      343.769       20.110      860.430
04/21/2014  13:37:00     -397.162     -277.385        2.655      241.864      206.438      112.378    58498.021    42616.608    12628.909       17.419        5.687      484.437      129.075        0.071      343.643       19.897      860.431
04/21/2014  13:38:00     -272.536      -76.611        5.077      242.982      167.737       95.281    59040.235    28135.701     9078.456        8.819        4.813      283.099      106.009        0.140      343.708       20.006      860.482
04/21/2014  13:39:00     -298.207     -218.545       15.015      259.150      199.168      105.607    67158.974    39668.056    11152.772       12.742        5.899      369.715      125.936        0.116      343.651       19.909      860.506
04/21/2014  13:40:00     -229.494     -114.813       11.230      212.650      179.504      112.488    45219.998    32221.666    12653.543        7.802        4.505      256.612      128.284        0.250      343.634       19.882      860.500
04/21/2014  13:41:00     -266.666     -118.129       -4.829      201.402      141.795       90.534    40562.949    20105.707     8196.392        7.696        3.443      291.659      102.113        0.123      343.665       19.932      860.558
04/21/2014  13:42:00     -604.764     -213.219      -21.024      243.429      208.736      104.989    59257.758    43570.868    11022.668       26.273        5.693      641.251      123.996        0.037      343.493       19.640      860.563
04/21/2014  13:43:00     -434.021     -182.501        4.266      242.103      172.782      114.328    58613.874    29853.763    13070.947       16.160        5.077      470.830      125.231        0.071      343.567       19.765      860.572
04/21/2014  13:44:00     -352.644      -47.528        1.472      253.994      180.687       89.637    64513.088    32647.969     8034.855       11.589        5.260      355.833      106.855        0.090      343.537       19.715      860.594
04/21/2014  13:45:00     -406.984     -192.736      -38.061      122.231      148.196       81.975    14940.474    21962.109     6719.870       12.392        2.181      450.314       62.053        0.019      343.553       19.741      860.588
04/21/2014  13:46:00     -215.571      -89.378       23.070      222.575      144.262       90.877    49539.538    20811.577     8258.627        6.679        3.930      233.365      104.661        0.201      343.588       19.803      860.577
04/21/2014  13:47:00     -288.120        4.406      -24.349      168.475      128.094       67.661    28383.890    16407.994     4578.067        6.649        2.468      288.154       72.790        0.064      343.555       19.746      860.567
04/21/2014  13:48:00     -259.658      -44.454       -2.098      179.414       94.937       70.703    32189.349     9012.942     4998.925        5.779        2.310      263.436       85.269        0.105      343.580       19.789      860.577
04/21/2014  13:49:00     -267.155     -138.434       -1.867      211.516      163.656      100.866    44738.952    26783.228    10173.893        8.610        4.085      300.891      110.192        0.134      343.618       19.854      860.594
04/21/2014  13:50:00     -458.902     -129.717       -5.940      238.692      202.995       93.531    56973.844    41206.875     8747.963       16.717        5.346      476.883      107.501        0.051      343.595       19.814      860.593
04/21/2014  13:51:00     -324.433     -132.956       19.062      183.447      152.327       80.136    33652.695    23203.401     6421.730        9.328        3.164      350.620       88.644        0.064      343.604       19.829      860.615
04/21/2014  13:52:00     -440.194     -305.355      -19.507      192.023      179.094       95.455    36872.901    32074.814     9111.659       18.271        3.903      535.736       91.092        0.029      343.464       19.592      860.581
04/21/2014  13:53:00     -389.537     -163.908      -15.049      219.528      152.770       88.300    48192.534    23338.636     7796.963       12.906        3.966      422.616      107.432        0.065      343.555       19.745      860.601
04/21/2014  13:54:00     -385.294     -202.342       -5.405      184.700      178.443      103.373    34114.168    31841.844    10685.937       13.302        3.832      435.194      101.366        0.054      343.539       19.718      860.525
04/21/2014  13:55:00     -491.154      -99.717      -33.016      278.367      153.403       86.471    77488.379    23532.447     7477.278       18.036        5.425      501.174       94.578        0.036      343.618       19.852      860.507
04/21/2014  13:56:00     -454.453      -98.714       -5.525      224.803      187.847       93.629    50536.240    35286.346     8766.304       15.543        4.729      465.050      107.855        0.054      343.611       19.841      860.496
04/21/2014  13:57:00     -374.321      -67.378       -6.051      171.719      159.328       85.966    29487.264    25385.529     7390.207       10.347        3.113      380.337       87.733        0.053      343.610       19.838      860.501
04/21/2014  13:58:00     -373.208     -129.151       -0.039      276.428      179.013       97.845    76412.485    32045.792     9573.729       13.697        5.902      394.923      115.783        0.086      343.673       19.947      860.491
04/21/2014  13:59:00     -469.800     -162.850      -23.876      251.040      158.652       90.099    63021.252    25170.368     8117.766       17.204        4.815      497.225      105.503        0.045      343.554       19.743      860.481
04/21/2014  14:00:00     -374.723     -153.172      -17.634      180.898      166.841       88.723    32723.996    27835.785     7871.853       11.630        3.422      404.820       82.557        0.042      343.620       19.856      860.490
04/21/2014  14:01:00     -545.628     -246.702      -22.088      187.735      182.115       83.577    35244.348    33166.041     6985.108       21.721        3.770      598.808       85.433        0.020      343.562       19.757      860.471
04/21/2014  14:02:00     -472.392     -305.620      -21.752      227.859      177.196       89.595    51919.790    31398.370     8027.264       20.417        4.567      562.635      100.598        0.032      343.546       19.729      860.483
04/21/2014  14:03:00     -405.628     -211.410       -2.936      215.020      140.657       85.611    46233.666    19784.266     7329.308       14.128        3.667      457.415      101.282        0.049      343.433       19.539      860.480
04/21/2014  14:04:00     -370.817     -249.008       -7.586      178.783      131.839       77.680    31963.318    17381.510     6034.201       12.746        2.769      446.666       85.113        0.036      343.496       19.645      860.497
04/21/2014  14:05:00     -416.847     -181.697        0.930      170.976      150.308       71.676    29232.707    22592.616     5137.397       13.186        2.848      454.725       84.900        0.035      343.574       19.778      860.487
04/21/2014  14:06:00     -343.675      -75.060        1.759      173.143      118.924       73.005    29978.459    14142.822     5329.713        8.659        2.473      351.776       79.376        0.051      343.696       19.986      860.543
04/21/2014  14:07:00     -377.310     -135.200      -11.960      247.612      209.569       97.885    61311.943    43919.117     9581.567       13.778        5.741      400.802      107.282        0.072      343.537       19.716      860.547
04/21/2014  14:08:00     -441.151      -92.738      -14.457      164.131      155.153       89.155    26938.861    24072.521     7948.546       13.118        2.948      450.794       77.160        0.029      343.486       19.629      860.517
04/21/2014  14:09:00     -513.785     -326.378      -19.889      277.419      189.353      106.965    76961.089    35854.673    11441.500       24.755        6.213      608.685      122.760        0.041      343.495       19.645      860.558
04/21/2014  14:10:00     -414.994     -182.700       -9.662      215.159      166.646       98.107    46293.482    27770.876     9624.951       14.467        4.184      453.431       97.699        0.046      343.415       19.506      860.569
04/21/2014  14:11:00     -296.910     -173.209        2.356      210.900      169.786       98.144    44478.688    28827.320     9632.197       10.053        4.147      343.739      107.461        0.098      343.432       19.537      860.577
04/21/2014  14:12:00     -335.491     -100.268      -16.330      280.917      199.108      100.432    78914.452    39643.938    10086.530       12.573        6.432      350.154      112.420        0.103      343.501       19.655      860.605
04/21/2014  14:13:00     -655.227     -239.388      -41.313      272.578      237.696      114.876    74298.947    56499.578    13196.546       31.614        7.200      697.588      130.436        0.035      343.357       19.409      860.599
04/21/2014  14:14:00     -426.838     -215.226      -22.185      245.159      199.149      102.157    60102.850    39660.455    10435.999       16.958        5.510      478.030      108.183        0.051      343.469       19.599      860.591
04/21/2014  14:15:00     -382.704     -207.321       13.911      267.505      196.943      121.309    71558.994    38786.627    14715.899       15.733        6.253      435.252      149.497        0.118      343.506       19.663      860.602
04/21/2014  14:16:00     -313.276     -120.811       15.235      152.591      128.643       81.927    23284.064    16549.091     6711.978        7.975        2.327      335.764       70.750        0.044      343.608       19.836      860.634
04/21/2014  14:17:00     -250.938      -39.422        6.619      180.635      177.685       88.540    32628.863    31572.102     7839.303        6.829        3.602      254.016       84.745        0.111      343.602       19.825      860.689
04/21/2014  14:18:00     -366.869     -207.753       -3.906      252.656      197.241      105.468    63835.055    38904.169    11123.569       14.579        5.693      421.608      114.751        0.074      343.502       19.655      860.710
04/21/2014  14:19:00     -620.012     -244.153      -25.007      307.595      256.257      115.569    94614.532    65667.432    13356.215       30.911        8.682      666.352      134.544        0.041      343.310       19.328      860.718
04/21/2014  14:20:00     -421.932     -158.385       -6.595      257.346      196.469      114.240    66226.895    38600.136    13050.804       16.049        5.894      450.680      135.620        0.091      343.256       19.236      860.721
04/21/2014  14:21:00     -444.833     -157.090       -9.761      159.352      118.976       79.089    25393.027    14155.230     6255.068       13.422        2.290      471.756       79.969        0.029      343.231       19.193      860.687
04/21/2014  14:22:00     -432.242     -137.445      -31.871      264.279      124.875       91.835    69843.154    15593.819     8433.617       15.029        4.694      453.568      124.007        0.075      343.386       19.457      860.642
04/21/2014  14:23:00     -365.382     -251.939       -7.029      230.824      140.904       96.422    53279.563    19853.823     9297.118       13.971        4.122      443.821      101.725        0.053      343.526       19.696      860.665
04/21/2014  14:24:00     -369.262     -205.610        4.589      237.274      153.496       95.831    56299.055    23561.000     9183.575       13.383        4.452      422.646      120.823        0.082      343.432       19.537      860.664
04/21/2014  14:25:00     -396.886     -262.319      -15.620      125.587      121.199       73.201    15772.125    14689.277     5358.417       13.119        1.791      475.741       61.124        0.017      343.426       19.524      860.637
04/21/2014  14:26:00     -403.557     -122.985       -9.291      164.715      126.211       67.370    27130.934    15929.211     4538.660       11.282        2.380      421.881       69.291        0.027      343.435       19.542      860.609
04/21/2014  14:27:00     -387.542      -90.479      -10.072      196.142      158.705       87.467    38471.780    25187.312     7650.510       11.488        3.565      397.963       98.775        0.062      343.469       19.598      860.633
04/21/2014  14:28:00     -335.005     -122.133        0.529      239.780      166.005       87.650    57494.531    27557.524     7682.563       10.992        4.637      356.574      102.203        0.082      343.448       19.563      860.698
04/21/2014  14:29:00     -343.853     -158.049       -1.222      204.438      149.657       78.152    41794.835    22397.185     6107.675       10.674        3.515      378.436       86.455        0.052      343.364       19.419      860.698
04/21/2014  14:30:00     -302.944     -208.095       10.691      243.396      165.428       95.904    59241.836    27366.351     9197.554       11.548        4.790      367.530      116.478        0.100      343.377       19.444      860.657
04/21/2014  14:31:00     -425.144     -292.515        0.719      286.190      203.850      108.248    81904.858    41554.892    11717.725       20.072        6.759      516.054      130.465        0.064      343.321       19.347      860.637
04/21/2014  14:32:00     -490.273     -286.967      -23.440      250.565      178.224       98.447    62782.744    31763.810     9691.856       21.373        5.212      568.083       89.215        0.025      343.300       19.312      860.638
04/21/2014  14:33:00     -415.019     -294.795       24.019      242.118      212.207      108.945    58620.957    45031.843    11869.103       18.760        5.776      509.063      110.929        0.047      343.314       19.334      860.660
04/21/2014  14:34:00     -488.920     -264.234       -8.103      245.404      207.252      108.824    60223.092    42953.516    11842.765       21.195        5.751      555.754      118.197        0.045      343.383       19.453      860.648
04/21/2014  14:35:00     -443.734      -31.555      -10.586      256.703      166.922      106.066    65896.337    27863.058    11250.010       15.149        5.250      444.854      127.259        0.082      343.399       19.481      860.669
04/21/2014  14:36:00     -474.182     -236.428       11.777      280.221      244.122      117.092    78523.535    59595.578    13710.421       21.633        7.591      529.856      118.147        0.050      343.336       19.373      860.710
04/21/2014  14:37:00     -561.780     -264.687       -1.139      264.803      165.273      101.350    70120.709    27315.067    10271.736       24.666        5.385      621.012      115.862        0.035      343.246       19.219      860.761
04/21/2014  14:38:00     -556.343     -220.635      -11.783      230.867      225.447      101.508    53299.482    50826.327    10303.924       23.636        5.721      598.496       96.953        0.026      343.277       19.271      860.725
04/21/2014  14:39:00     -361.994     -337.511       -3.002      243.765      234.300      112.598    59421.281    54896.264    12678.401       18.595        6.350      494.928      115.422        0.054      343.380       19.448      860.746
04/21/2014  14:40:00     -456.667     -273.160       -4.745      245.577      196.522      119.317    60308.129    38620.853    14236.470       19.815        5.658      532.129      122.276        0.053      343.358       19.411      860.709
04/21/2014  14:41:00     -487.349     -336.628      -21.857      247.387      217.164      107.832    61200.386    47160.083    11627.666       23.562        5.999      592.307      124.470        0.044      343.210       19.158      860.751
04/21/2014  14:42:00     -566.266     -301.774      -13.444      191.915      139.394       88.808    36831.395    19430.822     7886.864       23.801        3.207      641.658       94.276        0.022      343.107       18.983      860.677
04/21/2014  14:43:00     -386.499     -278.178        8.680      190.028      172.203       87.546    36110.526    29653.833     7664.241       15.012        3.671      476.198       85.878        0.033      343.256       19.236      860.614
04/21/2014  14:44:00     -404.572     -253.562       12.373      193.428      169.022       99.233    37414.543    28568.433     9847.129       15.196        3.792      477.464      104.704        0.048      343.288       19.291      860.595
04/21/2014  14:45:00     -340.483     -171.462       -4.819      237.720      193.627       95.238    56510.882    37491.299     9070.208       12.419        5.154      381.219      129.828        0.116      343.263       19.247      860.540
04/21/2014  14:46:00     -279.966     -127.905        6.678      187.469      190.660       98.522    35144.505    36351.160     9706.646        8.798        4.060      307.800       92.060        0.089      343.331       19.365      860.560
04/21/2014  14:47:00     -397.179     -225.646       -0.732      271.719      217.326       95.270    73831.177    47230.676     9076.401       16.938        6.507      456.801      113.210        0.061      343.310       19.327      860.545
04/21/2014  14:48:00     -571.281     -347.362      -23.206      276.029      215.238      128.294    76191.792    46327.496    16459.264       29.324        6.949      668.597      152.294        0.052      343.199       19.139      860.598
04/21/2014  14:49:00     -502.171     -382.935       -9.471      252.291      219.618      116.577    63650.900    48232.237    13590.282       26.216        6.274      631.518      137.408        0.047      343.255       19.234      860.666
04/21/2014  14:50:00     -478.980     -275.590       22.698      331.027      237.188      131.979   109578.965    56258.228    17418.389       24.453        9.163      552.604      156.922        0.081      343.091       18.955      860.739
04/21/2014  14:51:00     -362.109     -229.310       17.943      259.019      195.606      106.370    67090.718    38261.902    11314.674       15.032        5.833      428.610      121.311        0.080      343.087       18.947      860.732
04/21/2014  14:52:00     -252.936     -172.875       14.241      216.032      156.889       97.983    46669.934    24614.157     9600.757        8.746        4.044      306.370      101.721        0.110      343.208       19.154      860.734
04/21/2014  14:53:00     -413.162     -256.396       -7.018      204.285      150.496      101.372    41732.517    22649.073    10276.250       15.556        3.733      486.253      103.879        0.046      343.260       19.242      860.711
04/21/2014  14:54:00     -343.026       77.765       -2.341      197.244      133.775       81.718    38905.228    17895.688     6677.754        9.359        3.174      351.730       97.524        0.077      343.316       19.337      860.698
04/21/2014  14:55:00     -407.725     -118.697      -24.096      170.840      175.213       89.881    29186.428    30699.486     8078.602       12.442        3.398      424.652       82.427        0.038      343.288       19.291      860.618
04/21/2014  14:56:00     -625.006     -207.420      -20.795      353.779      267.908      125.035   125159.480    71774.525    15633.761       32.329       10.628      658.525      158.122        0.058      343.198       19.137      860.439
04/21/2014  14:57:00     -513.691      -96.671       -6.205      210.640      195.997       96.621    44369.349    38414.653     9335.657       18.267        4.606      522.708       92.151        0.031      343.286       19.286      860.535
04/21/2014  14:58:00     -356.913     -121.976      -15.531      220.405      138.840       86.514    48578.471    19276.624     7484.731       10.891        3.767      377.181       96.289        0.065      343.280       19.276      860.535
04/21/2014  14:59:00     -364.584     -206.892        0.126      228.820      208.455       94.621    52358.801    43453.294     8953.121       14.022        5.238      419.196      104.522        0.062      343.137       19.033      860.530
04/21/2014  15:00:00     -294.185      -36.199        2.500      191.553      141.960       85.762    36692.493    20152.628     7355.156        7.602        3.210      296.403       85.502        0.083      343.201       19.141      860.544
04/21/2014  15:01:00     -214.998     -129.087        6.609      191.565      192.311       92.847    36697.259    36983.637     8620.569        7.260        4.115      250.774      108.172        0.186      343.278       19.275      860.610
04/21/2014  15:02:00     -382.739     -208.570        1.595      242.087      177.949      100.497    58606.054    31665.955    10099.665       14.516        5.019      435.879      109.628        0.063      343.173       19.094      860.610
04/21/2014  15:03:00     -478.527     -304.883      -25.394      253.945      239.543      117.512    64488.008    57380.867    13809.147       22.911        6.784      567.399      120.420        0.045      343.154       19.062      860.665
04/21/2014  15:04:00     -386.630     -117.810      -20.538      255.588      238.633      101.593    65325.082    56945.834    10321.046       14.816        6.630      404.181      117.941        0.085      343.225       19.183      860.678
04/21/2014  15:05:00     -470.539     -151.196      -18.760      270.836      185.571      118.253    73352.029    34436.463    13983.848       18.317        6.089      494.234      149.307        0.091      343.160       19.073      860.662
04/21/2014  15:06:00     -366.146     -157.983        6.801      391.483      273.716      124.052   153258.723    74920.200    15389.009       20.127       12.178      398.775      169.841        0.181      343.136       19.031      860.681
04/21/2014  15:07:00     -358.047      -88.266       -8.672      238.920      185.449       99.794    57082.953    34391.345     9958.882       11.873        5.072      368.767      122.183        0.110      343.192       19.127      860.742
04/21/2014  15:08:00     -269.373     -101.685       17.192      189.791      137.974       76.430    36020.766    19036.780     5841.578        7.204        3.045      287.927       90.414        0.099      343.214       19.166      860.722
04/21/2014  15:09:00     -116.021      -44.944       39.058      172.063      143.254       85.582    29605.598    20521.598     7324.265        3.722        2.873      124.422       85.137        0.468      343.433       19.539      860.733
04/21/2014  15:10:00     -464.608      -41.462      -40.214      217.086      176.440       92.210    47126.286    31130.984     8502.675       15.296        4.338      466.455       97.931        0.044      343.257       19.238      860.719
04/21/2014  15:11:00     -525.563     -104.545      -35.094      252.192      186.481       91.363    63600.737    34775.290     8347.263       19.753        5.336      535.860      107.357        0.040      343.252       19.229      860.695
04/21/2014  15:12:00     -484.983     -332.482       -9.524      260.043      174.333      113.885    67622.323    30391.828    12969.903       22.839        5.549      588.007      131.303        0.050      343.179       19.106      860.722
04/21/2014  15:13:00     -378.832     -267.715      -27.290      199.719      201.273      103.200    39887.565    40510.908    10650.176       15.347        4.552      463.880      116.641        0.063      343.124       19.011      860.762
04/21/2014  15:14:00     -378.258      -52.987       -7.386      200.951      177.776       89.017    40381.401    31604.331     7924.062       11.291        3.995      381.951       89.942        0.055      343.241       19.211      860.710
04/21/2014  15:15:00     -486.578     -281.630      -17.787      265.875      258.009      112.550    70689.564    66568.726    12667.458       23.313        7.496      562.204      120.455        0.046      343.139       19.037      860.779
04/21/2014  15:16:00     -513.213     -284.064      -27.813      277.894      217.503      112.809    77225.083    47307.455    12725.838       24.103        6.863      586.583      111.200        0.036      343.085       18.944      860.750
04/21/2014  15:17:00     -531.790      -92.745      -19.497      332.680      226.141       96.677   110675.775    51139.820     9346.382       23.144        8.558      539.817      127.427        0.056      343.091       18.955      860.778
04/21/2014  15:18:00     -350.452     -128.238       -3.763      258.374      132.393       80.624    66757.223    17527.871     6500.252       11.501        4.539      373.177      111.713        0.090      342.959       18.731      860.758
04/21/2014  15:19:00     -307.344     -220.731       -2.338      233.812      162.218       90.714    54668.260    26314.542     8228.998       11.618        4.461      378.394      114.862        0.092      342.990       18.783      860.727
04/21/2014  15:20:00     -454.464     -393.763       -4.871      305.630      236.147      133.927    93409.623    55765.481    17936.310       26.433        8.356      601.321      151.952        0.064      343.075       18.927      860.698
04/21/2014  15:21:00     -364.869      -71.063        7.727      278.296      201.066      123.149    77448.556    40427.432    15165.637       13.561        6.652      371.725      128.855        0.120      343.096       18.965      860.686
04/21/2014  15:22:00     -348.234     -423.471        3.898      313.187      288.673      124.000    98085.826    83332.216    15376.027       24.866        9.840      548.265      123.397        0.051      342.855       18.554      860.615
04/21/2014  15:23:00     -495.108     -362.274       13.213      380.094      259.487      146.568   144471.763    67333.271    21482.134       30.487       11.664      613.494      194.345        0.100      342.912       18.651      860.526
04/21/2014  15:24:00     -600.563      -50.188       -0.861      273.063      211.699      132.722    74563.229    44816.580    17615.162       25.007        6.850      602.656      139.237        0.053      342.815       18.484      860.560
04/21/2014  15:25:00     -551.184     -274.953      -24.965      315.540      222.024      120.273    99565.324    49294.799    14465.516       27.164        8.166      615.956      159.639        0.067      342.780       18.427      860.727
04/21/2014  15:26:00     -408.138     -320.996      -21.893      203.808      175.377       94.038    41537.580    30757.015     8843.079       17.560        4.057      519.244      105.357        0.041      342.638       18.185      860.767
04/21/2014  15:27:00     -647.728     -246.910      -15.278      251.325      199.534      105.384    63164.045    39813.926    11105.798       29.739        5.704      693.193      111.860        0.026      342.559       18.050      860.732
04/21/2014  15:28:00     -553.724     -171.537      -17.752      240.807      169.733       93.105    57988.091    28809.317     8668.585       21.589        4.773      579.685      111.482        0.037      342.644       18.195      860.715
04/21/2014  15:29:00     -450.254     -204.345        5.977      252.619      161.488       93.234    63816.226    26078.319     8692.552       17.153        4.929      494.455      107.241        0.047      342.753       18.381      860.725
04/21/2014  15:30:00     -476.441     -237.833      -10.344      313.040      228.884      122.482    97993.801    52387.841    15001.769       22.449        8.269      532.504      150.171        0.080      342.712       18.310      860.707
04/21/2014  15:31:00     -512.830     -157.647        0.432      296.256      263.858      131.114    87767.700    69620.878    17190.767       23.118        8.729      536.514      155.763        0.084      342.783       18.431      860.709
04/21/2014  15:32:00     -369.712     -163.829        9.880      204.985      177.198       93.082    42018.787    31399.175     8664.280       12.284        4.104      404.385       93.771        0.054      342.837       18.523      860.730
04/21/2014  15:33:00     -344.803      -70.166       -5.687      205.139      164.633       99.904    42081.805    27103.922     9980.881       10.149        3.958      351.870      106.939        0.092      342.771       18.409      860.619
04/21/2014  15:34:00     -412.797      -33.360      -22.159      190.704      158.425       87.366    36367.837    25098.329     7632.745       12.054        3.455      414.143       88.972        0.046      342.826       18.504      860.530
04/21/2014  15:35:00     -448.405       20.984      -39.684      200.744      123.058       73.103    40297.964    15143.197     5344.016       13.192        3.039      448.896       86.130        0.037      342.804       18.467      860.465
04/21/2014  15:36:00     -391.735       -1.941      -10.711      164.528      128.994       83.671    27069.619    16639.425     7000.855       10.213        2.535      391.740       89.095        0.052      342.892       18.617      860.401
04/21/2014  15:37:00     -625.984     -183.061      -30.759      299.193      222.358      110.716    89516.699    49442.871    12258.123       28.874        7.561      652.202      139.641        0.046      342.789       18.442      860.378
04/21/2014  15:38:00     -397.052      -46.015        2.341      227.194      135.010      105.964    51616.969    18227.641    11228.330       12.041        4.054      399.709      121.428        0.092      342.956       18.726      860.359
04/21/2014  15:39:00     -289.911     -146.040       18.169      237.416      200.245      125.648    56366.263    40098.104    15787.545       10.896        5.613      324.617      131.994        0.165      343.078       18.931      860.312
04/21/2014  15:40:00     -479.769     -278.142       -6.230      334.958      221.136      138.977   112196.912    48900.916    19314.692       24.396        9.021      554.565      174.166        0.099      342.968       18.746      860.288
04/21/2014  15:41:00     -533.575     -354.951      -14.209      383.152      328.562      152.287   146805.310   107952.792    23191.456       34.437       13.897      640.853      206.552        0.104      342.800       18.461      860.336
04/21/2014  15:42:00     -489.498     -290.003        4.251      355.477      307.323      182.821   126363.715    94447.594    33423.517       28.893       12.712      568.955      205.647        0.131      342.598       18.117      860.386
04/21/2014  15:43:00     -564.208     -154.756      -20.410      260.786      193.975      104.579    68009.153    37626.222    10936.698       22.961        5.829      585.047      114.194        0.038      342.526       17.995      860.463
04/21/2014  15:44:00     -530.544     -168.202       19.773      339.723      225.216      115.087   115411.631    50722.196    13244.979       24.473        8.969      556.569      160.399        0.083      342.554       18.041      860.463
04/21/2014  15:45:00     -353.659     -115.999       -4.300      237.745      160.759       99.234    56522.825    25843.375     9847.311       11.536        4.611      372.197      110.123        0.088      342.807       18.473      860.505
04/21/2014  15:46:00     -353.146     -135.113       -2.556      287.715      202.593      114.129    82779.700    41043.835    13025.496       13.988        6.842      378.111      124.450        0.108      342.721       18.326      860.493
04/21/2014  15:47:00     -406.021     -159.866        9.998      272.196      207.818      109.879    74090.611    43188.333    12073.498       15.991        6.468      436.360      125.357        0.083      342.812       18.479      860.463
04/21/2014  15:48:00     -230.991     -137.325       20.104      282.417      212.488      108.432    79759.575    45151.234    11757.553       10.462        6.833      268.729      120.263        0.200      343.023       18.839      860.500
04/21/2014  15:49:00     -635.073     -300.165      -15.894      319.219      264.286      132.599   101900.806    69846.921    17582.547       34.146        9.467      702.436      139.372        0.039      342.491       17.935      860.520
04/21/2014  15:50:00     -497.527     -115.926      -28.078      169.398      151.037       95.599    28695.782    22812.125     9139.127       16.119        3.032      510.854       89.602        0.031      342.431       17.832      860.561
04/21/2014  15:51:00     -345.248     -149.443       15.761      246.617      190.448       91.331    60819.724    36270.342     8341.374       12.358        5.272      376.203      101.088        0.072      342.805       18.471      860.568
04/21/2014  15:52:00     -532.738     -397.971        7.897      265.986      211.366      125.560    70748.800    44675.619    15765.425       28.670        6.559      664.974      144.293        0.047      342.598       18.117      860.557
04/21/2014  15:53:00     -494.792     -289.302      -18.308      233.244      237.156      113.327    54402.720    56242.961    12843.039       22.614        6.174      573.162      127.844        0.050      342.625       18.164      860.551
04/21/2014  15:54:00     -466.817     -348.456      -23.177      247.476      171.421      100.931    61244.169    29385.291    10187.040       22.033        5.041      582.529      116.486        0.040      342.615       18.145      860.583
04/21/2014  15:55:00     -452.813     -202.975      -17.324      186.423      152.900       77.128    34753.464    23378.455     5948.757       15.530        3.204      496.225       76.575        0.024      342.348       17.691      860.617
04/21/2014  15:56:00     -268.043     -140.282       -8.906      120.689      105.032       60.455    14565.727    11031.750     3654.866        6.042        1.463      302.533       50.614        0.028      342.448       17.862      860.541
04/21/2014  15:57:00     -330.658     -219.532      -24.101      114.139       97.831       57.465    13027.623     9570.859     3302.209        9.200        1.295      396.899       66.034        0.028      342.274       17.565      860.462
04/21/2014  15:58:00     -122.430     -106.046        1.931      100.824       70.860       48.990    10165.467     5021.205     2400.060        2.191        0.879      161.972       48.086        0.088      342.419       17.814      860.472
04/21/2014  15:59:00     -151.784        4.170        7.401      112.656       64.404       41.649    12691.404     4147.883     1734.655        2.084        0.929      151.841       50.288        0.110      342.647       18.200      860.441
04/21/2014  16:00:00     -112.551       27.373        1.316      101.426       88.873       52.292    10287.312     7898.426     2734.414        1.717        1.046      115.832       53.182        0.211      342.778       18.425      860.409
04/21/2014  16:01:00     -346.623      -25.991      -13.451      128.467      116.931       77.317    16503.864    13672.838     5977.846        7.857        1.808      347.596       66.163        0.036      342.668       18.236      860.350
04/21/2014  16:02:00     -369.072     -175.990      -31.108      244.559      105.974       78.670    59809.296    11230.546     6189.044       12.268        3.861      408.884       84.904        0.043      342.667       18.235      860.319
04/21/2014  16:03:00     -430.702     -226.386      -15.848      192.348      147.064       81.114    36997.772    21627.698     6579.433       15.109        3.260      486.574       90.591        0.035      342.684       18.263      860.334
04/21/2014  16:04:00     -445.404     -232.163       -9.093      265.686      165.258       94.276    70589.114    27310.165     8888.003       17.956        5.339      502.279       99.407        0.039      342.495       17.942      860.338
04/21/2014  16:05:00     -257.431     -180.906       23.430      202.727      180.959       96.603    41098.081    32746.208     9332.212        9.135        4.159      314.639      104.672        0.111      342.569       18.067      860.319
04/21/2014  16:06:00     -326.951      -70.886      -10.430      195.455      120.563       75.351    38202.544    14535.347     5677.722        8.521        2.921      334.547       94.004        0.079      342.617       18.149      860.406
04/21/2014  16:07:00     -227.575     -164.142       -7.136      124.102      113.976       65.448    15401.384    12990.584     4283.455        5.572        1.634      280.594       66.252        0.056      342.779       18.424      860.427
04/21/2014  16:08:00     -164.920      -68.330       14.710      119.512      100.311       62.025    14283.032    10062.219     3847.102        3.013        1.410      178.515       68.977        0.149      342.960       18.734      860.436
04/21/2014  16:09:00     -109.855      -77.826       -6.199       97.070      128.528       53.409     9422.617    16519.538     2852.559        2.347        1.440      134.629       56.993        0.179      343.049       18.886      860.483
04/21/2014  16:10:00     -103.496     -219.820        1.173       94.758      136.370       56.004     8979.118    18596.800     3136.427        4.487        1.536      242.965       65.039        0.072      342.808       18.473      860.486
04/21/2014  16:11:00     -141.558     -221.762        1.173      123.453      109.895       61.506    15240.609    12076.999     3782.989        5.015        1.555      263.091       56.863        0.047      342.572       18.073      860.450
04/21/2014  16:12:00     -161.911     -106.431       10.962      158.634       92.118       57.366    25164.704     8485.781     3290.876        3.729        1.847      193.759       61.773        0.102      342.835       18.520      860.431
04/21/2014  16:13:00      -77.012      -87.014       12.565       90.290       85.748       45.004     8152.229     7352.670     2025.345        1.559        0.877      116.199       38.206        0.108      342.971       18.753      860.404
04/21/2014  16:14:00     -146.398      -98.138        0.275      131.211       66.991       43.174    17216.357     4487.749     1864.019        2.731        1.178      176.248       54.177        0.094      342.926       18.676      860.401
04/21/2014  16:15:00     -177.005     -241.191       -5.921      116.921      116.676       53.186    13670.408    13613.235     2828.773        5.982        1.506      299.172       49.597        0.027      342.685       18.264      860.379
04/21/2014  16:16:00     -163.654     -200.254      -14.365      126.767      113.227       44.732    16069.904    12820.378     2000.954        4.898        1.545      258.620       49.682        0.037      342.646       18.198      860.342
04/21/2014  16:17:00     -142.032     -206.973       -9.693      115.437      104.034       57.404    13325.687    10822.981     3295.244        4.527        1.372      251.020       57.378        0.052      342.854       18.552      860.316
04/21/2014  16:18:00     -224.386     -194.267       -2.908      175.878      106.879       61.069    30933.117    11423.204     3729.448        6.708        2.304      296.797       73.291        0.061      342.971       18.750      860.275
04/21/2014  16:19:00     -426.246     -239.779      -10.303      195.995      199.241       87.419    38413.868    39697.112     7642.081       16.250        4.288      489.060       95.555        0.038      342.839       18.527      860.272
04/21/2014  16:20:00     -310.380     -147.916      -12.252      171.116      128.004       76.887    29280.747    16384.990     5911.547        8.496        2.579      343.824       94.701        0.076      342.935       18.689      860.216
04/21/2014  16:21:00     -440.939     -132.662      -33.088      212.189      235.609       94.040    45024.287    55511.443     8843.445       16.123        5.469      460.464       96.943        0.044      342.791       18.445      860.174
04/21/2014  16:22:00     -447.709     -219.193       10.283      282.973      234.824      122.412    80073.545    55142.411    14984.576       19.937        7.510      498.487      146.685        0.087      342.652       18.208      860.106
04/21/2014  16:23:00     -440.804     -216.848        9.036      296.804      203.093      118.189    88092.510    41246.605    13968.689       19.233        7.165      491.254      148.546        0.091      342.606       18.130      860.027
04/21/2014  16:24:00     -441.122      -96.066      -12.494      196.444      146.937      100.396    38590.439    21590.341    10079.348       13.710        3.513      451.461      105.054        0.054      342.599       18.118      860.110
04/21/2014  16:25:00     -426.327     -311.215        3.242      236.904      177.300      103.359    56123.509    31435.449    10683.136       18.841        4.912      527.835      101.199        0.037      342.516       17.977      860.104
04/21/2014  16:26:00     -553.813     -352.932      -23.386      264.770      178.187      102.224    70102.987    31750.700    10449.783       27.204        5.615      656.711       99.774        0.023      342.401       17.781      860.104
04/21/2014  16:27:00     -280.423     -129.872       -3.764      199.994      181.407      102.273    39997.728    32908.545    10459.760        8.943        4.168      309.037      109.238        0.125      342.659       18.219      860.095
04/21/2014  16:28:00     -318.798      -97.547        5.127      216.451      153.453       82.979    46851.008    23547.796     6885.579        9.421        3.864      333.388      104.907        0.099      342.700       18.290      860.137
04/21/2014  16:29:00     -481.787      -86.938      -20.054      270.119      185.956      104.898    72964.266    34579.503    11003.666       17.929        5.927      489.568      117.668        0.058      342.451       17.866      860.128
04/21/2014  16:30:00     -245.223      -77.724       19.678      167.326      149.345       83.843    27997.907    22304.002     7029.709        6.194        2.867      257.246       72.643        0.080      342.559       18.050      860.137
04/21/2014  16:31:00     -264.215     -186.791        7.663      245.945      198.835      113.009    60489.067    39535.495    12771.140       10.876        5.640      323.575      140.302        0.188      342.563       18.057      860.108
04/21/2014  16:32:00     -340.174      -68.652      -10.153      207.136      180.186      121.043    42905.221    32467.129    14651.444       10.526        4.501      347.032      103.098        0.088      342.618       18.151      860.084
04/21/2014  16:33:00     -357.914     -174.608      -16.393      271.445      209.876      129.388    73682.459    44048.018    16741.252       14.664        6.724      398.234      131.850        0.110      342.557       18.047      860.062
04/21/2014  16:34:00     -416.306     -138.807      -16.561      228.630      175.043      105.571    52271.659    30640.208    11145.134       14.344        4.703      438.838      105.730        0.058      342.579       18.084      860.103
04/21/2014  16:35:00     -309.654      -68.285       -0.332      168.863      111.344       80.488    28514.877    12397.549     6478.370        7.396        2.370      317.093       93.237        0.086      342.608       18.134      860.090
04/21/2014  16:36:00     -427.768      -17.900      -34.095      205.140      128.428       73.707    42082.611    16493.795     5432.701       12.423        3.200      428.142       92.754        0.047      342.498       17.948      860.089
04/21/2014  16:37:00     -303.470     -151.912      -11.013      145.972      125.313       60.687    21307.943    15703.239     3682.896        7.799        2.035      339.369       67.672        0.040      342.496       17.942      860.076
04/21/2014  16:38:00     -215.213     -115.070       -1.689      163.833      130.724       68.913    26841.175    17088.634     4748.956        5.411        2.434      244.045       77.194        0.100      342.573       18.076      860.040
04/21/2014  16:39:00     -262.130      -21.161       -8.717      200.114      206.899       87.627    40045.500    42807.356     7678.539        7.987        4.527      262.983       97.084        0.136      342.383       17.751      859.959
04/21/2014  16:40:00     -398.928      -37.410      -11.064      209.841      110.252       65.917    44033.266    12155.436     4345.087       11.059        3.027      400.678       73.846        0.034      342.521       17.985      859.853
04/21/2014  16:41:00     -318.977     -122.750        2.350      192.222      119.370       80.095    36949.131    14249.161     6415.247        8.721        2.881      341.781       89.779        0.069      342.608       18.133      859.814
04/21/2014  16:42:00       42.313     -161.716        8.678      189.647      132.024       77.533    35966.048    17430.339     6011.369        4.370        2.970      167.160       70.657        0.179      342.683       18.262      859.817
04/21/2014  16:43:00      -12.202      -21.640       14.056       75.571       72.156       36.067     5710.907     5206.513     1300.810        0.651        0.611       24.843       31.081        1.565      342.784       18.434      859.834
04/21/2014  16:44:00     -117.563      -64.514       13.431       88.566       96.626       53.063     7843.920     9336.661     2815.682        1.908        1.000      134.101       53.245        0.158      342.766       18.405      859.863
04/21/2014  16:45:00      -67.863      -49.661       25.356      109.309      120.568       66.362    11948.374    14536.670     4403.885        1.930        1.544       84.093       81.533        0.940      342.570       18.071      859.841
04/21/2014  16:46:00      188.601     -445.799      -55.690      164.131      189.384      111.661    26938.889    35866.261    12468.199       15.633        3.764      484.053       59.890        0.015      342.542       18.020      859.762
04/21/2014  16:47:00     -317.486     -291.491        3.842      240.647      220.874      104.954    57910.791    48785.222    11015.355       15.172        5.886      431.004      125.683        0.085      342.527       17.996      859.873
04/21/2014  16:48:00     -160.241      -88.454        1.148       99.380       83.057       47.034     9876.338     6898.497     2212.186        2.624        0.949      183.034       46.536        0.065      342.641       18.190      859.998
04/21/2014  16:49:00     -185.792     -113.841       13.020      153.224      104.915       68.921    23477.720    11007.203     4750.058        4.343        1.962      217.896       71.810        0.109      342.644       18.197      860.025
04/21/2014  16:50:00     -363.292     -168.261       -8.659      167.259      123.057       76.914    27975.638    15142.999     5915.833       10.469        2.452      400.366       82.450        0.042      342.576       18.079      860.058
04/21/2014  16:51:00     -209.716     -196.584        0.225      136.690       97.025       65.888    18684.152     9413.833     4341.287        5.753        1.622      287.447       65.724        0.052      342.640       18.187      860.084
04/21/2014  16:52:00     -182.826      -53.351       -2.537      149.545      106.875       54.930    22363.744    11422.366     3017.282        3.653        1.840      190.452       44.938        0.056      342.663       18.228      860.051
04/21/2014  16:53:00     -316.247     -152.410       -8.411      176.975      145.256       73.328    31320.157    21099.413     5377.051        9.054        2.890      351.057       91.004        0.067      342.470       17.899      859.982
04/21/2014  16:54:00     -391.860     -216.568      -10.606      191.064      163.326       71.676    36505.478    26675.383     5137.477       13.443        3.416      447.723       80.312        0.032      342.307       17.621      859.907
04/21/2014  16:55:00     -230.165     -117.869        1.176      195.546      135.189       70.122    38238.406    18275.960     4917.145        6.414        3.072      258.590       80.197        0.096      342.375       17.738      859.826
04/21/2014  16:56:00     -463.247      -95.547       -9.912      153.276      116.106       78.678    23493.554    13480.706     6190.210       13.349        2.158      472.998       75.127        0.025      342.206       17.450      859.797
04/21/2014  16:57:00     -305.636     -149.462      -19.552      178.925      112.316       53.910    32014.129    12614.940     2906.326        8.183        2.377      340.223       74.612        0.048      342.072       17.222      859.768
04/21/2014  16:58:00      -54.236     -205.955        5.191       70.032       72.582       49.722     4904.483     5268.212     2472.235        2.901        0.632      212.977       45.861        0.046      342.117       17.299      859.701
04/21/2014  16:59:00     -124.311     -147.753        2.586       75.850       84.496       48.055     5753.198     7139.503     2309.322        2.624        0.760      193.091       48.743        0.064      342.240       17.508      859.675
04/21/2014  17:00:00     -171.020     -192.895      -14.194       91.448      100.998       41.137     8362.787    10200.599     1692.245        4.345        1.013      257.791       40.553        0.025      342.237       17.504      859.632
04/21/2014  17:01:00     -200.395     -123.021      -12.327      163.926       99.360       49.782    26871.769     9872.381     2478.202        4.733        1.961      235.143       72.400        0.095      342.325       17.653      859.684
04/21/2014  17:02:00     -241.601     -151.510      -10.394      128.395      109.981       59.964    16485.150    12095.905     3595.656        5.680        1.609      285.178       59.090        0.043      342.342       17.682      859.727
04/21/2014  17:03:00     -226.761     -153.843        4.696      163.414      112.415       64.644    26704.041    12637.180     4178.909        5.931        2.176      274.023       76.883        0.079      342.373       17.734      859.812
04/21/2014  17:04:00     -250.803     -121.367        5.200      135.821      111.799       64.958    18447.413    12499.079     4219.585        5.641        1.758      278.625       75.046        0.073      342.421       17.817      859.877
04/21/2014  17:05:00     -265.533     -203.673       -4.637      152.470      119.956       76.166    23247.221    14389.413     5801.239        7.772        2.172      334.650       90.310        0.073      342.302       17.614      859.926
04/21/2014  17:06:00     -117.710     -118.165       12.259      119.582      118.100       51.348    14299.770    13947.615     2636.663        2.942        1.544      166.789       55.054        0.109      342.323       17.651      859.965
04/21/2014  17:07:00     -235.205      -97.953       -6.164      117.092      104.790       59.598    13710.432    10980.871     3551.876        4.659        1.412      254.787       59.659        0.055      342.361       17.711      859.991
04/21/2014  17:08:00      -44.435     -177.330       37.571      136.956      160.072       98.176    18756.845    25623.067     9638.589        4.441        2.701      182.812       85.963        0.221      342.457       17.878      860.023
04/21/2014  17:09:00     -136.582     -205.822        9.794      120.949      139.846       59.417    14628.673    19556.959     3530.422        4.941        1.886      247.017       63.237        0.066      342.402       17.784      860.042
04/21/2014  17:10:00     -238.142     -257.707       -1.962      173.151      163.812       89.740    29981.180    26834.474     8053.301        9.399        3.243      350.891       92.801        0.070      342.244       17.516      860.082
04/21/2014  17:11:00     -189.217     -253.320        9.264      223.047      164.351       85.608    49749.977    27011.305     7328.782        9.206        4.205      316.187       77.115        0.059      342.242       17.511      860.051
04/21/2014  17:12:00     -163.668     -239.435        8.045      134.266      232.718       74.701    18027.329    54157.791     5580.205        8.096        3.888      290.028       86.537        0.089      342.302       17.615      860.007
04/21/2014  17:13:00     -193.333     -255.203       -5.658      184.800      155.011       68.770    34151.025    24028.423     4729.329        8.271        3.145      320.166       73.977        0.053      342.340       17.678      859.956
04/21/2014  17:14:00      -96.480     -220.692      -14.738       90.411      143.338       57.271     8174.193    20545.756     3279.942        4.511        1.600      240.860       19.034        0.006      342.392       17.767      859.948
04/21/2014  17:15:00       22.384     -186.497       -1.619      144.371      111.281       66.284    20842.979    12383.467     4393.552        3.644        1.881      187.835       37.756        0.040      342.305       17.619      859.963
04/21/2014  17:16:00      -57.743      -60.369       32.457      123.348       90.452       52.374    15214.725     8181.590     2743.027        1.708        1.307       83.538       48.589        0.338      342.514       17.975      859.964
04/21/2014  17:17:00       23.454     -159.704      -18.784       86.576      126.162       68.349     7495.344    15916.837     4671.530        2.724        1.404      161.417       66.250        0.168      342.507       17.963      859.951
04/21/2014  17:18:00       43.617     -231.912       21.044      146.881      161.144       91.183    21573.993    25967.473     8314.403        5.598        2.793      235.978       89.055        0.142      342.321       17.645      859.925
04/21/2014  17:19:00       42.411     -269.093      -20.289      160.171      178.198       88.979    25654.832    31754.402     7917.236        6.996        3.266      272.415       65.863        0.058      342.196       17.435      859.858
04/21/2014  17:20:00       57.098     -112.173       17.738       77.445      102.031       80.408     5997.715    10410.402     6465.523        1.951        1.144      125.869       63.726        0.256      342.221       17.478      859.833
04/21/2014  17:21:00      159.365     -264.898        3.155      163.681      186.433       90.040    26791.544    34757.151     8107.245        8.260        3.483      309.141       95.414        0.095      342.179       17.405      859.839
04/21/2014  17:22:00      122.168     -291.471      -42.103      182.288      183.852      104.057    33228.995    33801.629    10827.868        8.974        3.893      316.038      112.883        0.128      342.210       17.457      859.817
04/21/2014  17:23:00       12.716      -68.279       23.333       77.252       85.026       54.775     5967.891     7229.423     3000.301        1.078        0.810       69.453       40.631        0.342      342.487       17.930      859.857
04/21/2014  17:24:00       42.340     -189.902        6.178      113.258      187.508       80.286    12827.441    35159.236     6445.893        4.615        2.722      194.565       98.374        0.256      342.407       17.793      859.829
04/21/2014  17:25:00       75.034     -233.948      -13.702      147.874      176.732      109.649    21866.762    31234.158    12022.990        6.282        3.256      245.686       99.686        0.165      342.207       17.453      859.774
04/21/2014  17:26:00       13.808     -271.053      -10.006      169.888      126.281       86.513    28861.939    15946.877     7484.464        6.302        2.615      271.405       70.021        0.067      342.170       17.389      859.770
04/21/2014  17:27:00       74.620     -202.706      -36.775      110.702      120.181       73.686    12255.028    14443.450     5429.679        4.006        1.606      216.005       72.918        0.114      342.013       17.122      859.744
04/21/2014  17:28:00      -31.155      -79.855       12.277      136.213       67.056       41.636    18553.967     4496.548     1733.569        1.614        1.239       85.717       32.397        0.143      342.259       17.543      859.690
04/21/2014  17:29:00      -48.683      -72.613       29.156       92.054       82.663       52.052     8473.913     6833.232     2709.399        1.325        0.901       87.423       39.880        0.208      342.345       17.689      859.689
04/21/2014  17:30:00      -11.249     -204.754        2.715      134.701      171.897       82.188    18144.229    29548.725     6754.860        4.824        2.722      205.062       64.600        0.099      342.324       17.652      859.709
04/21/2014  17:31:00      -11.236     -122.781       14.497      117.427      151.266       72.272    13789.120    22881.253     5223.210        2.864        2.095      123.294       68.542        0.309      342.497       17.946      859.736
04/21/2014  17:32:00      -84.407     -172.922       -0.001       74.698       98.418       41.368     5579.847     9686.006     1711.313        2.700        0.849      192.422       32.038        0.028      342.422       17.817      859.796
04/21/2014  17:33:00     -139.137      -76.018       -6.902      132.199       73.103       48.817    17476.562     5344.044     2383.077        2.519        1.260      158.549       54.866        0.120      342.454       17.873      859.757
04/21/2014  17:34:00     -108.045     -257.421       17.366      163.920      139.819       76.268    26869.612    19549.448     5816.846        6.523        2.612      279.176       69.484        0.062      342.413       17.802      859.790
04/21/2014  17:35:00     -181.446     -358.224        5.688      176.982      238.859       84.283    31322.784    57053.612     7103.576       12.836        4.774      401.556       91.447        0.052      342.261       17.543      859.784
04/21/2014  17:36:00     -272.078     -301.945       -2.337      201.669      141.831       88.933    40670.198    20115.914     7909.095       11.694        3.435      406.445       71.198        0.031      342.195       17.432      859.790
04/21/2014  17:37:00     -208.267     -281.586        5.872      141.787      238.382       73.603    20103.454    56825.826     5417.353       10.251        4.117      350.237       84.408        0.058      342.099       17.267      859.815
04/21/2014  17:38:00     -164.842     -259.635       -2.656      159.311      123.726       70.215    25379.945    15308.132     4930.117        7.009        2.281      307.543       64.835        0.044      342.086       17.247      859.814
04/21/2014  17:39:00      -10.588     -160.567       -3.289      147.775       92.830       53.695    21837.538     8617.477     2883.147        2.961        1.667      160.916       45.328        0.079      342.174       17.395      859.780
04/21/2014  17:40:00     -106.558     -118.442        0.917      110.979      159.409       46.780    12316.369    25411.282     2188.384        3.264        1.996      159.320       45.613        0.082      342.241       17.512      859.751
04/21/2014  17:41:00       -7.250     -196.134       -7.332      108.239      146.349       51.476    11715.587    21418.069     2649.809        3.717        1.789      196.268       35.731        0.033      342.379       17.745      859.763
04/21/2014  17:42:00      122.353     -243.527        0.848      139.501      201.001       84.004    19460.415    40401.385     7056.655        7.058        3.346      272.536       92.808        0.116      342.180       17.406      859.746
04/21/2014  17:43:00      -28.261     -207.688      -11.255      106.994      118.818       75.396    11447.800    14117.812     5684.578        3.765        1.563      209.602       59.264        0.080      342.076       17.230      859.716
04/21/2014  17:44:00      -94.081     -335.948      -12.648      124.118      135.216       62.249    15405.324    18283.347     3874.945        7.971        1.878      348.873       44.172        0.016      342.068       17.215      859.709
04/21/2014  17:45:00        4.296     -268.128      -15.356      116.919      105.276       57.779    13670.124    11083.027     3338.407        5.011        1.405      268.163       35.513        0.018      342.105       17.279      859.695
04/21/2014  17:46:00      -36.557     -193.825       -7.217       99.260      113.949       58.276     9852.549    12984.389     3396.040        3.259        1.312      197.242       57.362        0.085      342.054       17.191      859.663
04/21/2014  17:47:00      -22.413     -144.358        1.027       90.891      133.139       49.517     8261.215    17725.953     2451.887        2.489        1.422      146.088       22.232        0.023      341.964       17.041      859.615
04/21/2014  17:48:00      -49.937     -126.307        5.870       87.462       69.721       48.985     7649.547     4861.044     2399.550        1.669        0.746      135.820       36.583        0.073      342.171       17.393      859.588
04/21/2014  17:49:00     -202.921     -120.844        2.609      138.808       98.230       64.469    19267.753     9649.090     4156.257        4.442        1.654      236.178       48.441        0.042      342.196       17.434      859.594
04/21/2014  17:50:00     -192.730     -144.050       11.155       98.285      104.769       50.509     9659.962    10976.478     2551.156        4.060        1.159      240.615       37.106        0.024      342.237       17.503      859.563
04/21/2014  17:51:00     -110.866     -140.443       18.808      178.799      135.265       60.502    31968.989    18296.624     3660.437        4.314        2.696      178.929       83.231        0.216      342.220       17.475      859.531
04/21/2014  17:52:00       -3.555     -127.586       15.148      124.917      103.398       71.741    15604.313    10691.107     5146.778        2.398        1.572      127.636       64.484        0.255      342.264       17.551      859.566
04/21/2014  17:53:00       39.918     -215.801       -7.076       99.923      102.488       74.535     9984.522    10503.699     5555.421        3.712        1.302      219.461       52.500        0.057      342.187       17.418      859.567
04/21/2014  17:54:00     -111.215     -245.339       14.163      110.591      143.038       75.875    12230.299    20459.996     5756.988        5.560        1.922      269.370       54.296        0.041      341.939       16.995      859.582
04/21/2014  17:55:00      -61.905     -169.458       14.886       83.323       98.325       55.273     6942.711     9667.733     3055.106        2.621        0.983      180.411       37.761        0.044      341.945       17.008      859.528
04/21/2014  17:56:00      -72.843     -143.971        2.025       89.199       81.365       47.748     7956.441     6620.320     2279.861        2.144        0.843      161.349       45.272        0.079      341.993       17.089      859.471
04/21/2014  17:57:00     -124.081     -215.566       -0.713      131.802      138.785       59.434    17371.765    19261.334     3532.421        5.101        2.008      248.727       69.291        0.078      342.008       17.114      859.439
04/21/2014  17:58:00     -267.482     -254.368       -9.903      180.028      118.450       78.843    32410.105    14030.315     6216.148        9.449        2.633      369.120       84.782        0.053      341.927       16.977      859.404
04/21/2014  17:59:00     -242.026     -120.059        6.268       98.517       90.045       56.016     9705.566     8108.060     3137.827        4.699        1.048      270.168       52.986        0.038      341.948       17.012      859.383
04/21/2014  18:00:00     -120.590     -124.137       15.072      119.748      102.519       56.965    14339.521    10510.056     3244.958        2.913        1.405      173.066       59.260        0.117      342.031       17.153      859.390
04/21/2014  18:01:00      -37.287     -149.641       -8.492       86.008      116.416       52.005     7397.462    13552.664     2704.483        2.375        1.183      154.217       29.947        0.038      342.077       17.232      859.400
04/21/2014  18:02:00     -177.955     -343.321       -5.190      148.237      175.253       83.542    21974.179    30713.623     6979.253       10.460        2.983      386.701       73.854        0.036      341.856       16.855      859.451
04/21/2014  18:03:00      -71.451     -284.573      -13.695      128.354      141.776       72.500    16474.745    20100.336     5256.200        6.404        2.092      293.406       42.884        0.021      341.848       16.842      859.424
04/21/2014  18:04:00      -72.618     -126.373        9.893      144.491      128.851       68.030    20877.767    16602.700     4628.114        3.172        2.105      145.751       45.911        0.099      341.884       16.905      859.370
04/21/2014  18:05:00     -218.913     -164.311       -8.120      162.411      124.396       62.435    26377.306    15474.345     3898.155        6.036        2.287      273.717       55.883        0.042      341.852       16.850      859.366
04/21/2014  18:06:00     -254.445     -291.642       -8.641      171.973      165.685       89.803    29574.782    27451.657     8064.590       10.747        3.255      387.037       85.820        0.049      341.799       16.759      859.347
04/21/2014  18:07:00     -278.986     -188.759       -7.700      201.989      110.709       61.912    40799.649    12256.539     3833.110        8.519        2.844      336.843       70.739        0.044      341.784       16.733      859.306
04/21/2014  18:08:00     -149.893     -197.383        0.994      155.882      139.416       53.264    24299.043    19436.909     2837.099        5.399        2.329      247.847       63.164        0.065      341.877       16.893      859.310
04/21/2014  18:09:00     -293.577     -286.447       -1.292      155.860      156.033       78.816    24292.185    24346.398     6211.993       11.153        2.743      410.170       66.362        0.026      341.793       16.750      859.315
04/21/2014  18:10:00     -230.669     -198.898        5.677      205.809      137.472       82.617    42357.535    18898.568     6825.572        8.043        3.404      304.579       84.249        0.077      341.674       16.550      859.258
04/21/2014  18:11:00      -21.014     -105.597      -11.052       89.378       93.139       55.007     7988.501     8674.808     3025.730        1.570        0.984      107.667       40.936        0.145      341.716       16.621      859.232
04/21/2014  18:12:00      -45.397     -167.148       -6.733      131.079       79.646       69.330    17181.817     6343.479     4806.598        2.918        1.417      173.203       62.584        0.131      341.847       16.843      859.197
04/21/2014  18:13:00       60.343     -155.124       19.243      158.537      168.956       88.862    25134.014    28546.149     7896.492        4.481        3.079      166.448       79.226        0.227      341.702       16.595      859.141
04/21/2014  18:14:00       48.350     -333.860      -13.523      167.703      167.618       97.595    28124.162    28095.832     9524.790        8.985        3.287      337.343       95.113        0.079      341.614       16.447      859.115
04/21/2014  18:15:00      -77.800     -216.496      -12.665      107.408      115.997       84.914    11536.534    13455.316     7210.446        4.264        1.610      230.051       67.852        0.087      341.679       16.555      859.086
04/21/2014  18:16:00     -103.087     -200.831      -10.489      160.539      150.958       98.821    25772.846    22788.337     9765.586        5.469        2.916      225.743       74.165        0.108      341.700       16.593      859.091
04/21/2014  18:17:00       -0.387     -456.563      -20.337      196.187      175.904      100.167    38489.381    30942.380    10033.426       14.415        3.973      456.563       64.640        0.020      341.640       16.489      859.093
04/21/2014  18:18:00      -49.500     -346.783      -13.996      123.189      192.308       73.533    15175.492    36982.218     5407.172        9.022        2.878      350.298       54.545        0.024      341.623       16.460      859.119
04/21/2014  18:19:00     -155.034     -333.813       -4.487      154.941      171.883       78.461    24006.834    29543.841     6156.093        9.759        2.985      368.058       65.192        0.031      341.537       16.314      859.087
04/21/2014  18:20:00      -33.853     -396.485      -26.386      171.112      134.433       88.868    29279.382    18072.213     7897.497       10.713        2.762      397.928       66.751        0.028      341.515       16.277      859.057
04/21/2014  18:21:00       83.502     -339.757       -3.783      183.087      154.252       95.683    33521.015    23793.726     9155.234        9.443        3.323      349.867       59.088        0.029      341.528       16.299      859.019
04/21/2014  18:22:00       66.099     -240.960      -18.242      147.728      161.742       91.704    21823.487    26160.371     8409.640        5.957        2.820      249.862       77.562        0.096      341.575       16.379      859.021
04/21/2014  18:23:00       53.048     -203.581       24.257      153.997      236.714       97.485    23715.204    56033.357     9503.328        6.703        4.463      210.379      119.780        0.324      341.578       16.385      858.984
04/21/2014  18:24:00       92.876     -283.550       -8.830      140.917      181.449       93.109    19857.609    32923.607     8669.197        7.527        3.073      298.373      105.728        0.126      341.558       16.352      858.988
04/21/2014  18:25:00       71.318     -360.334      -27.589      176.400      141.087      100.786    31117.058    19905.672    10157.904        9.842        3.059      367.324       35.261        0.009      341.490       16.234      859.000
04/21/2014  18:26:00       19.466     -233.831      -11.788      183.991      169.496       87.034    33852.580    28728.727     7574.854        6.266        3.508      234.639       73.877        0.099      341.553       16.343      858.990
04/21/2014  18:27:00      -27.722     -310.904        6.135      148.288      189.841       92.370    21989.223    36039.511     8532.147        8.200        3.328      312.137       92.152        0.087      341.523       16.293      858.971
04/21/2014  18:28:00      137.187     -236.877       13.655      127.314      123.826       82.491    16208.773    15332.854     6804.785        5.672        1.917      273.736       68.214        0.062      341.522       16.291      858.973
04/21/2014  18:29:00       43.009     -229.502      -38.451      136.631      171.203      112.865    18668.014    29310.326    12738.614        5.835        3.036      233.497       98.042        0.176      341.497       16.249      858.960
04/21/2014  18:30:00      145.259     -309.721       23.377      142.541      135.252       77.878    20317.950    18293.097     6064.964        8.112        2.234      342.092       61.034        0.032      341.366       16.027      858.972
04/21/2014  18:31:00       99.062     -258.264       21.903      204.953      207.749      131.493    42005.630    43159.664    17290.317        8.970        5.123      276.610      135.980        0.242      341.437       16.145      858.872
04/21/2014  18:32:00      197.498     -346.606       11.298      196.485      231.769      130.577    38606.238    53716.892    17050.358       13.430        5.469      398.925      150.213        0.142      341.254       15.835      858.784
04/21/2014  18:33:00       49.279     -265.076      -27.604      133.311      123.613       77.501    17771.846    15280.125     6006.344        5.625        1.953      269.618       53.083        0.039      341.410       16.099      858.809
04/21/2014  18:34:00        0.110     -236.833       -5.517      141.709      117.132       76.124    20081.402    13719.890     5794.799        4.785        1.980      236.833       46.326        0.038      341.422       16.120      858.779
04/21/2014  18:35:00       -5.049     -216.630       18.890      154.170      219.389       86.527    23768.248    48131.604     7486.857        6.333        3.969      216.689       97.591        0.203      341.401       16.085      858.778
04/21/2014  18:36:00       93.968     -282.754       -8.708      190.027      193.071      100.967    36110.191    37276.403    10194.371        8.620        4.179      297.959      109.529        0.135      341.418       16.114      858.757
04/21/2014  18:37:00      -23.275     -233.365      -31.230      125.073       96.820       74.970    15643.196     9374.119     5620.457        4.330        1.532      234.523       54.054        0.053      341.495       16.244      858.792
04/21/2014  18:38:00      203.170     -372.421      -69.223      230.890      213.801      117.353    53310.339    45711.018    13771.746       14.876        5.640      424.235      122.191        0.083      341.314       15.938      858.786
04/21/2014  18:39:00      104.567     -305.044      -31.902      178.429      170.197       89.874    31836.761    28967.050     8077.318        8.693        3.444      322.469       56.593        0.031      341.313       15.936      858.848
04/21/2014  18:40:00       21.586     -195.521       36.201      129.097      165.094       88.343    16666.138    27256.019     7804.450        4.586        2.586      196.709       71.979        0.134      341.356       16.007      858.919
04/21/2014  18:41:00       65.653     -299.485       28.477      164.329      206.737      128.355    27003.943    42740.156    16475.065        9.050        4.311      306.597      137.620        0.201      341.319       15.946      858.883
04/21/2014  18:42:00      -27.323     -336.424      -20.176      147.752      200.529       75.302    21830.722    40211.710     5670.324        9.101        3.386      337.532       76.717        0.052      341.356       16.009      858.871
04/21/2014  18:43:00      -79.293     -206.960       -7.132      110.650      152.169       70.581    12243.511    23155.297     4981.634        4.477        2.019      221.630       73.646        0.110      341.315       15.940      858.822
04/21/2014  18:44:00      -30.576     -186.723       17.486      116.048      109.361       70.182    13467.109    11959.802     4925.509        3.322        1.518      189.210       55.337        0.086      341.345       15.990      858.876
04/21/2014  18:45:00      -12.967     -222.860       14.385      128.795      168.154       85.361    16588.086    28275.746     7286.532        5.109        2.608      223.237       41.399        0.034      341.303       15.919      858.923
04/21/2014  18:46:00        6.803     -230.803       -5.090      128.920      134.998       69.611    16620.374    18224.534     4845.754        4.651        1.985      230.904       59.336        0.066      341.245       15.820      858.933
04/21/2014  18:47:00       12.386     -227.872      -31.405       93.799      118.327       50.506     8798.315    14001.375     2550.856        3.920        1.268      228.208       41.389        0.033      341.225       15.787      858.882
04/21/2014  18:48:00      -67.868     -130.503        4.792      126.529       86.122       52.249    16009.468     7417.062     2729.960        2.390        1.308      147.095       42.715        0.084      341.238       15.810      858.808
04/21/2014  18:49:00      -44.227     -122.199       16.572      136.701      111.966       52.703    18687.069    12536.417     2777.576        2.558        1.700      129.956       39.868        0.094      341.229       15.796      858.844
04/21/2014  18:50:00      -34.368     -157.959      -18.998      166.881      118.767       64.661    27849.120    14105.627     4180.998        3.631        2.307      161.654       33.485        0.043      341.217       15.774      858.834
04/21/2014  18:51:00     -184.869     -225.538        1.458      144.112      116.148       66.621    20768.149    13490.285     4438.423        6.186        1.935      291.623       72.753        0.062      341.190       15.728      858.837
04/21/2014  18:52:00        0.355     -260.694       -1.478      147.386      144.751       69.782    21722.732    20952.904     4869.554        5.775        2.377      260.694       49.426        0.036      341.231       15.798      858.833
04/21/2014  18:53:00        1.166     -310.796      -11.213      128.790      117.109       79.290    16586.832    13714.630     6286.860        6.665        1.829      310.798       55.671        0.032      341.226       15.788      858.802
04/21/2014  18:54:00      -77.541      -89.279       23.654      132.189       94.026       71.706    17473.889     8840.864     5141.710        2.299        1.573      118.251       70.675        0.357      341.269       15.864      858.771
04/21/2014  18:55:00      -20.968     -190.164      -10.948      135.915      122.186       55.956    18472.998    14929.406     3131.117        3.662        1.827      191.317       57.810        0.091      341.244       15.820      858.746
04/21/2014  18:56:00       -1.336     -303.655        1.855      132.900      187.350       72.163    17662.351    35099.866     5207.434        7.508        2.898      303.658       69.813        0.053      341.190       15.729      858.714
04/21/2014  18:57:00       11.374     -203.581       -4.769       93.276      124.692       63.209     8700.497    15548.044     3995.432        3.492        1.412      203.899       50.461        0.061      341.229       15.794      858.717
04/21/2014  18:58:00      -16.726      -84.373       10.019       74.462       87.397       52.197     5544.605     7638.210     2724.530        1.170        0.795       86.015       48.412        0.317      341.304       15.925      858.725
04/21/2014  18:59:00       38.934     -143.981       -1.224       72.655       99.862       42.173     5278.752     9972.459     1778.567        1.964        0.851      149.152       19.717        0.017      341.321       15.951      858.742
04/21/2014  19:00:00      -10.645     -255.012      -25.822      115.457      140.742       52.737    13330.257    19808.316     2781.243        5.086        1.796      255.234       37.009        0.021      341.260       15.846      858.726
04/21/2014  19:01:00       -8.880     -172.054       11.084       99.835      111.974       47.474     9966.942    12538.167     2253.735        2.728        1.238      172.283       44.375        0.066      341.278       15.878      858.695
04/21/2014  19:02:00     -145.992     -191.752        1.297      136.024      110.058       54.246    18502.439    12112.823     2942.619        4.581        1.678      241.004       44.496        0.034      341.178       15.708      858.689
04/21/2014  19:03:00     -110.172     -142.598      -10.987      141.026       74.666       53.199    19888.443     5575.079     2830.083        3.044        1.415      180.200       27.488        0.023      341.171       15.696      858.650
04/21/2014  19:04:00       18.513      -81.668       26.099       99.594       77.753       61.285     9918.939     6045.603     3755.845        1.370        0.986       83.740       59.949        0.513      341.206       15.759      858.614
04/21/2014  19:05:00       29.534      -68.433       25.068      108.149       99.187       60.344    11696.283     9838.074     3641.355        1.567        1.259       74.534       65.598        0.775      341.284       15.887      858.559
04/21/2014  19:06:00       60.918     -140.454       24.174      103.828      117.104       62.480    10780.313    13713.427     3903.811        2.620        1.420      153.096       49.532        0.105      341.316       15.943      858.545
04/21/2014  19:07:00        7.507     -113.617        4.341      138.189      130.133       49.993    19096.224    16934.604     2499.343        2.575        1.927      113.865       49.820        0.191      341.324       15.957      858.579
04/21/2014  19:08:00       16.310      -47.578       73.479       68.016      146.913       84.323     4626.205    21583.539     7110.405        2.062        1.666       50.296       90.630        3.247      341.025       15.451      858.579
04/21/2014  19:09:00       55.061     -139.688       13.086      122.829      125.542       73.957    15086.997    15760.674     5469.624        2.951        1.816      150.148       55.121        0.135      341.123       15.616      858.535
04/21/2014  19:10:00       44.719      -81.854        8.242       65.425       73.034       55.344     4280.440     5333.921     3062.941        1.072        0.634       93.273       43.311        0.216      340.988       15.389      858.536
04/21/2014  19:11:00       41.956     -159.674       30.064      115.736      200.004       90.490    13394.713    40001.523     8188.388        4.486        3.079      165.095       93.571        0.321      341.082       15.546      858.506
04/21/2014  19:12:00       40.387     -312.107      -38.812      208.815      137.098       80.370    43603.537    18795.730     6459.347        8.469        3.443      314.709       37.371        0.014      341.059       15.507      858.519
04/21/2014  19:13:00       23.200     -137.937       33.815      108.078      113.128       72.100    11680.955    12798.003     5198.353        2.519        1.484      139.875       63.228        0.204      341.092       15.563      858.531
04/21/2014  19:14:00        1.297     -144.824      -13.355       64.093       87.550       45.058     4107.878     7664.991     2030.208        1.748        0.690      144.829       44.651        0.095      341.080       15.542      858.540
04/21/2014  19:15:00       29.189      -71.031       -7.529       67.110       69.207       35.695     4503.736     4789.570     1274.132        0.826        0.528       76.795       40.973        0.285      340.987       15.388      858.493
04/21/2014  19:16:00     -121.542     -111.970        7.728      129.880       92.503       50.999    16868.777     8556.806     2600.860        2.769        1.401      165.256       53.459        0.105      341.044       15.482      858.446
04/21/2014  19:17:00      128.105     -232.167      -12.503      137.769      170.657       96.967    18980.177    29123.670     9402.671        6.398        2.875      265.165       97.415        0.135      340.978       15.369      858.423
04/21/2014  19:18:00      125.109     -185.951      -16.460      176.109      134.001       78.303    31014.296    17956.306     6131.284        5.279        2.755      224.121       84.685        0.143      340.992       15.393      858.394
04/21/2014  19:19:00       75.576     -179.777       15.800      105.525      149.409       89.432    11135.428    22323.198     7998.170        3.986        2.073      195.016       87.041        0.199      340.974       15.364      858.378
04/21/2014  19:20:00      105.879     -151.351       35.318      111.170      118.252       78.759    12358.838    13983.473     6203.029        3.395        1.627      184.710       78.520        0.181      341.048       15.488      858.380
04/21/2014  19:21:00       14.936     -191.404       -5.720       84.688       68.194       54.247     7172.114     4650.480     2942.687        2.583        0.738      191.986       41.051        0.046      341.074       15.532      858.389
04/21/2014  19:22:00        8.349     -267.676        1.219      151.341      166.761       79.416    22903.966    27809.255     6306.949        6.436        2.851      267.806       47.832        0.032      341.100       15.575      858.427
04/21/2014  19:23:00       13.071     -137.261       14.842      101.281      102.511       70.689    10257.752    10508.459     4996.962        2.249        1.288      137.882       59.492        0.186      341.063       15.515      858.425
04/21/2014  19:24:00       69.785     -160.762      -14.847       79.137      111.558       51.658     6262.587    12445.162     2668.533        2.615        1.069      175.255       44.446        0.064      341.050       15.492      858.436
04/21/2014  19:25:00       73.115     -227.044      -17.285      112.629      105.148       58.696    12685.196    11056.155     3445.264        4.218        1.359      238.527       39.327        0.027      341.053       15.496      858.446
04/21/2014  19:26:00        4.154     -108.234        2.549       75.726       95.875       59.327     5734.402     9192.071     3519.748        1.509        0.922      108.314       56.604        0.273      341.040       15.474      858.421
04/21/2014  19:27:00       43.345      -48.468       39.091      124.658       90.485       58.749    15539.528     8187.592     3451.471        1.646        1.359       65.023       49.682        0.584      340.921       15.275      858.384
04/21/2014  19:28:00      194.248     -247.626       12.943      170.868      172.567       82.925    29195.910    29779.408     6876.498        8.252        3.293      314.724      102.373        0.106      340.872       15.189      858.362
04/21/2014  19:29:00       89.065     -177.351       16.154      101.963      138.293       84.579    10396.483    19124.823     7153.546        3.815        1.834      198.459       86.118        0.188      340.928       15.285      858.360
04/21/2014  19:30:00      -31.287     -174.688       18.528       90.746      103.096       63.225     8234.858    10628.823     3997.377        2.734        1.143      177.467       50.738        0.082      341.009       15.423      858.362
04/21/2014  19:31:00       -8.476     -146.600       -3.154       98.015       84.431       44.804     9606.882     7128.547     2007.373        2.015        0.937      146.845       29.048        0.039      340.933       15.294      858.391
04/21/2014  19:32:00       60.533     -103.690       18.636       71.258       78.821       57.328     5077.749     6212.718     3286.493        1.467        0.729      120.066       45.616        0.144      340.819       15.102      858.380
04/21/2014  19:33:00       74.704     -189.006      -30.390       84.516       90.331       58.277     7143.029     8159.637     3396.152        3.046        0.935      203.234       58.836        0.084      340.888       15.218      858.311
04/21/2014  19:34:00       27.845      -81.480       10.831       76.548       70.865       48.960     5859.575     5021.825     2397.116        1.040        0.664       86.106       47.259        0.301      340.854       15.162      858.295
04/21/2014  19:35:00        3.916      -90.343        8.626       93.931       71.561       38.512     8822.939     5120.957     1483.211        1.184        0.771       90.427       33.268        0.135      340.964       15.348      858.297
04/21/2014  19:36:00       95.132     -234.902       -8.885      112.007      116.409       61.689    12545.581    13551.057     3805.522        4.710        1.495      253.435       51.862        0.042      340.921       15.274      858.332
04/21/2014  19:37:00      182.697     -298.993        0.966      144.530      155.369       80.334    20888.982    24139.468     6453.625        8.712        2.574      350.392       87.044        0.062      340.865       15.178      858.304
04/21/2014  19:38:00      112.277     -139.206       28.581       99.730      106.684       69.205     9945.988    11381.420     4789.400        2.945        1.306      178.842       76.376        0.182      340.851       15.156      858.301
04/21/2014  19:39:00       -3.485     -170.249       -1.020      132.185      111.010       52.393    17472.794    12323.281     2745.011        3.076        1.627      170.285       56.779        0.111      340.859       15.168      858.271
04/21/2014  19:40:00      -21.569     -171.341       12.887       82.476      102.716       56.044     6802.214    10550.678     3140.977        2.524        1.025      172.693       34.714        0.040      340.982       15.377      858.283
04/21/2014  19:41:00       34.180     -125.382       16.612       74.222      134.098       72.658     5508.908    17982.218     5279.134        2.296        1.439      129.957       90.876        0.489      340.828       15.116      858.265
04/21/2014  19:42:00       75.337     -132.839        6.620       93.103      103.023       64.032     8668.093    10613.688     4100.061        2.337        1.169      152.715       60.320        0.156      340.875       15.195      858.230
04/21/2014  19:43:00       37.062       -4.551       55.192       61.143       93.316       65.027     3738.510     8707.962     4228.462        1.055        0.834       37.340       65.834        3.108      340.485       14.539      858.208
04/21/2014  19:44:00       87.841     -109.618       24.588       92.157      119.412       63.182     8492.966    14259.310     3991.953        2.354        1.337      140.471       77.712        0.306      340.766       15.011      858.198
04/21/2014  19:45:00      144.869     -122.029       67.948      163.593      205.919      139.926    26762.592    42402.578    19579.227        6.460        4.437      189.416      149.265        0.621      340.716       14.925      858.151
04/21/2014  19:46:00       95.193     -158.230       19.866      110.171      142.144       66.302    12137.747    20204.794     4395.922        3.561        1.837      184.657       79.203        0.184      340.760       15.000      858.211
04/21/2014  19:47:00       90.101      -89.022       54.275      100.095      140.422       66.500    10019.027    19718.339     4422.296        2.657        1.708      126.661       92.673        0.535      340.615       14.756      858.203
04/21/2014  19:48:00       23.419     -137.574       16.791       65.773      110.809       62.234     4326.109    12278.696     3873.021        2.011        1.024      139.553       63.971        0.210      340.716       14.928      858.215
04/21/2014  19:49:00       15.208      -81.673       28.390      101.055      114.092       65.133    10212.029    13017.017     4242.284        1.758        1.374       83.077       62.967        0.574      340.757       14.998      858.185
04/21/2014  19:50:00       11.404     -218.432      -36.134       92.887      152.415       58.820     8628.028    23230.404     3459.841        4.223        1.766      218.729       40.872        0.035      340.833       15.124      858.205
04/21/2014  19:51:00        4.660        1.364      120.294       99.058      211.410      122.432     9812.471    44694.340    14989.603        4.198        3.475        4.855      146.511      910.518      340.630       14.781      858.164
04/21/2014  19:52:00       68.042      -62.657       38.028      133.129      122.365       74.486    17723.303    14973.244     5548.135        2.412        1.912       92.496       72.184        0.609      340.711       14.918      858.171
04/21/2014  19:53:00       47.894     -144.685       46.092      116.277      144.944       87.497    13520.394    21008.790     7655.771        3.376        2.109      152.405       90.882        0.356      340.697       14.895      858.096
04/21/2014  19:54:00       68.545     -119.166       -6.967       96.014      104.480       62.111     9218.668    10915.973     3857.781        2.147        1.200      137.473       61.149        0.198      340.726       14.945      858.136
04/21/2014  19:55:00       13.450      -94.829       -8.187       44.670       44.040       43.788     1995.443     1939.557     1917.354        0.755        0.293       95.778       29.617        0.096      340.799       15.070      858.130
04/21/2014  19:56:00       54.232      -72.797       26.603       67.037       81.783       53.157     4494.013     6688.493     2825.685        1.148        0.700       90.777       42.250        0.217      340.768       15.017      858.115
04/21/2014  19:57:00      146.942     -116.489        0.877      127.121      109.454       66.194    16159.772    11980.256     4381.601        3.384        1.626      187.514       68.184        0.132      340.642       14.802      858.090
04/21/2014  19:58:00      126.825     -248.410        4.149      138.205      132.965       91.641    19100.664    17679.743     8398.027        6.148        2.259      278.913       87.684        0.099      340.772       15.020      858.065
04/21/2014  19:59:00       26.397      -86.909        8.068       80.537      113.508       58.969     6486.198    12884.155     3477.321        1.558        1.142       90.830       55.809        0.378      340.786       15.046      858.086
04/21/2014  20:00:00        7.577      -88.192       33.170       62.737      101.463       56.750     3935.925    10294.789     3220.542        1.319        0.873       88.517       54.714        0.382      340.519       14.595      858.113
04/21/2014  20:01:00       91.724     -121.099       49.926       91.528      174.903       81.145     8377.340    30590.899     6584.581        3.555        2.278      151.915      102.499        0.455      340.608       14.745      858.122
04/21/2014  20:02:00       95.910     -150.709        2.182      104.441       99.087       81.476    10907.904     9818.284     6638.358        2.964        1.368      178.639       80.177        0.201      340.698       14.896      858.135
04/21/2014  20:03:00      121.899      -49.435       64.415      126.753      138.104       95.308    16066.237    19072.590     9083.520        3.283        2.211      131.541      103.036        0.614      340.549       14.645      858.104
04/21/2014  20:04:00      100.216        2.517      134.032      130.473      192.498      121.500    17023.199    37055.628    14762.283        4.841        3.442      100.248      131.846        1.730      340.596       14.722      858.061
04/21/2014  20:05:00        7.999      -84.775       39.299       81.398      178.265       94.823     6625.569    31778.310     8991.456        2.809        2.370       85.152      116.352        1.867      340.605       14.740      858.103
04/21/2014  20:06:00      166.821     -139.312       43.029      122.411      167.073      116.587    14984.523    27913.517    13592.490        5.278        2.825      217.341      120.649        0.308      340.625       14.772      858.076
04/21/2014  20:07:00      201.437      -85.448       25.917      141.143      133.295       87.346    19921.253    17767.563     7629.255        4.692        2.266      218.811       91.155        0.174      340.543       14.633      858.068
04/21/2014  20:08:00      100.449      -91.632       18.687      112.573      122.472       56.752    12672.650    14999.417     3220.838        2.486        1.545      135.965       71.427        0.276      340.514       14.585      858.059
04/21/2014  20:09:00       49.868      -92.590       10.682       90.117       96.115       64.042     8121.074     9238.116     4101.354        1.631        1.073      105.166       61.056        0.337      340.543       14.636      858.091
04/21/2014  20:10:00       73.470      -86.275       12.378       80.432       93.724       61.560     6469.384     8784.253     3789.653        1.601        0.952      113.319       58.833        0.270      340.605       14.741      858.103
04/21/2014  20:11:00      101.639        7.176       88.762      147.234      167.372      132.314    21677.744    28013.491    17507.044        4.272        3.360      101.892      135.496        1.768      340.576       14.690      858.090
04/21/2014  20:12:00      102.075      -66.413       81.303      109.852      159.759      104.644    12067.393    25522.968    10950.426        3.498        2.427      121.779      114.113        0.878      340.592       14.717      858.054
04/21/2014  20:13:00       68.855      -50.173       39.072       69.413      116.697       79.121     4818.227    13618.256     6260.054        1.674        1.235       85.195       75.504        0.785      340.449       14.476      858.056
04/21/2014  20:14:00       97.687      -90.129       33.771       67.087      107.514       55.800     4500.617    11559.326     3113.681        1.899        0.959      132.913       60.075        0.204      340.534       14.619      858.037
04/21/2014  20:15:00      103.818     -108.046       21.521       73.675      113.493       61.944     5427.943    12880.559     3837.025        2.253        1.107      149.840       75.185        0.252      340.578       14.694      858.028
04/21/2014  20:16:00       91.112      -76.539       46.918       84.243      134.285       73.218     7096.826    18032.488     5360.803        2.342        1.525      118.994       84.678        0.506      340.544       14.635      858.022
04/21/2014  20:17:00       82.853     -103.650       14.652      121.152      113.082       76.016    14677.900    12787.429     5778.448        2.553        1.662      132.695       83.290        0.394      340.597       14.725      858.023
04/21/2014  20:18:00       16.089      -19.056       97.530       69.013      169.761       93.726     4762.796    28818.948     8784.485        2.624        2.118       24.940      106.228       18.142      340.482       14.531      858.029
04/21/2014  20:19:00       -2.514       -4.170       72.099       44.316      105.430       60.579     1963.913    11115.452     3669.831        1.098        0.837        4.869       73.848      230.058      340.453       14.484      858.041
04/21/2014  20:20:00       30.534      -22.485       71.641       71.604       98.102       69.397     5127.123     9624.082     4816.005        1.306        0.978       37.919       73.808        3.789      340.398       14.390      858.023
04/21/2014  20:21:00        9.720      -91.710       40.301      105.991      128.177       87.354    11234.126    16429.345     7630.760        2.270        1.765       92.224       75.283        0.666      340.658       14.828      858.009
04/21/2014  20:22:00       -8.876      -32.419       64.152       80.491      148.833       88.702     6478.791    22151.330     7868.067        2.086        1.825       33.612      101.118        9.050      340.666       14.842      858.002
04/21/2014  20:23:00       51.352      -22.886       96.010       91.655      139.496       98.824     8400.658    19459.178     9766.137        2.499        1.881       56.221      102.136        3.300      340.618       14.760      857.961
04/21/2014  20:24:00       34.896      -19.399       57.180       56.608       86.409       60.652     3204.432     7466.506     3678.645        0.960        0.717       39.926       55.208        1.912      340.442       14.465      857.975
04/21/2014  20:25:00      125.607     -108.311       67.351      146.782      248.023      140.562    21544.987    61515.330    19757.699        6.741        5.141      165.857      174.317        1.105      340.630       14.781      857.941
04/21/2014  20:26:00      127.584     -243.892      -37.915      106.249       86.957       63.423    11288.764     7561.471     4022.429        5.003        1.144      275.247       51.782        0.035      340.701       14.899      857.967
04/21/2014  20:27:00       67.331     -192.236        9.727      143.704      114.277       52.452    20650.781    13059.132     2751.262        3.901        1.823      203.687       57.903        0.081      340.809       15.085      857.969
04/21/2014  20:28:00       89.616     -216.650      -22.702       83.529       72.966       61.515     6977.142     5323.979     3784.125        3.578        0.804      234.453       36.428        0.024      340.771       15.018      857.956
04/21/2014  20:29:00       46.223      -21.369       41.577       73.803       81.705       73.196     5446.866     6675.759     5357.684        1.090        0.874       50.924       62.901        1.526      340.614       14.755      857.948
04/21/2014  20:30:00        5.240      -83.058       41.256       38.190       49.900       51.009     1458.505     2489.968     2601.911        0.759        0.328       83.223       23.761        0.082      340.584       14.706      857.935
04/21/2014  20:31:00       27.549      -57.379       20.887       40.815       56.694       47.761     1665.885     3214.193     2281.159        0.582        0.358       63.650       28.794        0.205      340.411       14.413      857.922
04/21/2014  20:32:00      123.524     -141.497       -9.324       91.643      111.935       60.009     8398.462    12529.454     3601.069        2.994        1.226      187.829       59.911        0.102      340.662       14.836      857.903
04/21/2014  20:33:00      152.806     -112.829       32.951      141.431      145.529       78.660    20002.837    21178.573     6187.349        4.226        2.368      189.948       96.920        0.260      340.574       14.686      857.873
04/21/2014  20:34:00       98.195     -143.752      -14.330      110.580       89.878       72.095    12228.029     8078.136     5197.685        2.800        1.275      174.089       65.581        0.142      340.710       14.915      857.876
04/21/2014  20:35:00       52.451      -51.085       23.459       65.907       90.191       55.227     4343.706     8134.441     3050.063        1.072        0.776       73.217       51.036        0.486      340.546       14.640      857.892
04/21/2014  20:36:00       71.095      -58.796       30.093       54.361       68.795       48.830     2955.155     4732.686     2384.407        0.974        0.504       92.258       42.654        0.214      340.407       14.406      857.885
04/21/2014  20:37:00      167.588     -204.547      -17.127       44.739       62.592       39.051     2001.621     3917.730     1525.000        3.883        0.372      264.434       24.280        0.008      340.733       14.953      857.872
04/21/2014  20:38:00       97.622     -106.661        5.592       62.255       67.982       40.503     3875.632     4621.513     1640.524        1.554        0.507      144.592       30.138        0.043      340.657       14.827      857.901
04/21/2014  20:39:00      -18.835      -21.360      -28.655       45.009       61.620       24.804     2025.819     3796.982      615.261        0.403        0.322       28.478       30.347        1.136      340.731       14.953      857.898
04/21/2014  20:40:00       38.945      -53.607       19.439       51.484       57.970       38.376     2650.568     3360.479     1472.755        0.612        0.374       66.260       28.861        0.190      340.592       14.719      857.873
04/21/2014  20:41:00       38.351      -78.814       17.888       71.383       99.260       69.919     5095.487     9852.568     4888.711        1.392        0.992       87.650       56.543        0.416      340.590       14.716      857.824
04/21/2014  20:42:00       -9.461      -31.551       77.872       38.477       67.548       44.795     1480.477     4562.755     2006.631        0.760        0.402       32.939       31.911        0.939      340.398       14.392      857.805
04/21/2014  20:43:00        5.681       -3.450       77.405       40.346       67.116       43.521     1627.772     4504.507     1894.103        0.703        0.401        6.646       25.379       14.581      340.512       14.584      857.798
04/21/2014  20:44:00       72.264      -87.078       38.708       91.095      134.600       73.857     8298.320    18117.239     5454.829        2.308        1.594      113.158       93.438        0.682      340.585       14.706      857.779
04/21/2014  20:45:00      -31.760      -45.229       29.086       53.691      131.661       82.727     2882.775    17334.588     6843.817        1.548        1.353       55.266       94.180        2.904      340.558       14.660      857.780
04/21/2014  20:46:00       55.094      -46.796       17.569       70.964       84.827       53.609     5035.939     7195.624     2873.904        1.032        0.755       72.285       56.153        0.603      340.695       14.892      857.796
04/21/2014  20:47:00       38.642     -159.595        9.869       89.972       72.237       44.278     8095.017     5218.256     1960.544        2.116        0.764      164.206       23.503        0.020      340.796       15.062      857.802
04/21/2014  20:48:00      112.066      -96.046        4.335       92.154       89.994       55.881     8492.313     8098.924     3122.726        2.075        0.986      147.593       57.796        0.153      340.613       14.755      857.799
04/21/2014  20:49:00      -65.472     -100.836       25.474      100.573      115.964       72.311    10114.977    13447.624     5228.852        2.194        1.440      120.227       68.057        0.320      340.702       14.902      857.762
04/21/2014  20:50:00       28.692      -88.209        0.007       71.823       67.889       37.069     5158.495     4608.926     1374.088        0.987        0.557       92.758       23.202        0.063      340.762       15.005      857.779
04/21/2014  20:51:00        5.421     -145.503       -5.116       69.324       64.150       40.910     4805.770     4115.175     1673.651        1.591        0.530      145.604       26.277        0.033      340.737       14.963      857.761
04/21/2014  20:52:00       45.520      -83.688       23.369       87.255      115.028       72.743     7613.480    13231.461     5291.598        1.787        1.307       95.267       73.222        0.591      340.677       14.864      857.727
04/21/2014  20:53:00      -36.564      -66.807       20.002       78.986       79.445       56.788     6238.787     6311.577     3224.922        1.098        0.789       76.158       56.753        0.555      340.733       14.957      857.695
04/21/2014  20:54:00       75.370      -59.794       22.779       59.771       72.543       53.404     3572.530     5262.467     2852.025        1.073        0.584       96.208       53.396        0.308      340.559       14.664      857.662
04/21/2014  20:55:00       99.023     -157.266      -22.691       61.687       88.207       42.133     3805.287     7780.551     1775.193        2.420        0.668      185.844       41.116        0.049      340.620       14.765      857.630
04/21/2014  20:56:00       61.269      -94.048        3.705       34.348       34.684       31.695     1179.809     1202.989     1004.582        0.800        0.169      112.245       24.056        0.046      340.626       14.776      857.615
04/21/2014  20:57:00       -0.093      -28.456        5.580       23.782       37.981       22.420      565.579     1442.569      502.647        0.168        0.126       28.456       21.156        0.553      340.236       14.116      857.627
04/21/2014  20:58:00       14.357      -46.254       14.336       39.957       49.163       32.727     1596.585     2417.043     1071.072        0.382        0.254       48.431       26.665        0.303      340.659       14.833      857.659
04/21/2014  20:59:00       71.333     -144.221        2.733       60.311       61.387       48.718     3637.392     3768.404     2373.468        1.784        0.489      160.898       32.338        0.040      340.724       14.941      857.669
04/21/2014  21:00:00        3.281      -11.735       25.537       46.082       59.303       35.192     2123.517     3516.901     1238.485        0.384        0.344       12.185       27.560        5.115      340.649       14.816      857.667
04/21/2014  21:01:00      -44.414      -84.321      -15.435      104.972      107.959       49.429    11019.134    11655.066     2443.206        1.721        1.256       95.303       49.315        0.268      340.665       14.842      857.634
04/21/2014  21:02:00       12.671      -55.162        2.846       55.701       58.046       38.201     3102.572     3369.305     1459.346        0.557        0.397       56.599       32.756        0.335      340.610       14.749      857.618
04/21/2014  21:03:00       88.703      -85.343       12.466       49.895       72.598       43.190     2489.495     5270.505     1865.345        1.246        0.481      123.092       42.373        0.119      340.645       14.807      857.596
04/21/2014  21:04:00       88.126      -76.298       18.646       74.290       80.191       53.367     5518.991     6430.641     2848.018        1.436        0.740      116.565       50.691        0.189      340.596       14.725      857.569
04/21/2014  21:05:00       34.999      -64.616       20.982       60.214       81.637       44.039     3625.706     6664.641     1939.452        0.903        0.611       73.486       44.282        0.363      340.607       14.744      857.565
04/21/2014  21:06:00       42.553     -132.479       -2.422       60.258       80.784       42.751     3631.006     6526.071     1827.679        1.567        0.599      139.145       26.626        0.037      340.710       14.917      857.553
04/21/2014  21:07:00        8.845     -144.328       14.731       92.498       78.007       56.785     8555.833     6085.138     3224.562        1.949        0.893      144.599       45.680        0.100      340.800       15.070      857.550
04/21/2014  21:08:00      -25.439      -67.657       33.429       59.067       92.418       37.114     3488.952     8541.100     1377.440        0.987        0.670       72.282       39.125        0.293      340.693       14.889      857.539
04/21/2014  21:09:00       32.801      -76.146       10.643       61.403       50.214       36.393     3770.362     2521.453     1324.442        0.730        0.381       82.911       19.883        0.058      340.762       15.005      857.525
04/21/2014  21:10:00       45.663      -86.485       -6.392       64.186       51.709       34.872     4119.818     2673.825     1216.085        0.881        0.400       97.800       27.232        0.078      340.622       14.769      857.486
04/21/2014  21:11:00      -28.460      -63.834        5.371       67.793       69.340       47.550     4595.930     4807.981     2260.977        0.829        0.583       69.891       38.306        0.300      340.695       14.893      857.466
04/21/2014  21:12:00       19.031     -101.930      -13.982       56.815       70.574       50.806     3227.982     4980.644     2581.200        1.087        0.539      103.692       43.473        0.176      340.675       14.858      857.441
04/21/2014  21:13:00      -18.607     -131.798      -10.608       44.905       44.798       31.530     2016.486     2006.852      994.117        1.142        0.251      133.105       22.573        0.029      340.831       15.123      857.447
04/21/2014  21:14:00      -58.538      -43.506        8.408       50.364       40.327       26.177     2536.487     1626.233      685.209        0.512        0.242       72.935       22.765        0.097      340.726       14.944      857.431
04/21/2014  21:15:00     -178.084      -39.014        5.217       73.056       72.378       43.790     5337.248     5238.577     1917.558        2.288        0.625      182.307       43.237        0.056      340.631       14.781      857.415
04/21/2014  21:16:00     -143.630     -112.828        6.773       74.434       81.243       36.730     5540.459     6600.429     1349.105        2.345        0.674      182.647       41.755        0.052      340.625       14.772      857.423
04/21/2014  21:17:00     -102.223      -93.384       -7.022       94.165       59.380       36.322     8867.006     3526.030     1319.261        1.646        0.686      138.457       27.476        0.039      340.629       14.778      857.421
04/21/2014  21:18:00     -110.875      -86.560        6.843      108.903       61.490       41.701    11859.800     3780.983     1738.937        1.860        0.869      140.662       46.469        0.109      340.594       14.722      857.431
04/21/2014  21:19:00     -106.610     -108.914       -0.074      103.091       76.325       46.581    10627.742     5825.458     2169.825        2.092        0.931      152.407       36.022        0.056      340.607       14.742      857.439
04/21/2014  21:20:00     -130.776      -67.014        2.761       57.441       48.172       31.639     3299.434     2320.562     1001.022        1.411        0.331      146.947       30.972        0.044      340.557       14.660      857.460
04/21/2014  21:21:00     -216.278     -112.655       -1.286       88.843       80.465       44.747     7893.079     6474.675     2002.313        3.792        0.819      243.859       39.709        0.027      340.566       14.671      857.459
04/21/2014  21:22:00     -159.965      -68.661       -1.426       72.370       64.840       40.618     5237.444     4204.283     1649.855        2.070        0.555      174.078       38.420        0.049      340.548       14.641      857.460
04/21/2014  21:23:00      -74.796      -25.772       16.512       60.228       71.949       38.089     3627.418     5176.630     1450.809        0.839        0.513       79.111       32.661        0.170      340.514       14.586      857.455
04/21/2014  21:24:00     -118.079      -79.918       10.545       86.326       58.246       37.931     7452.105     3392.572     1438.749        1.636        0.614      142.582       33.506        0.055      340.541       14.631      857.441
04/21/2014  21:25:00      -68.821     -127.622       10.625       60.299       60.032       36.625     3636.017     3603.879     1341.366        1.486        0.429      144.995       38.180        0.069      340.519       14.593      857.424
04/21/2014  21:26:00      -67.762      -73.727       -5.073       36.499       49.643       23.935     1332.149     2464.394      572.899        0.721        0.218      100.137       23.187        0.054      340.546       14.642      857.419
04/21/2014  21:27:00       -2.320      -43.646       -1.271       53.699       54.754       40.647     2883.612     2998.036     1652.139        0.472        0.377       43.708       23.813        0.297      340.434       14.452      857.423
04/21/2014  21:28:00      -15.882      -27.551       -5.234       45.663       26.722       18.887     2085.079      714.039      356.701        0.210        0.158       31.801       15.623        0.241      340.467       14.507      857.448
04/21/2014  21:29:00       -1.497      -21.932      -15.507       35.309       32.303       18.672     1246.698     1043.516      348.627        0.168        0.132       21.983       15.480        0.496      340.294       14.216      857.451
04/21/2014  21:30:00      -82.552      -40.863       -3.292       49.956       35.444       27.175     2495.647     1256.252      738.497        0.649        0.225       92.112       18.001        0.038      340.427       14.441      857.448
04/21/2014  21:31:00      -66.002      -36.466        7.155       64.129       50.140       27.972     4112.522     2514.000      782.441        0.657        0.370       75.406       32.069        0.181      340.401       14.398      857.444
04/21/2014  21:32:00     -178.337      -94.788       -8.990       56.935       40.743       26.539     3241.644     1660.019      704.308        2.324        0.280      201.963       26.348        0.017      340.510       14.580      857.434
04/21/2014  21:33:00     -169.160      -77.018       -2.838       42.813       26.809       20.388     1832.937      718.714      415.681        1.876        0.148      185.868       18.287        0.010      340.529       14.611      857.419
04/21/2014  21:34:00      -99.721      -25.208        5.040       30.356       34.582       20.761      921.463     1195.940      431.029        0.658        0.127      102.858       18.135        0.031      340.504       14.571      857.413
04/21/2014  21:35:00      -80.756      -60.131        1.830       51.784       30.251       22.725     2681.625      915.121      516.406        0.713        0.206      100.684       27.580        0.075      340.527       14.609      857.406
04/21/2014  21:36:00     -138.130      -45.068        5.495       31.093       25.307       20.850      966.779      640.456      434.717        1.159        0.102      145.297       13.368        0.008      340.542       14.633      857.389
04/21/2014  21:37:00      -83.558      -25.442        0.460       34.476       27.356       18.337     1188.570      748.326      336.229        0.495        0.114       87.345       14.678        0.028      340.493       14.551      857.366
04/21/2014  21:38:00      -65.557       -5.804        1.377       40.119       29.387       19.024     1609.499      863.569      361.903        0.358        0.142       65.813       18.772        0.081      340.377       14.356      857.331
04/21/2014  21:39:00      -99.440       -8.338        3.769       48.630       38.610       27.629     2364.855     1490.715      763.379        0.729        0.231       99.789       32.741        0.108      340.431       14.447      857.305
04/21/2014  21:40:00     -103.927      -11.502        0.478       35.858       34.740       17.019     1285.806     1206.842      289.632        0.686        0.139      104.562       11.029        0.011      340.441       14.464      857.277
04/21/2014  21:41:00      -50.921       -8.150        6.732       26.803       28.022       19.978      718.426      785.260      399.110        0.230        0.095       51.569       11.866        0.053      340.415       14.420      857.252
04/21/2014  21:42:00      -29.377      -21.625        4.892       21.454       27.282       12.887      460.258      744.316      166.070        0.136        0.069       36.478       10.543        0.084      340.374       14.350      857.230
04/21/2014  21:43:00      -42.788       -8.699        5.733       29.043       22.943       14.276      843.487      526.372      203.816        0.176        0.079       43.663       15.062        0.119      340.372       14.347      857.206
04/21/2014  21:44:00      -11.383        2.966       17.124       18.954       13.157       15.365      359.257      173.095      236.077        0.060        0.038       11.763       13.426        1.303      339.926       13.594      857.183
04/21/2014  21:45:00        7.580        3.269       13.796       21.690       10.310       12.694      470.459      106.300      161.142        0.050        0.037        8.255       13.434        2.649      339.766       13.324      857.158
04/21/2014  21:46:00       -3.027       16.960       17.851       13.619       12.258       17.506      185.470      150.265      306.477        0.063        0.032       17.228        9.704        0.317      339.494       12.864      857.125
04/21/2014  21:47:00       17.061       11.583       -3.145       14.366        8.407        7.529      206.389       70.674       56.684        0.038        0.017       20.621        3.012        0.021      339.887       13.529      857.081
04/21/2014  21:48:00       13.289        5.820        3.973       11.700        6.098        7.254      136.887       37.181       52.617        0.023        0.011       14.508        4.072        0.079      339.886       13.526      857.055
04/21/2014  21:49:00       -2.848       20.950        1.259       12.611       14.919       11.722      159.026      222.584      137.411        0.048        0.026       21.142        5.222        0.061      340.039       13.785      857.020
04/21/2014  21:50:00      -11.790       23.300        1.939       28.899       18.999       19.542      835.156      360.948      381.894        0.113        0.079       26.113       17.090        0.428      340.272       14.178      856.999
04/21/2014  21:51:00      -56.720        6.744       -6.528       45.998       27.061       16.496     2115.857      732.282      272.112        0.321        0.156       57.120       18.020        0.100      340.289       14.207      856.987
04/21/2014  21:52:00       -5.733      -22.443       15.977       29.180       34.312       12.801      851.484     1177.298      163.857        0.149        0.110       23.163        9.862        0.181      340.242       14.128      856.982
04/21/2014  21:53:00      -80.887      -23.747        4.190       32.969       18.477       16.034     1086.941      341.412      257.085        0.440        0.084       84.301       19.239        0.052      340.259       14.155      856.988
04/21/2014  21:54:00      -79.262      -16.529       -4.375       30.454       22.882       16.369      927.432      523.564      267.955        0.415        0.086       80.967       12.353        0.023      340.233       14.110      856.967
04/21/2014  21:55:00        8.401      -12.561        4.663       39.466       26.425       20.091     1557.541      698.262      403.631        0.145        0.133       15.111       17.355        1.319      339.911       13.568      856.954
04/21/2014  21:56:00      -31.945      -24.754       -9.987       47.080       31.143       17.106     2216.572      969.906      292.602        0.261        0.174       40.413       18.725        0.215      340.019       13.752      856.954
04/21/2014  21:57:00      -64.487       11.212       -2.279       36.053       24.450       18.016     1299.827      597.801      324.572        0.326        0.111       65.454       17.951        0.075      340.280       14.192      856.950
04/21/2014  21:58:00      -86.460       53.905       -8.777       37.344       22.092       20.511     1394.578      488.059      420.697        0.638        0.115      101.888       12.373        0.015      340.274       14.181      856.932
04/21/2014  21:59:00      -62.986       17.525       -4.400       21.521       32.669       16.068      463.157     1067.257      258.187        0.304        0.089       65.378       13.340        0.042      340.276       14.184      856.919
04/21/2014  22:00:00      -57.436      -20.420       -6.107       29.803       26.618       19.059      888.222      708.534      363.244        0.286        0.098       60.958       15.247        0.063      340.118       13.918      856.913
04/21/2014  22:01:00      -58.817       -0.714        6.008       52.462       22.944       19.691     2752.211      526.416      387.737        0.358        0.183       58.821       26.305        0.200      340.099       13.886      856.903
04/21/2014  22:02:00      -56.071       17.116        6.121       50.536       31.556       24.095     2553.915      995.799      580.550        0.380        0.207       58.625       29.638        0.256      340.001       13.721      856.894
04/21/2014  22:03:00      -86.398      -29.864       -8.948       28.418       41.869       21.030      807.579     1752.983      442.262        0.572        0.150       91.414       13.108        0.021      339.964       13.658      856.898
04/21/2014  22:04:00     -195.458       -6.803      -19.174       52.588       41.471       20.351     2765.549     1719.819      414.160        2.176        0.245      195.576       25.146        0.017      339.995       13.707      856.889
04/21/2014  22:05:00     -112.232       57.867       -7.966       73.414       38.419       25.999     5389.671     1476.002      675.968        1.177        0.377      126.272       27.505        0.047      339.957       13.645      856.848
04/21/2014  22:06:00     -108.972      -33.113       -8.562       77.796       42.704       30.391     6052.289     1823.671      923.596        1.092        0.440      113.892       20.851        0.034      339.864       13.488      856.838
04/21/2014  22:07:00     -163.611       -3.268      -20.401       63.212       47.904       31.814     3995.754     2294.834     1012.110        1.725        0.365      163.643       32.468        0.039      339.893       13.537      856.843
04/21/2014  22:08:00     -118.638       32.621      -17.877       43.447       39.620       26.714     1887.621     1569.705      713.657        0.981        0.209      123.041       19.024        0.024      339.964       13.659      856.829
04/21/2014  22:09:00      -11.789       67.361        7.803       26.789       25.948       27.270      717.631      673.275      743.640        0.344        0.107       68.385       17.322        0.064      340.155       13.980      856.812
04/21/2014  22:10:00      -10.281      -20.013        7.974       45.165       37.803       25.271     2039.903     1429.075      638.644        0.234        0.205       22.500       13.387        0.354      340.058       13.817      856.823
04/21/2014  22:11:00     -128.665      -88.948      -13.521       31.503       31.666       19.252      992.413     1002.718      370.644        1.351        0.118      156.417       16.970        0.012      340.083       13.860      856.809
04/21/2014  22:12:00      -96.106      -24.142       -2.732       76.482       68.918       35.650     5849.456     4749.675     1270.904        1.085        0.594       99.092       39.058        0.155      340.257       14.153      856.784
04/21/2014  22:13:00     -181.943      -80.280       -8.648       47.586       40.166       30.659     2264.446     1613.269      939.964        2.222        0.241      198.867       23.769        0.014      339.765       13.321      856.773
04/21/2014  22:14:00     -141.960      -39.589      -19.624       36.825       43.937       27.062     1356.089     1930.450      732.364        1.306        0.201      147.377       20.228        0.019      339.879       13.514      856.776
04/21/2014  22:15:00     -106.166      -55.044        2.524       39.932       54.644       32.710     1594.588     2985.929     1069.961        0.998        0.283      119.587       25.598        0.046      339.793       13.368      856.766
04/21/2014  22:16:00      -52.095      -38.378        4.586       32.528       40.502       22.347     1058.073     1640.403      499.371        0.370        0.160       64.705       16.384        0.064      339.741       13.282      856.771
04/21/2014  22:17:00      -77.831       14.809        0.028       67.132       61.148       33.559     4506.683     3739.063     1126.185        0.782        0.469       79.227       33.528        0.179      340.317       14.255      856.770
04/21/2014  22:18:00       29.956      -22.196        2.745       33.821       32.643       24.250     1143.829     1065.548      588.077        0.210        0.140       37.283       17.816        0.228      340.158       13.986      856.733
04/21/2014  22:19:00      -47.065      -24.336       -2.351       55.360       21.698       12.877     3064.723      470.785      165.809        0.326        0.185       52.985       13.032        0.060      340.289       14.206      856.700
04/21/2014  22:20:00     -171.245      -57.235       -1.860       50.464       30.490       21.110     2546.576      929.653      445.613        1.826        0.196      180.557       22.817        0.016      340.103       13.890      856.667
04/21/2014  22:21:00     -115.620      -26.247       -3.532       64.130       38.911       21.460     4112.655     1514.080      460.534        1.008        0.304      118.562       22.278        0.035      339.792       13.367      856.620
04/21/2014  22:22:00     -149.700      -68.633       -9.037       60.140       39.481       26.109     3616.771     1558.724      681.695        1.653        0.293      164.683       28.243        0.029      339.688       13.192      856.600
04/21/2014  22:23:00     -138.435      -31.763       -3.450       43.561       38.222       20.992     1897.578     1460.959      440.680        1.199        0.190      142.033       21.815        0.024      339.711       13.231      856.594
04/21/2014  22:24:00     -127.231       17.719      -14.653       51.062       36.907       25.383     2607.354     1362.099      644.283        1.066        0.231      128.459       23.589        0.034      340.033       13.776      856.579
04/21/2014  22:25:00      -88.743       47.416      -14.611       38.141       25.385       26.458     1454.720      644.413      700.030        0.657        0.140      100.616       22.278        0.049      340.469       14.512      856.569
04/21/2014  22:26:00     -103.332      -12.271       -6.078       37.073       36.709       18.743     1374.429     1347.543      351.282        0.697        0.154      104.058       16.983        0.027      340.238       14.120      856.580
04/21/2014  22:27:00      -66.836      -39.020        1.938       32.169       27.383       21.663     1034.846      749.840      469.306        0.412        0.113       77.393       18.768        0.059      339.873       13.505      856.602
04/21/2014  22:28:00      -55.718      -15.565        4.940       34.045       29.998       17.589     1159.070      899.903      309.387        0.287        0.118       57.851       20.111        0.121      339.881       13.518      856.640
04/21/2014  22:29:00      -58.220       -6.507        8.007       50.506       42.919       21.078     2550.829     1842.056      444.276        0.417        0.242       58.582       27.408        0.219      339.777       13.344      856.660
04/21/2014  22:30:00     -119.246      -30.264       -3.939       29.661       35.212       19.522      879.765     1239.857      381.113        0.883        0.125      123.027       17.119        0.019      339.861       13.483      856.684
04/21/2014  22:31:00      -82.773      -20.902        6.911       37.706       43.240       23.362     1421.773     1869.679      545.786        0.559        0.192       85.371       21.172        0.062      339.735       13.272      856.698
04/21/2014  22:32:00     -139.142       16.092       -7.386       53.743       36.297       23.897     2888.288     1317.452      571.046        1.222        0.239      140.069       26.419        0.036      339.587       13.021      856.696
04/21/2014  22:33:00     -109.333      -24.138      -18.717       41.082       32.578       20.084     1687.758     1061.350      403.368        0.802        0.158      111.966       20.992        0.035      339.474       12.831      856.705
04/21/2014  22:34:00     -154.410      -38.941      -13.829       30.386       36.423       21.668      923.305     1326.667      469.483        1.413        0.136      159.245       20.633        0.017      339.405       12.716      856.710
04/21/2014  22:35:00     -145.754       16.910      -12.436       36.358       44.420       24.716     1321.923     1973.137      610.899        1.279        0.195      146.731       22.554        0.024      339.506       12.886      856.698
04/21/2014  22:36:00     -133.044      113.761      -27.401       32.735       30.630       21.548     1071.569      938.216      464.318        1.693        0.124      175.049       15.151        0.007      339.569       12.992      856.681
04/21/2014  22:37:00      -77.989       77.207      -16.611       58.203       38.769       22.554     3387.587     1503.066      508.685        0.886        0.270      109.741       15.960        0.021      339.497       12.871      856.680
04/21/2014  22:38:00      -59.976       62.212        1.572       48.405       62.398       38.219     2343.088     3893.467     1460.667        0.758        0.385       86.415       28.796        0.111      339.619       13.077      856.691
04/21/2014  22:39:00      -46.334       26.417       10.978       60.038       47.674       38.864     3604.581     2272.841     1510.403        0.518        0.369       53.335       28.995        0.296      339.748       13.293      856.703
04/21/2014  22:40:00      -57.203       50.745      -12.241       42.763       57.042       27.991     1828.674     3253.798      783.475        0.593        0.293       76.467       30.175        0.156      339.686       13.191      856.734
04/21/2014  22:41:00      -29.465      -11.753       -8.236       39.951       25.616       16.864     1596.111      656.172      284.386        0.180        0.127       31.723       13.443        0.180      339.556       12.970      856.739
04/21/2014  22:42:00        5.399      -26.323       -9.719       20.015       23.754       14.434      400.619      564.250      208.346        0.099        0.059       26.871       10.542        0.154      339.702       13.216      856.743
04/21/2014  22:43:00      -44.168      -19.985       -3.618       40.835       19.956       18.134     1667.527      398.260      328.857        0.238        0.120       48.479       12.673        0.068      339.531       12.928      856.733
04/21/2014  22:44:00      -33.656      -13.925       -3.622       30.139       14.343        9.191      908.367      205.734       84.471        0.127        0.060       36.423        5.453        0.022      339.497       12.871      856.694
04/21/2014  22:45:00      -85.468       48.479      -13.914       27.872       29.414       19.244      776.869      865.180      370.317        0.593        0.101       98.259       17.351        0.031      339.878       13.514      856.632
04/21/2014  22:46:00      -69.135       60.395      -17.574       23.133       21.094       19.952      535.143      444.936      398.099        0.506        0.069       91.799       17.925        0.038      340.097       13.884      856.571
04/21/2014  22:47:00      -30.858       63.337      -19.031       22.935       21.178        9.190      525.995      448.524       84.449        0.319        0.053       70.454        9.289        0.017      340.029       13.767      856.531
04/21/2014  22:48:00      -29.857       -1.723        2.748       17.028       30.446       12.910      289.954      926.957      166.667        0.114        0.069       29.907        6.960        0.054      339.763       13.320      856.510
04/21/2014  22:49:00       -9.565       -2.111        4.003       31.420       20.365        9.441      987.214      414.717       89.140        0.080        0.075        9.795        9.387        0.918      339.495       12.869      856.500
04/21/2014  22:50:00       26.660       31.453      -11.300       12.822       14.177        6.482      164.397      200.983       42.012        0.112        0.020       41.232        4.903        0.014      339.568       12.991      856.493
04/21/2014  22:51:00        0.317       15.085       -6.837       10.155       15.960        5.506      103.125      254.719       30.315        0.033        0.019       15.089        5.438        0.130      339.551       12.964      856.494
04/21/2014  22:52:00       52.160       20.183       -0.902       23.351       17.772       17.434      545.278      315.859      303.956        0.215        0.058       55.928       11.528        0.042      339.457       12.803      856.515
04/21/2014  22:53:00       48.717       24.403       23.344       31.812       19.876       20.740     1012.027      395.062      430.165        0.268        0.092       54.488       17.188        0.100      339.477       12.837      856.547
04/21/2014  22:54:00       17.409       38.377       -8.474       32.537       27.646       20.159     1058.627      764.302      406.371        0.204        0.111       42.141       17.315        0.169      339.580       13.011      856.574
04/21/2014  22:55:00       17.564        5.966       -6.099       12.931       31.271       13.461      167.219      977.858      181.204        0.085        0.066       18.549        7.736        0.174      339.568       12.991      856.586
04/21/2014  22:56:00        9.170       38.701       -6.400       20.104       12.482        7.726      404.159      155.806       59.684        0.112        0.031       39.773        5.260        0.017      339.843       13.456      856.558
04/21/2014  22:57:00       45.849       45.890        1.319       31.059       20.359       15.013      964.642      414.471      225.384        0.291        0.080       64.869        8.995        0.019      339.722       13.251      856.527
04/21/2014  22:58:00       90.253       62.071        9.163       41.583       22.635       34.880     1729.165      512.340     1216.634        0.777        0.173      109.537       14.719        0.018      339.458       12.805      856.494
04/21/2014  22:59:00       40.413       92.466      -14.082       26.510       47.898       25.853      702.761     2294.233      668.376        0.702        0.183      100.912       21.813        0.047      339.705       13.220      856.483
04/21/2014  23:00:00       54.000      155.968      -24.326       33.684       60.991       30.978     1134.605     3719.877      959.648        1.682        0.291      165.051       32.343        0.038      339.900       13.550      856.483
04/21/2014  23:01:00       38.549      211.036      -37.482       27.386       28.387       15.505      750.011      805.817      240.403        2.461        0.090      214.528       11.633        0.003      339.965       13.658      856.497
04/21/2014  23:02:00       59.083      140.347      -26.608       38.195       65.333       30.682     1458.864     4268.409      941.368        1.528        0.333      152.276       35.436        0.054      339.828       13.428      856.493
04/21/2014  23:03:00       39.181      143.034      -24.946       40.493       46.545       21.425     1639.689     2166.426      459.040        1.344        0.213      148.303       20.561        0.019      339.784       13.355      856.479
04/21/2014  23:04:00       62.867      260.832      -47.626       51.610       70.145       36.415     2663.608     4920.273     1326.028        4.158        0.445      268.301       34.310        0.016      340.214       14.075      856.462
04/21/2014  23:05:00       58.692      117.787      -12.255       53.620       68.668       41.089     2875.070     4715.304     1688.268        1.337        0.464      131.600       40.486        0.095      340.234       14.113      856.461
04/21/2014  23:06:00       56.109       66.039       -7.660       40.321       43.060       32.778     1625.785     1854.184     1074.382        0.606        0.228       86.657       29.045        0.112      340.179       14.020      856.463
04/21/2014  23:07:00       18.954       64.799       87.319       47.941       51.145       31.044     2298.294     2615.839      963.732        0.903        0.294       67.514       27.577        0.167      339.535       12.934      856.479
04/21/2014  23:08:00       35.296       30.471       25.268       34.367       32.113       31.677     1181.070     1031.271     1003.437        0.301        0.161       46.629       26.302        0.318      339.355       12.632      856.498
04/21/2014  23:09:00       29.560      102.103      -14.827       45.836       66.230       22.301     2100.903     4386.370      497.329        0.925        0.349      106.296       27.574        0.067      339.693       13.202      856.506
04/21/2014  23:10:00       68.463      140.088      -11.526       61.211       89.486       40.494     3746.832     8007.673     1639.780        1.892        0.670      155.923       42.407        0.074      339.764       13.320      856.518
04/21/2014  23:11:00       66.511      152.153      -10.928       57.561      108.384       55.458     3313.292    11747.163     3075.542        2.291        0.907      166.055       58.896        0.126      339.929       13.597      856.526
04/21/2014  23:12:00       52.200      137.645      -25.109       52.751       75.842       30.214     2782.667     5751.935      912.905        1.587        0.472      147.211       32.353        0.048      339.948       13.631      856.524
04/21/2014  23:13:00       64.600      156.300      -12.118       52.701       72.881       42.538     2777.380     5311.581     1809.444        1.932        0.495      169.124       37.950        0.050      339.984       13.690      856.504
04/21/2014  23:14:00       76.025      126.437      -10.734       58.750       91.884       47.704     3451.559     8442.605     2275.689        1.802        0.708      147.534       50.485        0.117      339.981       13.685      856.469
04/21/2014  23:15:00       54.870      177.178      -20.106       58.092      106.450       54.428     3374.708    11331.553     2962.441        2.623        0.883      185.480       53.082        0.082      339.817       13.409      856.435
04/21/2014  23:16:00       55.178      184.864      -30.731       47.700       72.453       35.021     2275.336     5249.496     1226.448        2.346        0.438      192.923       38.014        0.039      339.844       13.454      856.401
04/21/2014  23:17:00       21.302      125.443      -11.566       42.589       71.403       37.126     1813.858     5098.425     1378.331        1.231        0.415      127.239       43.644        0.118      339.797       13.377      856.381
04/21/2014  23:18:00       26.914      185.776      -26.159       45.123       59.586       34.865     2036.067     3550.513     1215.594        2.136        0.340      187.715       32.247        0.030      339.894       13.539      856.372
04/21/2014  23:19:00       20.996      200.143      -39.485       35.854       41.497       21.159     1285.516     1722.013      447.721        2.276        0.173      201.241       20.728        0.011      340.023       13.756      856.356
04/21/2014  23:20:00        2.080      185.379      -32.938       42.921       42.675       20.997     1842.179     1821.123      440.884        1.978        0.205      185.391       24.313        0.017      340.064       13.826      856.338
04/21/2014  23:21:00       17.262      177.418      -29.760       25.305       27.112       13.199      640.346      735.037      174.212        1.710        0.077      178.256       11.159        0.004      340.027       13.764      856.319
04/21/2014  23:22:00        5.418      154.530      -30.535       23.771       22.835       11.367      565.040      521.415      129.205        1.303        0.061      154.625        8.272        0.003      340.061       13.822      856.313
04/21/2014  23:23:00      -11.454      119.603      -25.344       29.818       31.497       15.081      889.110      992.077      227.422        0.859        0.105      120.151       14.419        0.014      340.170       14.005      856.307
04/21/2014  23:24:00      -42.474       85.286      -10.860       24.389       48.067       22.181      594.842     2310.446      492.006        0.630        0.170       95.278       24.142        0.064      340.326       14.269      856.293
04/21/2014  23:25:00      -64.302       20.302      -13.357       25.600       31.549       16.437      655.367      995.363      270.172        0.332        0.096       67.431       15.620        0.054      340.285       14.198      856.283
04/21/2014  23:26:00      -56.465      -20.021       -5.561       30.197       21.095       20.024      911.845      444.994      400.944        0.269        0.088       59.909       17.374        0.084      340.235       14.116      856.262
04/21/2014  23:27:00      -86.483      -38.367       -8.528       54.304       27.127       24.373     2948.890      735.857      594.042        0.665        0.214       94.612       17.756        0.035      340.086       13.865      856.236
04/21/2014  23:28:00      -94.956        0.400       -5.775       60.376       32.113       26.624     3645.305     1031.234      708.857        0.722        0.269       94.957       34.227        0.130      339.884       13.525      856.204
04/21/2014  23:29:00     -105.883      -42.369      -11.526       54.502       34.410       30.771     2970.461     1184.042      946.883        0.912        0.255      114.046       27.897        0.060      339.774       13.338      856.191
04/21/2014  23:30:00      -97.845      -51.092      -13.594       48.097       35.127       26.167     2313.348     1233.919      684.724        0.830        0.212      110.382       22.815        0.043      339.792       13.369      856.200
04/21/2014  23:31:00      -89.967      -42.940      -15.478       79.059       39.565       29.141     6250.322     1565.406      849.208        0.942        0.433       99.690       31.267        0.098      339.786       13.358      856.182
04/21/2014  23:32:00     -155.048      -56.418      -17.682       39.726       40.698       21.484     1578.154     1656.301      461.573        1.562        0.185      164.994       12.327        0.006      339.755       13.306      856.162
04/21/2014  23:33:00     -153.338      -55.058      -16.577       41.942       41.059       29.516     1759.111     1685.837      871.174        1.557        0.216      162.924       22.404        0.019      339.807       13.394      856.108
04/21/2014  23:34:00     -195.499      -58.589      -19.411       74.901       68.807       33.811     5610.089     4734.357     1143.187        2.676        0.574      204.090       34.438        0.028      339.800       13.379      856.056
04/21/2014  23:35:00     -212.727      -23.846       -6.783       83.729       73.167       40.897     7010.569     5353.460     1672.563        2.995        0.702      214.059       38.921        0.033      339.779       13.345      856.012
04/21/2014  23:36:00     -213.037      -39.979      -11.055      103.108       93.723       51.480    10631.251     8783.908     2650.219        3.458        1.103      216.756       51.748        0.057      339.864       13.486      856.004
04/21/2014  23:37:00     -210.987      -60.877      -10.680       97.979       94.545       55.789     9599.978     8938.810     3112.447        3.499        1.083      219.594       54.092        0.061      339.893       13.536      856.032
04/21/2014  23:38:00     -220.953      -77.401      -13.245       93.898       75.195       55.598     8816.878     5654.264     3091.162        3.627        0.878      234.118       51.446        0.048      339.867       13.492      856.094
04/21/2014  23:39:00     -206.319      -66.927        2.756      140.652      102.429       59.448    19782.897    10491.613     3534.021        4.042        1.690      216.902       64.016        0.087      339.843       13.450      856.130
04/21/2014  23:40:00     -234.845       54.341       -6.933      137.054       64.261       64.787    18783.936     4129.535     4197.318        4.263        1.356      241.050       73.050        0.092      339.838       13.442      856.129
04/21/2014  23:41:00     -231.690      -21.402       -1.283      147.096       89.043       56.322    21637.325     7928.590     3172.127        4.343        1.637      232.676       62.180        0.071      339.827       13.426      856.130
04/21/2014  23:42:00     -251.943       15.130      -11.604      115.729       85.517       50.311    13393.312     7313.126     2531.230        4.353        1.162      252.397       49.841        0.039      339.803       13.385      856.140
04/21/2014  23:43:00      -52.693     -131.038       -1.730       74.418       64.305       39.066     5538.046     4135.131     1526.135        1.557        0.560      141.236       30.168        0.046      339.852       13.470      856.168
04/21/2014  23:44:00      -63.303     -194.598        7.733       67.221       71.013       31.996     4518.703     5042.825     1023.712        2.626        0.529      204.636       20.288        0.010      339.885       13.521      856.259
04/21/2014  23:45:00      -31.432       -3.624       25.415       43.088       59.027       58.698     1856.542     3484.209     3445.447        0.521        0.439       31.640       38.404        1.473      339.875       13.509      856.365
04/21/2014  23:46:00       22.538       83.691      125.603       47.813      101.433       74.229     2286.093    10288.635     5509.912        2.068        0.904       86.673       80.565        0.864      339.963       13.655      856.512
04/21/2014  23:47:00      123.536      129.824      139.339      150.155      124.748       90.706    22546.514    15562.051     8227.662        4.892        2.317      179.208       83.510        0.217      339.786       13.356      856.595
04/21/2014  23:48:00      252.609      105.363       60.335      159.872      101.093       85.116    25559.150    10219.846     7244.815        6.078        2.151      273.702       80.730        0.087      339.710       13.227      856.632
04/21/2014  23:49:00       83.803       34.704       40.971      118.296       65.855       56.930    13994.018     4336.902     3241.059        1.573        1.079       90.705       29.199        0.104      339.756       13.308      856.592
04/21/2014  23:50:00      156.957       96.868       40.017       74.512       44.621       53.080     5552.091     1991.062     2817.499        2.299        0.518      184.442       48.114        0.068      339.669       13.159      856.582
04/21/2014  23:51:00       61.228       50.724       -7.207       49.792       40.396       37.143     2479.269     1631.872     1379.602        0.593        0.275       79.510       11.178        0.020      339.576       13.006      856.599
04/21/2014  23:52:00      160.355      100.517       86.411      126.860       93.932      100.387    16093.537     8823.238    10077.628        3.913        1.750      189.255       84.953        0.201      339.692       13.197      856.581
04/21/2014  23:53:00      152.968       90.865       73.352      101.568       83.982       66.094    10316.021     7052.914     4368.388        2.938        1.087      177.920       53.054        0.089      339.745       13.286      856.573
04/21/2014  23:54:00       57.461       84.840       98.362       48.976       48.654       34.723     2398.688     2367.224     1205.678        1.307        0.299      102.468       29.109        0.081      339.810       13.399      856.590
04/21/2014  23:55:00       -1.199      -44.970       26.079       18.763       37.430       21.295      352.038     1401.008      453.462        0.245        0.110       44.986       13.616        0.092      339.937       13.611      856.609
04/21/2014  23:56:00        4.206      -70.099        4.989       43.775       57.132       26.004     1916.284     3264.072      676.198        0.541        0.293       70.225       31.736        0.204      339.989       13.700      856.649
04/21/2014  23:57:00      103.903      -57.420       22.954       60.666       86.833       63.174     3680.331     7540.037     3990.942        1.491        0.761      118.714       63.359        0.285      339.920       13.583      856.746
04/21/2014  23:58:00       33.619       85.304      123.450       69.737       87.452       58.898     4863.190     7647.891     3468.973        1.981        0.799       91.690       61.659        0.452      339.832       13.433      856.830
04/21/2014  23:59:00       78.561       27.708       95.964       68.950       84.125       55.972     4754.054     7076.986     3132.868        1.555        0.748       83.304       53.070        0.406      339.837       13.444      856.836
